<?xml version="1.0" encoding="UTF-8" standalone="no" ?>
<gpx xmlns="http://www.topografix.com/GPX/1/1" xmlns:xsi="http://www.w3.org/2001/XMLSchema-instance" xsi:schemaLocation="http://www.topografix.com/GPX/1/1 http://www.topografix.com/GPX/1/1/gpx.xsd" version="1.1" creator="VisuGPX - https://www.visugpx.com">
  <metadata>
    <name>VTT - Tour du Grand Bérard</name>
    <desc><![CDATA[Relevé terrain / Chapelle St Anne - Col de la Pare - Pas de reverdillon - Pont de Bérard / Réel 23 Km / den  1 300m

Le CR sur 1001 sentiers:
<http://www.1001sentiers.fr/forum/viewtopic.php?f=35&t=1419>]]></desc>
  </metadata>
  <trk>
    <name><![CDATA[2010-07-25T06:17:15Z]]></name>
    <trkseg>
      <trkpt lat="44.47988" lon="6.7118">
        <ele>1761.753418</ele>
        <time>2010-07-25T06:17:16Z</time>
      </trkpt>
      <trkpt lat="44.4799" lon="6.7118">
        <ele>1760.7919922</ele>
        <time>2010-07-25T06:18:29Z</time>
      </trkpt>
      <trkpt lat="44.47991" lon="6.7118">
        <ele>1760.3112793</ele>
        <time>2010-07-25T06:18:31Z</time>
      </trkpt>
      <trkpt lat="44.48002" lon="6.71171">
        <ele>1759.8305664</ele>
        <time>2010-07-25T06:18:38Z</time>
      </trkpt>
      <trkpt lat="44.48014" lon="6.71157">
        <ele>1759.8305664</ele>
        <time>2010-07-25T06:18:45Z</time>
      </trkpt>
      <trkpt lat="44.48026" lon="6.71135">
        <ele>1760.7919922</ele>
        <time>2010-07-25T06:18:53Z</time>
      </trkpt>
      <trkpt lat="44.48033" lon="6.71113">
        <ele>1759.8305664</ele>
        <time>2010-07-25T06:19:00Z</time>
      </trkpt>
      <trkpt lat="44.48039" lon="6.71088">
        <ele>1760.7919922</ele>
        <time>2010-07-25T06:19:08Z</time>
      </trkpt>
      <trkpt lat="44.4804" lon="6.71065">
        <ele>1766.5598145</ele>
        <time>2010-07-25T06:19:16Z</time>
      </trkpt>
      <trkpt lat="44.4804" lon="6.71035">
        <ele>1766.5598145</ele>
        <time>2010-07-25T06:19:25Z</time>
      </trkpt>
      <trkpt lat="44.48038" lon="6.7101">
        <ele>1767.0405273</ele>
        <time>2010-07-25T06:19:32Z</time>
      </trkpt>
      <trkpt lat="44.48032" lon="6.70981">
        <ele>1772.8085938</ele>
        <time>2010-07-25T06:19:41Z</time>
      </trkpt>
      <trkpt lat="44.48031" lon="6.7096">
        <ele>1773.7697754</ele>
        <time>2010-07-25T06:19:47Z</time>
      </trkpt>
      <trkpt lat="44.48026" lon="6.70937">
        <ele>1776.1730957</ele>
        <time>2010-07-25T06:19:55Z</time>
      </trkpt>
      <trkpt lat="44.48023" lon="6.70913">
        <ele>1775.2116699</ele>
        <time>2010-07-25T06:20:03Z</time>
      </trkpt>
      <trkpt lat="44.48014" lon="6.70885">
        <ele>1780.4990234</ele>
        <time>2010-07-25T06:20:11Z</time>
      </trkpt>
      <trkpt lat="44.48007" lon="6.70868">
        <ele>1780.0183105</ele>
        <time>2010-07-25T06:20:17Z</time>
      </trkpt>
      <trkpt lat="44.47998" lon="6.70841">
        <ele>1779.5375977</ele>
        <time>2010-07-25T06:20:25Z</time>
      </trkpt>
      <trkpt lat="44.47997" lon="6.70817">
        <ele>1779.0568848</ele>
        <time>2010-07-25T06:20:33Z</time>
      </trkpt>
      <trkpt lat="44.47997" lon="6.70793">
        <ele>1774.7312012</ele>
        <time>2010-07-25T06:20:40Z</time>
      </trkpt>
      <trkpt lat="44.47994" lon="6.70757">
        <ele>1780.4990234</ele>
        <time>2010-07-25T06:20:50Z</time>
      </trkpt>
      <trkpt lat="44.47994" lon="6.70722">
        <ele>1780.9797363</ele>
        <time>2010-07-25T06:21:00Z</time>
      </trkpt>
      <trkpt lat="44.47995" lon="6.707">
        <ele>1785.3054199</ele>
        <time>2010-07-25T06:21:08Z</time>
      </trkpt>
      <trkpt lat="44.47997" lon="6.70679">
        <ele>1786.2668457</ele>
        <time>2010-07-25T06:21:14Z</time>
      </trkpt>
      <trkpt lat="44.47998" lon="6.70653">
        <ele>1787.7087402</ele>
        <time>2010-07-25T06:21:20Z</time>
      </trkpt>
      <trkpt lat="44.47999" lon="6.70626">
        <ele>1786.7473145</ele>
        <time>2010-07-25T06:21:27Z</time>
      </trkpt>
      <trkpt lat="44.47999" lon="6.7061">
        <ele>1787.7087402</ele>
        <time>2010-07-25T06:21:33Z</time>
      </trkpt>
      <trkpt lat="44.48" lon="6.70592">
        <ele>1785.7861328</ele>
        <time>2010-07-25T06:21:39Z</time>
      </trkpt>
      <trkpt lat="44.48007" lon="6.70569">
        <ele>1786.2668457</ele>
        <time>2010-07-25T06:21:47Z</time>
      </trkpt>
      <trkpt lat="44.4802" lon="6.70547">
        <ele>1784.3442383</ele>
        <time>2010-07-25T06:21:55Z</time>
      </trkpt>
      <trkpt lat="44.48032" lon="6.70526">
        <ele>1781.940918</ele>
        <time>2010-07-25T06:22:03Z</time>
      </trkpt>
      <trkpt lat="44.48039" lon="6.70511">
        <ele>1786.2668457</ele>
        <time>2010-07-25T06:22:09Z</time>
      </trkpt>
      <trkpt lat="44.4805" lon="6.70493">
        <ele>1789.6315918</ele>
        <time>2010-07-25T06:22:16Z</time>
      </trkpt>
      <trkpt lat="44.48061" lon="6.70474">
        <ele>1795.880127</ele>
        <time>2010-07-25T06:22:24Z</time>
      </trkpt>
      <trkpt lat="44.48066" lon="6.70461">
        <ele>1797.8027344</ele>
        <time>2010-07-25T06:22:29Z</time>
      </trkpt>
      <trkpt lat="44.48072" lon="6.70437">
        <ele>1798.763916</ele>
        <time>2010-07-25T06:22:37Z</time>
      </trkpt>
      <trkpt lat="44.48082" lon="6.70418">
        <ele>1797.8027344</ele>
        <time>2010-07-25T06:22:43Z</time>
      </trkpt>
      <trkpt lat="44.48095" lon="6.70406">
        <ele>1795.880127</ele>
        <time>2010-07-25T06:22:49Z</time>
      </trkpt>
      <trkpt lat="44.48104" lon="6.70395">
        <ele>1797.8027344</ele>
        <time>2010-07-25T06:22:55Z</time>
      </trkpt>
      <trkpt lat="44.48109" lon="6.70376">
        <ele>1794.4379883</ele>
        <time>2010-07-25T06:23:01Z</time>
      </trkpt>
      <trkpt lat="44.48113" lon="6.70356">
        <ele>1798.763916</ele>
        <time>2010-07-25T06:23:08Z</time>
      </trkpt>
      <trkpt lat="44.4812" lon="6.70337">
        <ele>1799.7253418</ele>
        <time>2010-07-25T06:23:15Z</time>
      </trkpt>
      <trkpt lat="44.48124" lon="6.7031">
        <ele>1806.9353027</ele>
        <time>2010-07-25T06:23:24Z</time>
      </trkpt>
      <trkpt lat="44.48132" lon="6.70275">
        <ele>1806.9353027</ele>
        <time>2010-07-25T06:23:34Z</time>
      </trkpt>
      <trkpt lat="44.48136" lon="6.70246">
        <ele>1807.4160156</ele>
        <time>2010-07-25T06:23:42Z</time>
      </trkpt>
      <trkpt lat="44.4814" lon="6.70221">
        <ele>1809.338623</ele>
        <time>2010-07-25T06:23:50Z</time>
      </trkpt>
      <trkpt lat="44.48145" lon="6.70192">
        <ele>1809.8190918</ele>
        <time>2010-07-25T06:23:57Z</time>
      </trkpt>
      <trkpt lat="44.48147" lon="6.70168">
        <ele>1809.338623</ele>
        <time>2010-07-25T06:24:04Z</time>
      </trkpt>
      <trkpt lat="44.4815" lon="6.70139">
        <ele>1811.2612305</ele>
        <time>2010-07-25T06:24:12Z</time>
      </trkpt>
      <trkpt lat="44.48158" lon="6.70117">
        <ele>1811.7419434</ele>
        <time>2010-07-25T06:24:19Z</time>
      </trkpt>
      <trkpt lat="44.48164" lon="6.70103">
        <ele>1809.8190918</ele>
        <time>2010-07-25T06:24:25Z</time>
      </trkpt>
      <trkpt lat="44.48168" lon="6.70095">
        <ele>1809.338623</ele>
        <time>2010-07-25T06:24:30Z</time>
      </trkpt>
      <trkpt lat="44.48171" lon="6.70079">
        <ele>1807.4160156</ele>
        <time>2010-07-25T06:24:38Z</time>
      </trkpt>
      <trkpt lat="44.48174" lon="6.7006">
        <ele>1810.7805176</ele>
        <time>2010-07-25T06:24:44Z</time>
      </trkpt>
      <trkpt lat="44.48172" lon="6.70038">
        <ele>1815.1064453</ele>
        <time>2010-07-25T06:24:51Z</time>
      </trkpt>
      <trkpt lat="44.48171" lon="6.70018">
        <ele>1815.5871582</ele>
        <time>2010-07-25T06:24:59Z</time>
      </trkpt>
      <trkpt lat="44.48171" lon="6.70002">
        <ele>1814.6257324</ele>
        <time>2010-07-25T06:25:07Z</time>
      </trkpt>
      <trkpt lat="44.48171" lon="6.7">
        <ele>1815.5871582</ele>
        <time>2010-07-25T06:25:08Z</time>
      </trkpt>
      <trkpt lat="44.48173" lon="6.69992">
        <ele>1815.1064453</ele>
        <time>2010-07-25T06:25:12Z</time>
      </trkpt>
      <trkpt lat="44.48181" lon="6.69976">
        <ele>1814.6257324</ele>
        <time>2010-07-25T06:25:19Z</time>
      </trkpt>
      <trkpt lat="44.48183" lon="6.69961">
        <ele>1817.9902344</ele>
        <time>2010-07-25T06:25:25Z</time>
      </trkpt>
      <trkpt lat="44.48182" lon="6.69945">
        <ele>1822.7971191</ele>
        <time>2010-07-25T06:25:32Z</time>
      </trkpt>
      <trkpt lat="44.4818" lon="6.69929">
        <ele>1825.2001953</ele>
        <time>2010-07-25T06:25:39Z</time>
      </trkpt>
      <trkpt lat="44.48175" lon="6.69916">
        <ele>1821.3549805</ele>
        <time>2010-07-25T06:25:45Z</time>
      </trkpt>
      <trkpt lat="44.48171" lon="6.69899">
        <ele>1821.3549805</ele>
        <time>2010-07-25T06:25:52Z</time>
      </trkpt>
      <trkpt lat="44.48167" lon="6.69886">
        <ele>1826.642334</ele>
        <time>2010-07-25T06:25:58Z</time>
      </trkpt>
      <trkpt lat="44.48161" lon="6.69872">
        <ele>1829.0454102</ele>
        <time>2010-07-25T06:26:05Z</time>
      </trkpt>
      <trkpt lat="44.4816" lon="6.6986">
        <ele>1830.4875488</ele>
        <time>2010-07-25T06:26:11Z</time>
      </trkpt>
      <trkpt lat="44.48156" lon="6.69848">
        <ele>1829.0454102</ele>
        <time>2010-07-25T06:26:17Z</time>
      </trkpt>
      <trkpt lat="44.48151" lon="6.69829">
        <ele>1830.4875488</ele>
        <time>2010-07-25T06:26:25Z</time>
      </trkpt>
      <trkpt lat="44.48147" lon="6.69815">
        <ele>1830.9682617</ele>
        <time>2010-07-25T06:26:31Z</time>
      </trkpt>
      <trkpt lat="44.48147" lon="6.69804">
        <ele>1831.4487305</ele>
        <time>2010-07-25T06:26:36Z</time>
      </trkpt>
      <trkpt lat="44.48149" lon="6.69781">
        <ele>1832.890625</ele>
        <time>2010-07-25T06:26:43Z</time>
      </trkpt>
      <trkpt lat="44.4815" lon="6.69759">
        <ele>1833.8520508</ele>
        <time>2010-07-25T06:26:49Z</time>
      </trkpt>
      <trkpt lat="44.48148" lon="6.69733">
        <ele>1835.2939453</ele>
        <time>2010-07-25T06:26:56Z</time>
      </trkpt>
      <trkpt lat="44.48139" lon="6.69706">
        <ele>1831.9294434</ele>
        <time>2010-07-25T06:27:05Z</time>
      </trkpt>
      <trkpt lat="44.48135" lon="6.69687">
        <ele>1830.0068359</ele>
        <time>2010-07-25T06:27:11Z</time>
      </trkpt>
      <trkpt lat="44.4813" lon="6.69664">
        <ele>1832.4101562</ele>
        <time>2010-07-25T06:27:18Z</time>
      </trkpt>
      <trkpt lat="44.48125" lon="6.69631">
        <ele>1833.8520508</ele>
        <time>2010-07-25T06:27:27Z</time>
      </trkpt>
      <trkpt lat="44.48124" lon="6.69612">
        <ele>1836.736084</ele>
        <time>2010-07-25T06:27:32Z</time>
      </trkpt>
      <trkpt lat="44.48122" lon="6.69586">
        <ele>1838.6589355</ele>
        <time>2010-07-25T06:27:39Z</time>
      </trkpt>
      <trkpt lat="44.4812" lon="6.69556">
        <ele>1838.1782227</ele>
        <time>2010-07-25T06:27:47Z</time>
      </trkpt>
      <trkpt lat="44.4812" lon="6.69532">
        <ele>1836.2556152</ele>
        <time>2010-07-25T06:27:54Z</time>
      </trkpt>
      <trkpt lat="44.48115" lon="6.69505">
        <ele>1836.2556152</ele>
        <time>2010-07-25T06:28:02Z</time>
      </trkpt>
      <trkpt lat="44.48112" lon="6.69485">
        <ele>1837.2167969</ele>
        <time>2010-07-25T06:28:09Z</time>
      </trkpt>
      <trkpt lat="44.48111" lon="6.69469">
        <ele>1837.6975098</ele>
        <time>2010-07-25T06:28:15Z</time>
      </trkpt>
      <trkpt lat="44.48108" lon="6.69449">
        <ele>1837.6975098</ele>
        <time>2010-07-25T06:28:24Z</time>
      </trkpt>
      <trkpt lat="44.48107" lon="6.69426">
        <ele>1838.6589355</ele>
        <time>2010-07-25T06:28:32Z</time>
      </trkpt>
      <trkpt lat="44.48109" lon="6.69406">
        <ele>1841.5427246</ele>
        <time>2010-07-25T06:28:39Z</time>
      </trkpt>
      <trkpt lat="44.48112" lon="6.69384">
        <ele>1842.0234375</ele>
        <time>2010-07-25T06:28:46Z</time>
      </trkpt>
      <trkpt lat="44.48114" lon="6.69368">
        <ele>1846.3493652</ele>
        <time>2010-07-25T06:28:53Z</time>
      </trkpt>
      <trkpt lat="44.48126" lon="6.69341">
        <ele>1844.9072266</ele>
        <time>2010-07-25T06:29:02Z</time>
      </trkpt>
      <trkpt lat="44.48128" lon="6.69326">
        <ele>1842.9846191</ele>
        <time>2010-07-25T06:29:08Z</time>
      </trkpt>
      <trkpt lat="44.48126" lon="6.69307">
        <ele>1843.9460449</ele>
        <time>2010-07-25T06:29:14Z</time>
      </trkpt>
      <trkpt lat="44.48121" lon="6.69293">
        <ele>1845.8686523</ele>
        <time>2010-07-25T06:29:20Z</time>
      </trkpt>
      <trkpt lat="44.48114" lon="6.69282">
        <ele>1851.1557617</ele>
        <time>2010-07-25T06:29:26Z</time>
      </trkpt>
      <trkpt lat="44.48105" lon="6.69273">
        <ele>1855.4819336</ele>
        <time>2010-07-25T06:29:32Z</time>
      </trkpt>
      <trkpt lat="44.48093" lon="6.69251">
        <ele>1859.3271484</ele>
        <time>2010-07-25T06:29:41Z</time>
      </trkpt>
      <trkpt lat="44.48084" lon="6.69235">
        <ele>1861.7304688</ele>
        <time>2010-07-25T06:29:48Z</time>
      </trkpt>
      <trkpt lat="44.48071" lon="6.69219">
        <ele>1862.6916504</ele>
        <time>2010-07-25T06:29:57Z</time>
      </trkpt>
      <trkpt lat="44.48058" lon="6.69201">
        <ele>1865.0949707</ele>
        <time>2010-07-25T06:30:05Z</time>
      </trkpt>
      <trkpt lat="44.48049" lon="6.6919">
        <ele>1863.652832</ele>
        <time>2010-07-25T06:30:11Z</time>
      </trkpt>
      <trkpt lat="44.48035" lon="6.69178">
        <ele>1860.769043</ele>
        <time>2010-07-25T06:30:19Z</time>
      </trkpt>
      <trkpt lat="44.48031" lon="6.6916">
        <ele>1862.6916504</ele>
        <time>2010-07-25T06:30:26Z</time>
      </trkpt>
      <trkpt lat="44.4803" lon="6.69142">
        <ele>1862.2109375</ele>
        <time>2010-07-25T06:30:33Z</time>
      </trkpt>
      <trkpt lat="44.48031" lon="6.69132">
        <ele>1860.769043</ele>
        <time>2010-07-25T06:30:38Z</time>
      </trkpt>
      <trkpt lat="44.48041" lon="6.69127">
        <ele>1860.769043</ele>
        <time>2010-07-25T06:30:45Z</time>
      </trkpt>
      <trkpt lat="44.48045" lon="6.69125">
        <ele>1859.8076172</ele>
        <time>2010-07-25T06:30:47Z</time>
      </trkpt>
      <trkpt lat="44.48056" lon="6.69123">
        <ele>1866.5368652</ele>
        <time>2010-07-25T06:30:54Z</time>
      </trkpt>
      <trkpt lat="44.48066" lon="6.69117">
        <ele>1873.7468262</ele>
        <time>2010-07-25T06:31:04Z</time>
      </trkpt>
      <trkpt lat="44.48082" lon="6.69108">
        <ele>1874.708252</ele>
        <time>2010-07-25T06:31:10Z</time>
      </trkpt>
      <trkpt lat="44.48096" lon="6.69095">
        <ele>1876.6308594</ele>
        <time>2010-07-25T06:31:16Z</time>
      </trkpt>
      <trkpt lat="44.48107" lon="6.69079">
        <ele>1873.7468262</ele>
        <time>2010-07-25T06:31:23Z</time>
      </trkpt>
      <trkpt lat="44.48104" lon="6.6908">
        <ele>1877.592041</ele>
        <time>2010-07-25T06:31:28Z</time>
      </trkpt>
      <trkpt lat="44.48107" lon="6.69056">
        <ele>1889.1279297</ele>
        <time>2010-07-25T06:32:52Z</time>
      </trkpt>
      <trkpt lat="44.48113" lon="6.69066">
        <ele>1878.5534668</ele>
        <time>2010-07-25T06:32:58Z</time>
      </trkpt>
      <trkpt lat="44.48105" lon="6.69049">
        <ele>1875.1887207</ele>
        <time>2010-07-25T06:33:05Z</time>
      </trkpt>
      <trkpt lat="44.48098" lon="6.69077">
        <ele>1847.7912598</ele>
        <time>2010-07-25T06:33:55Z</time>
      </trkpt>
      <trkpt lat="44.48096" lon="6.69073">
        <ele>1888.166748</ele>
        <time>2010-07-25T06:34:22Z</time>
      </trkpt>
      <trkpt lat="44.48094" lon="6.69061">
        <ele>1891.0505371</ele>
        <time>2010-07-25T06:34:29Z</time>
      </trkpt>
      <trkpt lat="44.48094" lon="6.69058">
        <ele>1891.0505371</ele>
        <time>2010-07-25T06:34:30Z</time>
      </trkpt>
      <trkpt lat="44.48092" lon="6.69051">
        <ele>1892.9731445</ele>
        <time>2010-07-25T06:34:35Z</time>
      </trkpt>
      <trkpt lat="44.48103" lon="6.69073">
        <ele>1878.5534668</ele>
        <time>2010-07-25T06:36:15Z</time>
      </trkpt>
      <trkpt lat="44.48126" lon="6.69056">
        <ele>1867.9787598</ele>
        <time>2010-07-25T06:36:24Z</time>
      </trkpt>
      <trkpt lat="44.48137" lon="6.69045">
        <ele>1867.4980469</ele>
        <time>2010-07-25T06:36:31Z</time>
      </trkpt>
      <trkpt lat="44.48141" lon="6.69045">
        <ele>1871.8242188</ele>
        <time>2010-07-25T06:36:36Z</time>
      </trkpt>
      <trkpt lat="44.48145" lon="6.69042">
        <ele>1871.8242188</ele>
        <time>2010-07-25T06:36:38Z</time>
      </trkpt>
      <trkpt lat="44.48157" lon="6.69035">
        <ele>1872.7856445</ele>
        <time>2010-07-25T06:36:46Z</time>
      </trkpt>
      <trkpt lat="44.48171" lon="6.69026">
        <ele>1872.7856445</ele>
        <time>2010-07-25T06:36:53Z</time>
      </trkpt>
      <trkpt lat="44.48175" lon="6.69024">
        <ele>1872.7856445</ele>
        <time>2010-07-25T06:36:58Z</time>
      </trkpt>
      <trkpt lat="44.48187" lon="6.69017">
        <ele>1874.708252</ele>
        <time>2010-07-25T06:37:06Z</time>
      </trkpt>
      <trkpt lat="44.48201" lon="6.69007">
        <ele>1876.6308594</ele>
        <time>2010-07-25T06:37:16Z</time>
      </trkpt>
      <trkpt lat="44.48207" lon="6.69003">
        <ele>1879.5146484</ele>
        <time>2010-07-25T06:37:22Z</time>
      </trkpt>
      <trkpt lat="44.48215" lon="6.68997">
        <ele>1887.6860352</ele>
        <time>2010-07-25T06:37:30Z</time>
      </trkpt>
      <trkpt lat="44.48225" lon="6.68985">
        <ele>1884.8022461</ele>
        <time>2010-07-25T06:37:37Z</time>
      </trkpt>
      <trkpt lat="44.48234" lon="6.68976">
        <ele>1886.2441406</ele>
        <time>2010-07-25T06:37:43Z</time>
      </trkpt>
      <trkpt lat="44.48246" lon="6.68965">
        <ele>1886.2441406</ele>
        <time>2010-07-25T06:37:51Z</time>
      </trkpt>
      <trkpt lat="44.48257" lon="6.68955">
        <ele>1888.6474609</ele>
        <time>2010-07-25T06:37:59Z</time>
      </trkpt>
      <trkpt lat="44.48264" lon="6.68946">
        <ele>1893.9345703</ele>
        <time>2010-07-25T06:38:06Z</time>
      </trkpt>
      <trkpt lat="44.4826" lon="6.68938">
        <ele>1889.6086426</ele>
        <time>2010-07-25T06:38:11Z</time>
      </trkpt>
      <trkpt lat="44.48265" lon="6.68923">
        <ele>1893.4538574</ele>
        <time>2010-07-25T06:38:18Z</time>
      </trkpt>
      <trkpt lat="44.48271" lon="6.68907">
        <ele>1894.895752</ele>
        <time>2010-07-25T06:38:25Z</time>
      </trkpt>
      <trkpt lat="44.48274" lon="6.68899">
        <ele>1897.2990723</ele>
        <time>2010-07-25T06:38:28Z</time>
      </trkpt>
      <trkpt lat="44.48278" lon="6.68888">
        <ele>1900.6638184</ele>
        <time>2010-07-25T06:38:33Z</time>
      </trkpt>
      <trkpt lat="44.48285" lon="6.6887">
        <ele>1904.5090332</ele>
        <time>2010-07-25T06:38:42Z</time>
      </trkpt>
      <trkpt lat="44.48292" lon="6.68854">
        <ele>1901.1445312</ele>
        <time>2010-07-25T06:38:52Z</time>
      </trkpt>
      <trkpt lat="44.48294" lon="6.68843">
        <ele>1900.1833496</ele>
        <time>2010-07-25T06:38:58Z</time>
      </trkpt>
      <trkpt lat="44.48298" lon="6.68825">
        <ele>1894.895752</ele>
        <time>2010-07-25T06:39:06Z</time>
      </trkpt>
      <trkpt lat="44.48303" lon="6.68812">
        <ele>1895.8571777</ele>
        <time>2010-07-25T06:39:13Z</time>
      </trkpt>
      <trkpt lat="44.48312" lon="6.68801">
        <ele>1899.7023926</ele>
        <time>2010-07-25T06:39:20Z</time>
      </trkpt>
      <trkpt lat="44.48312" lon="6.68785">
        <ele>1902.1057129</ele>
        <time>2010-07-25T06:39:26Z</time>
      </trkpt>
      <trkpt lat="44.48314" lon="6.68771">
        <ele>1910.2768555</ele>
        <time>2010-07-25T06:39:32Z</time>
      </trkpt>
      <trkpt lat="44.48313" lon="6.68761">
        <ele>1914.6027832</ele>
        <time>2010-07-25T06:39:37Z</time>
      </trkpt>
      <trkpt lat="44.48312" lon="6.68744">
        <ele>1913.1608887</ele>
        <time>2010-07-25T06:39:44Z</time>
      </trkpt>
      <trkpt lat="44.48315" lon="6.68729">
        <ele>1918.9289551</ele>
        <time>2010-07-25T06:39:52Z</time>
      </trkpt>
      <trkpt lat="44.48317" lon="6.68719">
        <ele>1923.2548828</ele>
        <time>2010-07-25T06:39:57Z</time>
      </trkpt>
      <trkpt lat="44.48316" lon="6.68713">
        <ele>1926.1386719</ele>
        <time>2010-07-25T06:40:01Z</time>
      </trkpt>
      <trkpt lat="44.48306" lon="6.68719">
        <ele>1917.4868164</ele>
        <time>2010-07-25T06:40:08Z</time>
      </trkpt>
      <trkpt lat="44.48299" lon="6.68729">
        <ele>1915.564209</ele>
        <time>2010-07-25T06:40:16Z</time>
      </trkpt>
      <trkpt lat="44.48298" lon="6.68743">
        <ele>1917.4868164</ele>
        <time>2010-07-25T06:40:23Z</time>
      </trkpt>
      <trkpt lat="44.48298" lon="6.68755">
        <ele>1919.409668</ele>
        <time>2010-07-25T06:40:30Z</time>
      </trkpt>
      <trkpt lat="44.48297" lon="6.68769">
        <ele>1918.4482422</ele>
        <time>2010-07-25T06:40:36Z</time>
      </trkpt>
      <trkpt lat="44.48291" lon="6.68787">
        <ele>1914.6027832</ele>
        <time>2010-07-25T06:40:45Z</time>
      </trkpt>
      <trkpt lat="44.48284" lon="6.68798">
        <ele>1914.6027832</ele>
        <time>2010-07-25T06:40:52Z</time>
      </trkpt>
      <trkpt lat="44.48279" lon="6.68807">
        <ele>1914.1220703</ele>
        <time>2010-07-25T06:40:58Z</time>
      </trkpt>
      <trkpt lat="44.48273" lon="6.68818">
        <ele>1915.0834961</ele>
        <time>2010-07-25T06:41:05Z</time>
      </trkpt>
      <trkpt lat="44.48266" lon="6.68827">
        <ele>1918.4482422</ele>
        <time>2010-07-25T06:41:13Z</time>
      </trkpt>
      <trkpt lat="44.48255" lon="6.68833">
        <ele>1917.0063477</ele>
        <time>2010-07-25T06:41:20Z</time>
      </trkpt>
      <trkpt lat="44.48249" lon="6.68845">
        <ele>1919.409668</ele>
        <time>2010-07-25T06:41:26Z</time>
      </trkpt>
      <trkpt lat="44.48242" lon="6.68853">
        <ele>1915.0834961</ele>
        <time>2010-07-25T06:41:31Z</time>
      </trkpt>
      <trkpt lat="44.48237" lon="6.68859">
        <ele>1917.0063477</ele>
        <time>2010-07-25T06:41:36Z</time>
      </trkpt>
      <trkpt lat="44.48236" lon="6.6886">
        <ele>1916.0449219</ele>
        <time>2010-07-25T06:41:37Z</time>
      </trkpt>
      <trkpt lat="44.48229" lon="6.68866">
        <ele>1918.9289551</ele>
        <time>2010-07-25T06:41:44Z</time>
      </trkpt>
      <trkpt lat="44.48219" lon="6.68874">
        <ele>1920.8515625</ele>
        <time>2010-07-25T06:41:52Z</time>
      </trkpt>
      <trkpt lat="44.48208" lon="6.68881">
        <ele>1924.2160645</ele>
        <time>2010-07-25T06:42:00Z</time>
      </trkpt>
      <trkpt lat="44.48197" lon="6.68883">
        <ele>1922.7741699</ele>
        <time>2010-07-25T06:42:07Z</time>
      </trkpt>
      <trkpt lat="44.48186" lon="6.68886">
        <ele>1923.7353516</ele>
        <time>2010-07-25T06:42:15Z</time>
      </trkpt>
      <trkpt lat="44.48171" lon="6.68888">
        <ele>1925.1772461</ele>
        <time>2010-07-25T06:42:25Z</time>
      </trkpt>
      <trkpt lat="44.4816" lon="6.68891">
        <ele>1930.9453125</ele>
        <time>2010-07-25T06:42:34Z</time>
      </trkpt>
      <trkpt lat="44.4815" lon="6.68891">
        <ele>1934.7907715</ele>
        <time>2010-07-25T06:42:41Z</time>
      </trkpt>
      <trkpt lat="44.48136" lon="6.6889">
        <ele>1931.9064941</ele>
        <time>2010-07-25T06:42:49Z</time>
      </trkpt>
      <trkpt lat="44.48127" lon="6.68892">
        <ele>1936.232666</ele>
        <time>2010-07-25T06:42:57Z</time>
      </trkpt>
      <trkpt lat="44.48113" lon="6.68892">
        <ele>1936.7131348</ele>
        <time>2010-07-25T06:43:06Z</time>
      </trkpt>
      <trkpt lat="44.48105" lon="6.68897">
        <ele>1936.232666</ele>
        <time>2010-07-25T06:43:12Z</time>
      </trkpt>
      <trkpt lat="44.48096" lon="6.68906">
        <ele>1938.6359863</ele>
        <time>2010-07-25T06:43:20Z</time>
      </trkpt>
      <trkpt lat="44.48086" lon="6.68909">
        <ele>1941.5197754</ele>
        <time>2010-07-25T06:43:28Z</time>
      </trkpt>
      <trkpt lat="44.48074" lon="6.68913">
        <ele>1945.8457031</ele>
        <time>2010-07-25T06:43:36Z</time>
      </trkpt>
      <trkpt lat="44.48061" lon="6.68916">
        <ele>1944.4035645</ele>
        <time>2010-07-25T06:43:42Z</time>
      </trkpt>
      <trkpt lat="44.48046" lon="6.68922">
        <ele>1939.597168</ele>
        <time>2010-07-25T06:43:51Z</time>
      </trkpt>
      <trkpt lat="44.48035" lon="6.68928">
        <ele>1938.6359863</ele>
        <time>2010-07-25T06:43:57Z</time>
      </trkpt>
      <trkpt lat="44.48024" lon="6.68931">
        <ele>1941.5197754</ele>
        <time>2010-07-25T06:44:03Z</time>
      </trkpt>
      <trkpt lat="44.4802" lon="6.68923">
        <ele>1943.9230957</ele>
        <time>2010-07-25T06:44:08Z</time>
      </trkpt>
      <trkpt lat="44.48026" lon="6.68921">
        <ele>1947.2875977</ele>
        <time>2010-07-25T06:44:11Z</time>
      </trkpt>
      <trkpt lat="44.48039" lon="6.68917">
        <ele>1944.8842773</ele>
        <time>2010-07-25T06:44:18Z</time>
      </trkpt>
      <trkpt lat="44.48047" lon="6.68911">
        <ele>1941.5197754</ele>
        <time>2010-07-25T06:44:24Z</time>
      </trkpt>
      <trkpt lat="44.48053" lon="6.68904">
        <ele>1941.0390625</ele>
        <time>2010-07-25T06:44:29Z</time>
      </trkpt>
      <trkpt lat="44.48064" lon="6.68893">
        <ele>1942.0004883</ele>
        <time>2010-07-25T06:44:36Z</time>
      </trkpt>
      <trkpt lat="44.48067" lon="6.6889">
        <ele>1945.3649902</ele>
        <time>2010-07-25T06:44:38Z</time>
      </trkpt>
      <trkpt lat="44.48066" lon="6.6888">
        <ele>1947.2875977</ele>
        <time>2010-07-25T06:44:45Z</time>
      </trkpt>
      <trkpt lat="44.48073" lon="6.68863">
        <ele>1945.8457031</ele>
        <time>2010-07-25T06:44:51Z</time>
      </trkpt>
      <trkpt lat="44.48077" lon="6.68849">
        <ele>1948.7297363</ele>
        <time>2010-07-25T06:44:58Z</time>
      </trkpt>
      <trkpt lat="44.48078" lon="6.68847">
        <ele>1950.6523438</ele>
        <time>2010-07-25T06:44:59Z</time>
      </trkpt>
      <trkpt lat="44.48086" lon="6.68839">
        <ele>1955.4589844</ele>
        <time>2010-07-25T06:45:06Z</time>
      </trkpt>
      <trkpt lat="44.48088" lon="6.68836">
        <ele>1954.0170898</ele>
        <time>2010-07-25T06:45:09Z</time>
      </trkpt>
      <trkpt lat="44.48094" lon="6.68832">
        <ele>1951.6137695</ele>
        <time>2010-07-25T06:45:13Z</time>
      </trkpt>
      <trkpt lat="44.48101" lon="6.6883">
        <ele>1950.171875</ele>
        <time>2010-07-25T06:45:19Z</time>
      </trkpt>
      <trkpt lat="44.48113" lon="6.68826">
        <ele>1950.6523438</ele>
        <time>2010-07-25T06:45:24Z</time>
      </trkpt>
      <trkpt lat="44.48127" lon="6.68819">
        <ele>1950.6523438</ele>
        <time>2010-07-25T06:45:30Z</time>
      </trkpt>
      <trkpt lat="44.48139" lon="6.68812">
        <ele>1950.6523438</ele>
        <time>2010-07-25T06:45:38Z</time>
      </trkpt>
      <trkpt lat="44.48143" lon="6.68807">
        <ele>1952.5749512</ele>
        <time>2010-07-25T06:45:43Z</time>
      </trkpt>
      <trkpt lat="44.48147" lon="6.68799">
        <ele>1953.536377</ele>
        <time>2010-07-25T06:45:49Z</time>
      </trkpt>
      <trkpt lat="44.48147" lon="6.68797">
        <ele>1954.0170898</ele>
        <time>2010-07-25T06:45:51Z</time>
      </trkpt>
      <trkpt lat="44.48153" lon="6.68792">
        <ele>1960.2653809</ele>
        <time>2010-07-25T06:45:57Z</time>
      </trkpt>
      <trkpt lat="44.48154" lon="6.68791">
        <ele>1960.2653809</ele>
        <time>2010-07-25T06:45:58Z</time>
      </trkpt>
      <trkpt lat="44.48159" lon="6.68776">
        <ele>1962.6687012</ele>
        <time>2010-07-25T06:46:06Z</time>
      </trkpt>
      <trkpt lat="44.48158" lon="6.68773">
        <ele>1962.1879883</ele>
        <time>2010-07-25T06:46:08Z</time>
      </trkpt>
      <trkpt lat="44.48171" lon="6.68755">
        <ele>1966.0334473</ele>
        <time>2010-07-25T06:46:16Z</time>
      </trkpt>
      <trkpt lat="44.48177" lon="6.68743">
        <ele>1968.4367676</ele>
        <time>2010-07-25T06:46:22Z</time>
      </trkpt>
      <trkpt lat="44.48178" lon="6.68741">
        <ele>1970.359375</ele>
        <time>2010-07-25T06:46:23Z</time>
      </trkpt>
      <trkpt lat="44.48185" lon="6.68732">
        <ele>1972.7626953</ele>
        <time>2010-07-25T06:46:27Z</time>
      </trkpt>
      <trkpt lat="44.48189" lon="6.68725">
        <ele>1979.0109863</ele>
        <time>2010-07-25T06:46:34Z</time>
      </trkpt>
      <trkpt lat="44.48192" lon="6.68717">
        <ele>1980.934082</ele>
        <time>2010-07-25T06:46:38Z</time>
      </trkpt>
      <trkpt lat="44.48195" lon="6.68714">
        <ele>1981.4145508</ele>
        <time>2010-07-25T06:46:40Z</time>
      </trkpt>
      <trkpt lat="44.48199" lon="6.68695">
        <ele>1979.9724121</ele>
        <time>2010-07-25T06:46:47Z</time>
      </trkpt>
      <trkpt lat="44.48202" lon="6.68677">
        <ele>1976.1271973</ele>
        <time>2010-07-25T06:46:53Z</time>
      </trkpt>
      <trkpt lat="44.48201" lon="6.68668">
        <ele>1979.4916992</ele>
        <time>2010-07-25T06:46:58Z</time>
      </trkpt>
      <trkpt lat="44.48199" lon="6.68658">
        <ele>1980.4533691</ele>
        <time>2010-07-25T06:47:03Z</time>
      </trkpt>
      <trkpt lat="44.48198" lon="6.68643">
        <ele>1981.8952637</ele>
        <time>2010-07-25T06:47:10Z</time>
      </trkpt>
      <trkpt lat="44.482" lon="6.68632">
        <ele>1988.6245117</ele>
        <time>2010-07-25T06:47:17Z</time>
      </trkpt>
      <trkpt lat="44.48206" lon="6.68619">
        <ele>1992.9501953</ele>
        <time>2010-07-25T06:47:22Z</time>
      </trkpt>
      <trkpt lat="44.48205" lon="6.68613">
        <ele>1997.7570801</ele>
        <time>2010-07-25T06:47:27Z</time>
      </trkpt>
      <trkpt lat="44.48209" lon="6.68601">
        <ele>2002.0827637</ele>
        <time>2010-07-25T06:47:33Z</time>
      </trkpt>
      <trkpt lat="44.48212" lon="6.68593">
        <ele>2007.8508301</ele>
        <time>2010-07-25T06:47:36Z</time>
      </trkpt>
      <trkpt lat="44.48216" lon="6.68574">
        <ele>2007.8508301</ele>
        <time>2010-07-25T06:47:44Z</time>
      </trkpt>
      <trkpt lat="44.4822" lon="6.68564">
        <ele>2011.6960449</ele>
        <time>2010-07-25T06:47:48Z</time>
      </trkpt>
      <trkpt lat="44.4822" lon="6.68552">
        <ele>2007.8508301</ele>
        <time>2010-07-25T06:47:54Z</time>
      </trkpt>
      <trkpt lat="44.48219" lon="6.6855">
        <ele>2004.0056152</ele>
        <time>2010-07-25T06:47:57Z</time>
      </trkpt>
      <trkpt lat="44.48223" lon="6.68541">
        <ele>1998.7182617</ele>
        <time>2010-07-25T06:48:01Z</time>
      </trkpt>
      <trkpt lat="44.48229" lon="6.68525">
        <ele>1991.0275879</ele>
        <time>2010-07-25T06:48:08Z</time>
      </trkpt>
      <trkpt lat="44.48238" lon="6.68512">
        <ele>1986.2211914</ele>
        <time>2010-07-25T06:48:15Z</time>
      </trkpt>
      <trkpt lat="44.4824" lon="6.68502">
        <ele>1984.7792969</ele>
        <time>2010-07-25T06:48:20Z</time>
      </trkpt>
      <trkpt lat="44.48247" lon="6.6849">
        <ele>1984.298584</ele>
        <time>2010-07-25T06:48:26Z</time>
      </trkpt>
      <trkpt lat="44.48251" lon="6.68485">
        <ele>1984.7792969</ele>
        <time>2010-07-25T06:48:31Z</time>
      </trkpt>
      <trkpt lat="44.48251" lon="6.68476">
        <ele>1985.7404785</ele>
        <time>2010-07-25T06:48:39Z</time>
      </trkpt>
      <trkpt lat="44.48256" lon="6.68462">
        <ele>1986.7016602</ele>
        <time>2010-07-25T06:48:46Z</time>
      </trkpt>
      <trkpt lat="44.4826" lon="6.68457">
        <ele>1987.6630859</ele>
        <time>2010-07-25T06:48:48Z</time>
      </trkpt>
      <trkpt lat="44.48268" lon="6.68439">
        <ele>1992.4697266</ele>
        <time>2010-07-25T06:48:57Z</time>
      </trkpt>
      <trkpt lat="44.48269" lon="6.68436">
        <ele>1992.4697266</ele>
        <time>2010-07-25T06:48:58Z</time>
      </trkpt>
      <trkpt lat="44.48272" lon="6.68424">
        <ele>1998.2375488</ele>
        <time>2010-07-25T06:49:05Z</time>
      </trkpt>
      <trkpt lat="44.48273" lon="6.68412">
        <ele>2002.0827637</ele>
        <time>2010-07-25T06:49:10Z</time>
      </trkpt>
      <trkpt lat="44.48267" lon="6.68399">
        <ele>1999.1989746</ele>
        <time>2010-07-25T06:49:16Z</time>
      </trkpt>
      <trkpt lat="44.48266" lon="6.68395">
        <ele>1999.6796875</ele>
        <time>2010-07-25T06:49:18Z</time>
      </trkpt>
      <trkpt lat="44.4827" lon="6.68379">
        <ele>2002.5634766</ele>
        <time>2010-07-25T06:49:25Z</time>
      </trkpt>
      <trkpt lat="44.48276" lon="6.68367">
        <ele>2009.7731934</ele>
        <time>2010-07-25T06:49:31Z</time>
      </trkpt>
      <trkpt lat="44.48276" lon="6.68351">
        <ele>2010.2539062</ele>
        <time>2010-07-25T06:49:39Z</time>
      </trkpt>
      <trkpt lat="44.48273" lon="6.68333">
        <ele>2008.3312988</ele>
        <time>2010-07-25T06:49:46Z</time>
      </trkpt>
      <trkpt lat="44.48279" lon="6.68319">
        <ele>2010.2539062</ele>
        <time>2010-07-25T06:49:53Z</time>
      </trkpt>
      <trkpt lat="44.4828" lon="6.6831">
        <ele>2008.8120117</ele>
        <time>2010-07-25T06:50:00Z</time>
      </trkpt>
      <trkpt lat="44.48282" lon="6.68301">
        <ele>2006.8894043</ele>
        <time>2010-07-25T06:50:04Z</time>
      </trkpt>
      <trkpt lat="44.48284" lon="6.68297">
        <ele>2007.3701172</ele>
        <time>2010-07-25T06:50:06Z</time>
      </trkpt>
      <trkpt lat="44.48284" lon="6.68289">
        <ele>2004.0056152</ele>
        <time>2010-07-25T06:50:10Z</time>
      </trkpt>
      <trkpt lat="44.48287" lon="6.68271">
        <ele>2001.121582</ele>
        <time>2010-07-25T06:50:18Z</time>
      </trkpt>
      <trkpt lat="44.48289" lon="6.68267">
        <ele>2002.5634766</ele>
        <time>2010-07-25T06:50:21Z</time>
      </trkpt>
      <trkpt lat="44.48295" lon="6.68258">
        <ele>2011.6960449</ele>
        <time>2010-07-25T06:50:28Z</time>
      </trkpt>
      <trkpt lat="44.48301" lon="6.68245">
        <ele>2023.7124023</ele>
        <time>2010-07-25T06:50:34Z</time>
      </trkpt>
      <trkpt lat="44.48306" lon="6.68232">
        <ele>2033.8063965</ele>
        <time>2010-07-25T06:50:40Z</time>
      </trkpt>
      <trkpt lat="44.48311" lon="6.68223">
        <ele>2031.8837891</ele>
        <time>2010-07-25T06:50:45Z</time>
      </trkpt>
      <trkpt lat="44.48317" lon="6.68207">
        <ele>2025.6350098</ele>
        <time>2010-07-25T06:50:52Z</time>
      </trkpt>
      <trkpt lat="44.48322" lon="6.68199">
        <ele>2027.0771484</ele>
        <time>2010-07-25T06:50:58Z</time>
      </trkpt>
      <trkpt lat="44.48321" lon="6.68191">
        <ele>2026.1157227</ele>
        <time>2010-07-25T06:51:04Z</time>
      </trkpt>
      <trkpt lat="44.48326" lon="6.68177">
        <ele>2023.7124023</ele>
        <time>2010-07-25T06:51:11Z</time>
      </trkpt>
      <trkpt lat="44.48323" lon="6.68177">
        <ele>2023.7124023</ele>
        <time>2010-07-25T06:51:13Z</time>
      </trkpt>
      <trkpt lat="44.48317" lon="6.68157">
        <ele>2026.1157227</ele>
        <time>2010-07-25T06:51:23Z</time>
      </trkpt>
      <trkpt lat="44.48319" lon="6.68138">
        <ele>2025.1542969</ele>
        <time>2010-07-25T06:51:29Z</time>
      </trkpt>
      <trkpt lat="44.48318" lon="6.68134">
        <ele>2025.6350098</ele>
        <time>2010-07-25T06:51:31Z</time>
      </trkpt>
      <trkpt lat="44.48321" lon="6.68124">
        <ele>2030.4418945</ele>
        <time>2010-07-25T06:51:34Z</time>
      </trkpt>
      <trkpt lat="44.48324" lon="6.68114">
        <ele>2037.6516113</ele>
        <time>2010-07-25T06:51:39Z</time>
      </trkpt>
      <trkpt lat="44.48331" lon="6.68101">
        <ele>2039.0935059</ele>
        <time>2010-07-25T06:51:46Z</time>
      </trkpt>
      <trkpt lat="44.48338" lon="6.68081">
        <ele>2035.7290039</ele>
        <time>2010-07-25T06:51:55Z</time>
      </trkpt>
      <trkpt lat="44.48338" lon="6.68077">
        <ele>2035.7290039</ele>
        <time>2010-07-25T06:51:57Z</time>
      </trkpt>
      <trkpt lat="44.48336" lon="6.68072">
        <ele>2029.9611816</ele>
        <time>2010-07-25T06:52:00Z</time>
      </trkpt>
      <trkpt lat="44.48342" lon="6.68061">
        <ele>2025.6350098</ele>
        <time>2010-07-25T06:52:07Z</time>
      </trkpt>
      <trkpt lat="44.48345" lon="6.68048">
        <ele>2024.1931152</ele>
        <time>2010-07-25T06:52:14Z</time>
      </trkpt>
      <trkpt lat="44.48345" lon="6.68043">
        <ele>2025.1542969</ele>
        <time>2010-07-25T06:52:17Z</time>
      </trkpt>
      <trkpt lat="44.48345" lon="6.68028">
        <ele>2033.3256836</ele>
        <time>2010-07-25T06:52:24Z</time>
      </trkpt>
      <trkpt lat="44.48346" lon="6.68026">
        <ele>2034.7678223</ele>
        <time>2010-07-25T06:52:25Z</time>
      </trkpt>
      <trkpt lat="44.48343" lon="6.68011">
        <ele>2036.6901855</ele>
        <time>2010-07-25T06:52:32Z</time>
      </trkpt>
      <trkpt lat="44.4834" lon="6.67997">
        <ele>2035.7290039</ele>
        <time>2010-07-25T06:52:39Z</time>
      </trkpt>
      <trkpt lat="44.48338" lon="6.67995">
        <ele>2035.7290039</ele>
        <time>2010-07-25T06:52:40Z</time>
      </trkpt>
      <trkpt lat="44.48335" lon="6.67976">
        <ele>2031.4030762</ele>
        <time>2010-07-25T06:52:47Z</time>
      </trkpt>
      <trkpt lat="44.48334" lon="6.67961">
        <ele>2034.2871094</ele>
        <time>2010-07-25T06:52:53Z</time>
      </trkpt>
      <trkpt lat="44.4834" lon="6.67949">
        <ele>2035.7290039</ele>
        <time>2010-07-25T06:52:57Z</time>
      </trkpt>
      <trkpt lat="44.48352" lon="6.67933">
        <ele>2042.458252</ele>
        <time>2010-07-25T06:53:04Z</time>
      </trkpt>
      <trkpt lat="44.48362" lon="6.67915">
        <ele>2035.7290039</ele>
        <time>2010-07-25T06:53:12Z</time>
      </trkpt>
      <trkpt lat="44.48371" lon="6.67894">
        <ele>2029.4804688</ele>
        <time>2010-07-25T06:53:20Z</time>
      </trkpt>
      <trkpt lat="44.48373" lon="6.67881">
        <ele>2032.364502</ele>
        <time>2010-07-25T06:53:25Z</time>
      </trkpt>
      <trkpt lat="44.48362" lon="6.6786">
        <ele>2031.4030762</ele>
        <time>2010-07-25T06:53:31Z</time>
      </trkpt>
      <trkpt lat="44.48359" lon="6.67848">
        <ele>2030.9226074</ele>
        <time>2010-07-25T06:53:34Z</time>
      </trkpt>
      <trkpt lat="44.48371" lon="6.67823">
        <ele>2037.1708984</ele>
        <time>2010-07-25T06:53:40Z</time>
      </trkpt>
      <trkpt lat="44.48373" lon="6.67818">
        <ele>2036.6901855</ele>
        <time>2010-07-25T06:53:42Z</time>
      </trkpt>
      <trkpt lat="44.48385" lon="6.67796">
        <ele>2036.2097168</ele>
        <time>2010-07-25T06:53:49Z</time>
      </trkpt>
      <trkpt lat="44.48386" lon="6.67774">
        <ele>2038.6130371</ele>
        <time>2010-07-25T06:53:55Z</time>
      </trkpt>
      <trkpt lat="44.48378" lon="6.67752">
        <ele>2040.5354004</ele>
        <time>2010-07-25T06:54:02Z</time>
      </trkpt>
      <trkpt lat="44.4837" lon="6.67727">
        <ele>2035.248291</ele>
        <time>2010-07-25T06:54:08Z</time>
      </trkpt>
      <trkpt lat="44.48371" lon="6.67712">
        <ele>2038.1323242</ele>
        <time>2010-07-25T06:54:13Z</time>
      </trkpt>
      <trkpt lat="44.48369" lon="6.67689">
        <ele>2041.0161133</ele>
        <time>2010-07-25T06:54:19Z</time>
      </trkpt>
      <trkpt lat="44.48378" lon="6.67671">
        <ele>2042.9387207</ele>
        <time>2010-07-25T06:54:23Z</time>
      </trkpt>
      <trkpt lat="44.48387" lon="6.67649">
        <ele>2049.1875</ele>
        <time>2010-07-25T06:54:30Z</time>
      </trkpt>
      <trkpt lat="44.48382" lon="6.67627">
        <ele>2046.3037109</ele>
        <time>2010-07-25T06:54:35Z</time>
      </trkpt>
      <trkpt lat="44.48373" lon="6.67599">
        <ele>2046.7841797</ele>
        <time>2010-07-25T06:54:42Z</time>
      </trkpt>
      <trkpt lat="44.48367" lon="6.6757">
        <ele>2046.3037109</ele>
        <time>2010-07-25T06:54:48Z</time>
      </trkpt>
      <trkpt lat="44.48363" lon="6.67538">
        <ele>2046.3037109</ele>
        <time>2010-07-25T06:54:55Z</time>
      </trkpt>
      <trkpt lat="44.48366" lon="6.67521">
        <ele>2049.6682129</ele>
        <time>2010-07-25T06:55:00Z</time>
      </trkpt>
      <trkpt lat="44.48376" lon="6.67492">
        <ele>2049.1875</ele>
        <time>2010-07-25T06:55:07Z</time>
      </trkpt>
      <trkpt lat="44.48391" lon="6.67462">
        <ele>2048.2260742</ele>
        <time>2010-07-25T06:55:15Z</time>
      </trkpt>
      <trkpt lat="44.48398" lon="6.67443">
        <ele>2047.2648926</ele>
        <time>2010-07-25T06:55:20Z</time>
      </trkpt>
      <trkpt lat="44.48406" lon="6.67429">
        <ele>2051.1101074</ele>
        <time>2010-07-25T06:55:25Z</time>
      </trkpt>
      <trkpt lat="44.4841" lon="6.67407">
        <ele>2048.7067871</ele>
        <time>2010-07-25T06:55:31Z</time>
      </trkpt>
      <trkpt lat="44.48417" lon="6.67387">
        <ele>2046.3037109</ele>
        <time>2010-07-25T06:55:37Z</time>
      </trkpt>
      <trkpt lat="44.48419" lon="6.67364">
        <ele>2040.0549316</ele>
        <time>2010-07-25T06:55:43Z</time>
      </trkpt>
      <trkpt lat="44.48426" lon="6.67343">
        <ele>2038.6130371</ele>
        <time>2010-07-25T06:55:49Z</time>
      </trkpt>
      <trkpt lat="44.48429" lon="6.67316">
        <ele>2040.5354004</ele>
        <time>2010-07-25T06:55:56Z</time>
      </trkpt>
      <trkpt lat="44.48424" lon="6.67295">
        <ele>2052.0712891</ele>
        <time>2010-07-25T06:56:03Z</time>
      </trkpt>
      <trkpt lat="44.48413" lon="6.6727">
        <ele>2044.8615723</ele>
        <time>2010-07-25T06:56:09Z</time>
      </trkpt>
      <trkpt lat="44.48408" lon="6.67252">
        <ele>2047.7456055</ele>
        <time>2010-07-25T06:56:14Z</time>
      </trkpt>
      <trkpt lat="44.48406" lon="6.67228">
        <ele>2053.5134277</ele>
        <time>2010-07-25T06:56:20Z</time>
      </trkpt>
      <trkpt lat="44.48405" lon="6.67189">
        <ele>2053.5134277</ele>
        <time>2010-07-25T06:56:28Z</time>
      </trkpt>
      <trkpt lat="44.48407" lon="6.67168">
        <ele>2055.9165039</ele>
        <time>2010-07-25T06:56:33Z</time>
      </trkpt>
      <trkpt lat="44.484" lon="6.67145">
        <ele>2052.0712891</ele>
        <time>2010-07-25T06:56:38Z</time>
      </trkpt>
      <trkpt lat="44.48389" lon="6.67121">
        <ele>2046.3037109</ele>
        <time>2010-07-25T06:56:44Z</time>
      </trkpt>
      <trkpt lat="44.48373" lon="6.67093">
        <ele>2041.4968262</ele>
        <time>2010-07-25T06:56:52Z</time>
      </trkpt>
      <trkpt lat="44.48357" lon="6.67072">
        <ele>2039.5742188</ele>
        <time>2010-07-25T06:56:59Z</time>
      </trkpt>
      <trkpt lat="44.4836" lon="6.67047">
        <ele>2043.4194336</ele>
        <time>2010-07-25T06:57:04Z</time>
      </trkpt>
      <trkpt lat="44.48374" lon="6.67029">
        <ele>2044.3808594</ele>
        <time>2010-07-25T06:57:09Z</time>
      </trkpt>
      <trkpt lat="44.48386" lon="6.67013">
        <ele>2045.822998</ele>
        <time>2010-07-25T06:57:14Z</time>
      </trkpt>
      <trkpt lat="44.48394" lon="6.66986">
        <ele>2046.3037109</ele>
        <time>2010-07-25T06:57:20Z</time>
      </trkpt>
      <trkpt lat="44.48393" lon="6.66953">
        <ele>2043.9001465</ele>
        <time>2010-07-25T06:57:27Z</time>
      </trkpt>
      <trkpt lat="44.48391" lon="6.66916">
        <ele>2042.458252</ele>
        <time>2010-07-25T06:57:35Z</time>
      </trkpt>
      <trkpt lat="44.48377" lon="6.66892">
        <ele>2044.3808594</ele>
        <time>2010-07-25T06:57:42Z</time>
      </trkpt>
      <trkpt lat="44.48355" lon="6.66876">
        <ele>2052.552002</ele>
        <time>2010-07-25T06:57:50Z</time>
      </trkpt>
      <trkpt lat="44.48341" lon="6.66853">
        <ele>2053.0327148</ele>
        <time>2010-07-25T06:57:58Z</time>
      </trkpt>
      <trkpt lat="44.48339" lon="6.66834">
        <ele>2051.1101074</ele>
        <time>2010-07-25T06:58:02Z</time>
      </trkpt>
      <trkpt lat="44.48343" lon="6.66813">
        <ele>2049.1875</ele>
        <time>2010-07-25T06:58:08Z</time>
      </trkpt>
      <trkpt lat="44.48348" lon="6.66789">
        <ele>2049.1875</ele>
        <time>2010-07-25T06:58:16Z</time>
      </trkpt>
      <trkpt lat="44.48347" lon="6.66771">
        <ele>2052.552002</ele>
        <time>2010-07-25T06:58:23Z</time>
      </trkpt>
      <trkpt lat="44.48341" lon="6.66756">
        <ele>2050.6293945</ele>
        <time>2010-07-25T06:58:29Z</time>
      </trkpt>
      <trkpt lat="44.48333" lon="6.66739">
        <ele>2049.6682129</ele>
        <time>2010-07-25T06:58:36Z</time>
      </trkpt>
      <trkpt lat="44.48329" lon="6.66728">
        <ele>2051.1101074</ele>
        <time>2010-07-25T06:58:42Z</time>
      </trkpt>
      <trkpt lat="44.48322" lon="6.66712">
        <ele>2053.9941406</ele>
        <time>2010-07-25T06:58:51Z</time>
      </trkpt>
      <trkpt lat="44.48316" lon="6.66698">
        <ele>2054.4746094</ele>
        <time>2010-07-25T06:58:57Z</time>
      </trkpt>
      <trkpt lat="44.48311" lon="6.66684">
        <ele>2057.3586426</ele>
        <time>2010-07-25T06:59:05Z</time>
      </trkpt>
      <trkpt lat="44.48305" lon="6.66669">
        <ele>2057.8393555</ele>
        <time>2010-07-25T06:59:13Z</time>
      </trkpt>
      <trkpt lat="44.48301" lon="6.66655">
        <ele>2059.28125</ele>
        <time>2010-07-25T06:59:20Z</time>
      </trkpt>
      <trkpt lat="44.48293" lon="6.66643">
        <ele>2057.8393555</ele>
        <time>2010-07-25T06:59:26Z</time>
      </trkpt>
      <trkpt lat="44.48287" lon="6.66629">
        <ele>2062.6459961</ele>
        <time>2010-07-25T06:59:35Z</time>
      </trkpt>
      <trkpt lat="44.48287" lon="6.66627">
        <ele>2063.6071777</ele>
        <time>2010-07-25T06:59:36Z</time>
      </trkpt>
      <trkpt lat="44.48284" lon="6.66623">
        <ele>2069.3752441</ele>
        <time>2010-07-25T06:59:40Z</time>
      </trkpt>
      <trkpt lat="44.48284" lon="6.66604">
        <ele>2069.8557129</ele>
        <time>2010-07-25T06:59:49Z</time>
      </trkpt>
      <trkpt lat="44.48292" lon="6.66601">
        <ele>2061.2041016</ele>
        <time>2010-07-25T07:00:08Z</time>
      </trkpt>
      <trkpt lat="44.48293" lon="6.66604">
        <ele>2064.5686035</ele>
        <time>2010-07-25T07:00:16Z</time>
      </trkpt>
      <trkpt lat="44.48296" lon="6.66598">
        <ele>2063.6071777</ele>
        <time>2010-07-25T07:00:22Z</time>
      </trkpt>
      <trkpt lat="44.48297" lon="6.66591">
        <ele>2048.7067871</ele>
        <time>2010-07-25T07:03:33Z</time>
      </trkpt>
      <trkpt lat="44.483" lon="6.66593">
        <ele>2055.9165039</ele>
        <time>2010-07-25T07:03:39Z</time>
      </trkpt>
      <trkpt lat="44.483" lon="6.66582">
        <ele>2062.1652832</ele>
        <time>2010-07-25T07:03:45Z</time>
      </trkpt>
      <trkpt lat="44.48294" lon="6.66565">
        <ele>2056.8779297</ele>
        <time>2010-07-25T07:03:51Z</time>
      </trkpt>
      <trkpt lat="44.48289" lon="6.66549">
        <ele>2056.8779297</ele>
        <time>2010-07-25T07:03:59Z</time>
      </trkpt>
      <trkpt lat="44.48288" lon="6.66544">
        <ele>2056.8779297</ele>
        <time>2010-07-25T07:04:01Z</time>
      </trkpt>
      <trkpt lat="44.48281" lon="6.66532">
        <ele>2056.3972168</ele>
        <time>2010-07-25T07:04:07Z</time>
      </trkpt>
      <trkpt lat="44.48281" lon="6.66524">
        <ele>2056.3972168</ele>
        <time>2010-07-25T07:04:10Z</time>
      </trkpt>
      <trkpt lat="44.48281" lon="6.66505">
        <ele>2055.9165039</ele>
        <time>2010-07-25T07:04:17Z</time>
      </trkpt>
      <trkpt lat="44.48285" lon="6.66489">
        <ele>2061.6848145</ele>
        <time>2010-07-25T07:04:25Z</time>
      </trkpt>
      <trkpt lat="44.48289" lon="6.66466">
        <ele>2062.6459961</ele>
        <time>2010-07-25T07:04:35Z</time>
      </trkpt>
      <trkpt lat="44.48287" lon="6.66461">
        <ele>2062.1652832</ele>
        <time>2010-07-25T07:04:37Z</time>
      </trkpt>
      <trkpt lat="44.48288" lon="6.66451">
        <ele>2064.0878906</ele>
        <time>2010-07-25T07:04:41Z</time>
      </trkpt>
      <trkpt lat="44.48284" lon="6.66439">
        <ele>2070.3364258</ele>
        <time>2010-07-25T07:04:49Z</time>
      </trkpt>
      <trkpt lat="44.4827" lon="6.66434">
        <ele>2084.2756348</ele>
        <time>2010-07-25T07:05:40Z</time>
      </trkpt>
      <trkpt lat="44.48257" lon="6.66411">
        <ele>2082.8334961</ele>
        <time>2010-07-25T07:05:45Z</time>
      </trkpt>
      <trkpt lat="44.4824" lon="6.66375">
        <ele>2078.0270996</ele>
        <time>2010-07-25T07:05:52Z</time>
      </trkpt>
      <trkpt lat="44.48226" lon="6.66331">
        <ele>2073.7009277</ele>
        <time>2010-07-25T07:06:00Z</time>
      </trkpt>
      <trkpt lat="44.4822" lon="6.66299">
        <ele>2071.2976074</ele>
        <time>2010-07-25T07:06:07Z</time>
      </trkpt>
      <trkpt lat="44.48214" lon="6.66269">
        <ele>2070.8171387</ele>
        <time>2010-07-25T07:06:13Z</time>
      </trkpt>
      <trkpt lat="44.48207" lon="6.66227">
        <ele>2066.010498</ele>
        <time>2010-07-25T07:06:20Z</time>
      </trkpt>
      <trkpt lat="44.48196" lon="6.66176">
        <ele>2061.6848145</ele>
        <time>2010-07-25T07:06:29Z</time>
      </trkpt>
      <trkpt lat="44.48192" lon="6.66162">
        <ele>2061.6848145</ele>
        <time>2010-07-25T07:06:33Z</time>
      </trkpt>
      <trkpt lat="44.48184" lon="6.66148">
        <ele>2062.1652832</ele>
        <time>2010-07-25T07:06:39Z</time>
      </trkpt>
      <trkpt lat="44.48169" lon="6.66128">
        <ele>2065.0493164</ele>
        <time>2010-07-25T07:06:46Z</time>
      </trkpt>
      <trkpt lat="44.48154" lon="6.66107">
        <ele>2065.5300293</ele>
        <time>2010-07-25T07:06:54Z</time>
      </trkpt>
      <trkpt lat="44.4814" lon="6.66086">
        <ele>2065.0493164</ele>
        <time>2010-07-25T07:07:01Z</time>
      </trkpt>
      <trkpt lat="44.48123" lon="6.66068">
        <ele>2064.0878906</ele>
        <time>2010-07-25T07:07:08Z</time>
      </trkpt>
      <trkpt lat="44.481" lon="6.66054">
        <ele>2063.126709</ele>
        <time>2010-07-25T07:07:16Z</time>
      </trkpt>
      <trkpt lat="44.48076" lon="6.66044">
        <ele>2064.0878906</ele>
        <time>2010-07-25T07:07:25Z</time>
      </trkpt>
      <trkpt lat="44.48052" lon="6.66033">
        <ele>2064.5686035</ele>
        <time>2010-07-25T07:07:34Z</time>
      </trkpt>
      <trkpt lat="44.48033" lon="6.6602">
        <ele>2065.0493164</ele>
        <time>2010-07-25T07:07:41Z</time>
      </trkpt>
      <trkpt lat="44.48016" lon="6.65999">
        <ele>2065.0493164</ele>
        <time>2010-07-25T07:07:49Z</time>
      </trkpt>
      <trkpt lat="44.47998" lon="6.65988">
        <ele>2065.0493164</ele>
        <time>2010-07-25T07:07:56Z</time>
      </trkpt>
      <trkpt lat="44.47976" lon="6.65982">
        <ele>2066.010498</ele>
        <time>2010-07-25T07:08:03Z</time>
      </trkpt>
      <trkpt lat="44.47952" lon="6.65983">
        <ele>2068.8945312</ele>
        <time>2010-07-25T07:08:11Z</time>
      </trkpt>
      <trkpt lat="44.47931" lon="6.65983">
        <ele>2069.8557129</ele>
        <time>2010-07-25T07:08:17Z</time>
      </trkpt>
      <trkpt lat="44.47922" lon="6.65982">
        <ele>2070.3364258</ele>
        <time>2010-07-25T07:08:19Z</time>
      </trkpt>
      <trkpt lat="44.47901" lon="6.65973">
        <ele>2071.7783203</ele>
        <time>2010-07-25T07:08:25Z</time>
      </trkpt>
      <trkpt lat="44.479" lon="6.65971">
        <ele>2070.8171387</ele>
        <time>2010-07-25T07:08:28Z</time>
      </trkpt>
      <trkpt lat="44.47903" lon="6.65971">
        <ele>2073.220459</ele>
        <time>2010-07-25T07:09:05Z</time>
      </trkpt>
      <trkpt lat="44.47899" lon="6.65971">
        <ele>2074.6623535</ele>
        <time>2010-07-25T07:09:44Z</time>
      </trkpt>
      <trkpt lat="44.47892" lon="6.65971">
        <ele>2073.7009277</ele>
        <time>2010-07-25T07:09:52Z</time>
      </trkpt>
      <trkpt lat="44.47886" lon="6.6597">
        <ele>2073.7009277</ele>
        <time>2010-07-25T07:09:57Z</time>
      </trkpt>
      <trkpt lat="44.47873" lon="6.65965">
        <ele>2074.6623535</ele>
        <time>2010-07-25T07:10:02Z</time>
      </trkpt>
      <trkpt lat="44.47859" lon="6.65964">
        <ele>2076.5852051</ele>
        <time>2010-07-25T07:10:08Z</time>
      </trkpt>
      <trkpt lat="44.47838" lon="6.6597">
        <ele>2077.065918</ele>
        <time>2010-07-25T07:10:15Z</time>
      </trkpt>
      <trkpt lat="44.4782" lon="6.65965">
        <ele>2078.0270996</ele>
        <time>2010-07-25T07:10:22Z</time>
      </trkpt>
      <trkpt lat="44.47799" lon="6.65956">
        <ele>2079.4689941</ele>
        <time>2010-07-25T07:10:32Z</time>
      </trkpt>
      <trkpt lat="44.47783" lon="6.65947">
        <ele>2079.4689941</ele>
        <time>2010-07-25T07:10:40Z</time>
      </trkpt>
      <trkpt lat="44.47767" lon="6.65939">
        <ele>2079.4689941</ele>
        <time>2010-07-25T07:10:47Z</time>
      </trkpt>
      <trkpt lat="44.47747" lon="6.65925">
        <ele>2079.4689941</ele>
        <time>2010-07-25T07:10:57Z</time>
      </trkpt>
      <trkpt lat="44.47729" lon="6.65915">
        <ele>2080.4304199</ele>
        <time>2010-07-25T07:11:06Z</time>
      </trkpt>
      <trkpt lat="44.47709" lon="6.65902">
        <ele>2080.4304199</ele>
        <time>2010-07-25T07:11:15Z</time>
      </trkpt>
      <trkpt lat="44.47704" lon="6.65902">
        <ele>2079.949707</ele>
        <time>2010-07-25T07:11:19Z</time>
      </trkpt>
      <trkpt lat="44.47695" lon="6.65893">
        <ele>2089.5627441</ele>
        <time>2010-07-25T07:12:02Z</time>
      </trkpt>
      <trkpt lat="44.47681" lon="6.65882">
        <ele>2088.6015625</ele>
        <time>2010-07-25T07:12:08Z</time>
      </trkpt>
      <trkpt lat="44.47665" lon="6.65869">
        <ele>2091.0046387</ele>
        <time>2010-07-25T07:12:15Z</time>
      </trkpt>
      <trkpt lat="44.47653" lon="6.65861">
        <ele>2090.5239258</ele>
        <time>2010-07-25T07:12:22Z</time>
      </trkpt>
      <trkpt lat="44.47635" lon="6.65857">
        <ele>2090.043457</ele>
        <time>2010-07-25T07:12:29Z</time>
      </trkpt>
      <trkpt lat="44.4762" lon="6.65848">
        <ele>2089.0820312</ele>
        <time>2010-07-25T07:12:37Z</time>
      </trkpt>
      <trkpt lat="44.47603" lon="6.65838">
        <ele>2089.0820312</ele>
        <time>2010-07-25T07:12:45Z</time>
      </trkpt>
      <trkpt lat="44.4759" lon="6.65833">
        <ele>2090.043457</ele>
        <time>2010-07-25T07:12:51Z</time>
      </trkpt>
      <trkpt lat="44.47571" lon="6.65824">
        <ele>2089.0820312</ele>
        <time>2010-07-25T07:13:00Z</time>
      </trkpt>
      <trkpt lat="44.47549" lon="6.65819">
        <ele>2088.1208496</ele>
        <time>2010-07-25T07:13:09Z</time>
      </trkpt>
      <trkpt lat="44.47537" lon="6.65815">
        <ele>2089.5627441</ele>
        <time>2010-07-25T07:13:14Z</time>
      </trkpt>
      <trkpt lat="44.47522" lon="6.65801">
        <ele>2093.888916</ele>
        <time>2010-07-25T07:13:21Z</time>
      </trkpt>
      <trkpt lat="44.47501" lon="6.65787">
        <ele>2097.253418</ele>
        <time>2010-07-25T07:13:32Z</time>
      </trkpt>
      <trkpt lat="44.47488" lon="6.65773">
        <ele>2097.7341309</ele>
        <time>2010-07-25T07:13:39Z</time>
      </trkpt>
      <trkpt lat="44.47472" lon="6.65762">
        <ele>2098.2145996</ele>
        <time>2010-07-25T07:13:46Z</time>
      </trkpt>
      <trkpt lat="44.47461" lon="6.65763">
        <ele>2096.2922363</ele>
        <time>2010-07-25T07:13:52Z</time>
      </trkpt>
      <trkpt lat="44.47446" lon="6.65761">
        <ele>2097.253418</ele>
        <time>2010-07-25T07:14:00Z</time>
      </trkpt>
      <trkpt lat="44.47426" lon="6.65758">
        <ele>2096.7727051</ele>
        <time>2010-07-25T07:14:09Z</time>
      </trkpt>
      <trkpt lat="44.47413" lon="6.65748">
        <ele>2095.3308105</ele>
        <time>2010-07-25T07:14:16Z</time>
      </trkpt>
      <trkpt lat="44.47401" lon="6.65739">
        <ele>2097.253418</ele>
        <time>2010-07-25T07:14:22Z</time>
      </trkpt>
      <trkpt lat="44.4739" lon="6.65731">
        <ele>2098.6953125</ele>
        <time>2010-07-25T07:14:28Z</time>
      </trkpt>
      <trkpt lat="44.47376" lon="6.65716">
        <ele>2101.0986328</ele>
        <time>2010-07-25T07:14:37Z</time>
      </trkpt>
      <trkpt lat="44.47366" lon="6.65708">
        <ele>2102.0598145</ele>
        <time>2010-07-25T07:14:43Z</time>
      </trkpt>
      <trkpt lat="44.47354" lon="6.65701">
        <ele>2103.0212402</ele>
        <time>2010-07-25T07:14:50Z</time>
      </trkpt>
      <trkpt lat="44.47343" lon="6.65692">
        <ele>2099.6567383</ele>
        <time>2010-07-25T07:14:57Z</time>
      </trkpt>
      <trkpt lat="44.47333" lon="6.65679">
        <ele>2097.253418</ele>
        <time>2010-07-25T07:15:05Z</time>
      </trkpt>
      <trkpt lat="44.47323" lon="6.65672">
        <ele>2096.7727051</ele>
        <time>2010-07-25T07:15:12Z</time>
      </trkpt>
      <trkpt lat="44.47306" lon="6.65675">
        <ele>2098.2145996</ele>
        <time>2010-07-25T07:15:20Z</time>
      </trkpt>
      <trkpt lat="44.47292" lon="6.65683">
        <ele>2097.7341309</ele>
        <time>2010-07-25T07:15:26Z</time>
      </trkpt>
      <trkpt lat="44.47281" lon="6.65682">
        <ele>2099.6567383</ele>
        <time>2010-07-25T07:15:32Z</time>
      </trkpt>
      <trkpt lat="44.47273" lon="6.65668">
        <ele>2100.1374512</ele>
        <time>2010-07-25T07:15:38Z</time>
      </trkpt>
      <trkpt lat="44.47266" lon="6.65662">
        <ele>2101.0986328</ele>
        <time>2010-07-25T07:15:43Z</time>
      </trkpt>
      <trkpt lat="44.47263" lon="6.65661">
        <ele>2101.0986328</ele>
        <time>2010-07-25T07:15:45Z</time>
      </trkpt>
      <trkpt lat="44.47252" lon="6.65661">
        <ele>2101.5793457</ele>
        <time>2010-07-25T07:15:53Z</time>
      </trkpt>
      <trkpt lat="44.47248" lon="6.65656">
        <ele>2106.3857422</ele>
        <time>2010-07-25T07:15:56Z</time>
      </trkpt>
      <trkpt lat="44.47244" lon="6.6565">
        <ele>2108.3085938</ele>
        <time>2010-07-25T07:16:00Z</time>
      </trkpt>
      <trkpt lat="44.47233" lon="6.65642">
        <ele>2109.2700195</ele>
        <time>2010-07-25T07:16:08Z</time>
      </trkpt>
      <trkpt lat="44.47224" lon="6.65638">
        <ele>2107.347168</ele>
        <time>2010-07-25T07:16:16Z</time>
      </trkpt>
      <trkpt lat="44.47215" lon="6.65631">
        <ele>2108.7893066</ele>
        <time>2010-07-25T07:16:24Z</time>
      </trkpt>
      <trkpt lat="44.47204" lon="6.6562">
        <ele>2114.5571289</ele>
        <time>2010-07-25T07:16:32Z</time>
      </trkpt>
      <trkpt lat="44.47196" lon="6.65614">
        <ele>2116.4797363</ele>
        <time>2010-07-25T07:16:39Z</time>
      </trkpt>
      <trkpt lat="44.47187" lon="6.65607">
        <ele>2114.076416</ele>
        <time>2010-07-25T07:16:49Z</time>
      </trkpt>
      <trkpt lat="44.47174" lon="6.65599">
        <ele>2116.4797363</ele>
        <time>2010-07-25T07:16:59Z</time>
      </trkpt>
      <trkpt lat="44.47163" lon="6.65593">
        <ele>2119.3637695</ele>
        <time>2010-07-25T07:17:07Z</time>
      </trkpt>
      <trkpt lat="44.4715" lon="6.65583">
        <ele>2122.2475586</ele>
        <time>2010-07-25T07:17:16Z</time>
      </trkpt>
      <trkpt lat="44.47142" lon="6.65576">
        <ele>2118.4023438</ele>
        <time>2010-07-25T07:17:24Z</time>
      </trkpt>
      <trkpt lat="44.47139" lon="6.65565">
        <ele>2117.440918</ele>
        <time>2010-07-25T07:17:31Z</time>
      </trkpt>
      <trkpt lat="44.47131" lon="6.65557">
        <ele>2121.7668457</ele>
        <time>2010-07-25T07:17:39Z</time>
      </trkpt>
      <trkpt lat="44.47125" lon="6.65552">
        <ele>2123.2089844</ele>
        <time>2010-07-25T07:17:44Z</time>
      </trkpt>
      <trkpt lat="44.47119" lon="6.65548">
        <ele>2123.6894531</ele>
        <time>2010-07-25T07:17:49Z</time>
      </trkpt>
      <trkpt lat="44.47115" lon="6.65542">
        <ele>2124.1704102</ele>
        <time>2010-07-25T07:17:54Z</time>
      </trkpt>
      <trkpt lat="44.47113" lon="6.6554">
        <ele>2124.1704102</ele>
        <time>2010-07-25T07:17:56Z</time>
      </trkpt>
      <trkpt lat="44.47102" lon="6.65534">
        <ele>2122.7282715</ele>
        <time>2010-07-25T07:18:06Z</time>
      </trkpt>
      <trkpt lat="44.47095" lon="6.65528">
        <ele>2121.7668457</ele>
        <time>2010-07-25T07:18:13Z</time>
      </trkpt>
      <trkpt lat="44.47083" lon="6.65522">
        <ele>2123.2089844</ele>
        <time>2010-07-25T07:18:23Z</time>
      </trkpt>
      <trkpt lat="44.47075" lon="6.65511">
        <ele>2131.380127</ele>
        <time>2010-07-25T07:18:30Z</time>
      </trkpt>
      <trkpt lat="44.47066" lon="6.65504">
        <ele>2136.1867676</ele>
        <time>2010-07-25T07:18:37Z</time>
      </trkpt>
      <trkpt lat="44.47059" lon="6.65489">
        <ele>2142.4355469</ele>
        <time>2010-07-25T07:18:47Z</time>
      </trkpt>
      <trkpt lat="44.47052" lon="6.6548">
        <ele>2143.3967285</ele>
        <time>2010-07-25T07:18:54Z</time>
      </trkpt>
      <trkpt lat="44.4704" lon="6.65474">
        <ele>2140.9934082</ele>
        <time>2010-07-25T07:19:03Z</time>
      </trkpt>
      <trkpt lat="44.47028" lon="6.65465">
        <ele>2144.838623</ele>
        <time>2010-07-25T07:19:14Z</time>
      </trkpt>
      <trkpt lat="44.47014" lon="6.65461">
        <ele>2146.2807617</ele>
        <time>2010-07-25T07:19:25Z</time>
      </trkpt>
      <trkpt lat="44.47002" lon="6.65461">
        <ele>2146.7612305</ele>
        <time>2010-07-25T07:19:34Z</time>
      </trkpt>
      <trkpt lat="44.46993" lon="6.65459">
        <ele>2147.7226562</ele>
        <time>2010-07-25T07:19:41Z</time>
      </trkpt>
      <trkpt lat="44.46981" lon="6.65452">
        <ele>2145.3193359</ele>
        <time>2010-07-25T07:19:48Z</time>
      </trkpt>
      <trkpt lat="44.46969" lon="6.65448">
        <ele>2145.3193359</ele>
        <time>2010-07-25T07:19:56Z</time>
      </trkpt>
      <trkpt lat="44.4696" lon="6.65445">
        <ele>2144.838623</ele>
        <time>2010-07-25T07:20:02Z</time>
      </trkpt>
      <trkpt lat="44.46944" lon="6.65441">
        <ele>2147.2419434</ele>
        <time>2010-07-25T07:20:13Z</time>
      </trkpt>
      <trkpt lat="44.4693" lon="6.65436">
        <ele>2143.3967285</ele>
        <time>2010-07-25T07:20:22Z</time>
      </trkpt>
      <trkpt lat="44.4692" lon="6.6543">
        <ele>2143.8774414</ele>
        <time>2010-07-25T07:20:29Z</time>
      </trkpt>
      <trkpt lat="44.46908" lon="6.65421">
        <ele>2144.3579102</ele>
        <time>2010-07-25T07:20:37Z</time>
      </trkpt>
      <trkpt lat="44.46902" lon="6.65407">
        <ele>2151.5678711</ele>
        <time>2010-07-25T07:20:44Z</time>
      </trkpt>
      <trkpt lat="44.46892" lon="6.65397">
        <ele>2152.5290527</ele>
        <time>2010-07-25T07:20:52Z</time>
      </trkpt>
      <trkpt lat="44.46883" lon="6.65388">
        <ele>2154.4516602</ele>
        <time>2010-07-25T07:21:00Z</time>
      </trkpt>
      <trkpt lat="44.46875" lon="6.65384">
        <ele>2155.4130859</ele>
        <time>2010-07-25T07:21:07Z</time>
      </trkpt>
      <trkpt lat="44.46864" lon="6.65378">
        <ele>2157.3359375</ele>
        <time>2010-07-25T07:21:15Z</time>
      </trkpt>
      <trkpt lat="44.46855" lon="6.6537">
        <ele>2157.8166504</ele>
        <time>2010-07-25T07:21:21Z</time>
      </trkpt>
      <trkpt lat="44.46848" lon="6.65362">
        <ele>2159.2585449</ele>
        <time>2010-07-25T07:21:27Z</time>
      </trkpt>
      <trkpt lat="44.46846" lon="6.65355">
        <ele>2158.2971191</ele>
        <time>2010-07-25T07:21:32Z</time>
      </trkpt>
      <trkpt lat="44.46852" lon="6.65355">
        <ele>2144.3579102</ele>
        <time>2010-07-25T07:22:51Z</time>
      </trkpt>
      <trkpt lat="44.46847" lon="6.65347">
        <ele>2151.5678711</ele>
        <time>2010-07-25T07:22:57Z</time>
      </trkpt>
      <trkpt lat="44.46833" lon="6.6533">
        <ele>2155.8935547</ele>
        <time>2010-07-25T07:23:04Z</time>
      </trkpt>
      <trkpt lat="44.46819" lon="6.65314">
        <ele>2160.7004395</ele>
        <time>2010-07-25T07:23:11Z</time>
      </trkpt>
      <trkpt lat="44.46808" lon="6.65299">
        <ele>2163.1037598</ele>
        <time>2010-07-25T07:23:18Z</time>
      </trkpt>
      <trkpt lat="44.46801" lon="6.65283">
        <ele>2165.5070801</ele>
        <time>2010-07-25T07:23:25Z</time>
      </trkpt>
      <trkpt lat="44.46792" lon="6.65273">
        <ele>2166.4682617</ele>
        <time>2010-07-25T07:23:30Z</time>
      </trkpt>
      <trkpt lat="44.4679" lon="6.65259">
        <ele>2167.4294434</ele>
        <time>2010-07-25T07:23:35Z</time>
      </trkpt>
      <trkpt lat="44.46791" lon="6.65252">
        <ele>2168.3908691</ele>
        <time>2010-07-25T07:23:38Z</time>
      </trkpt>
      <trkpt lat="44.46784" lon="6.65242">
        <ele>2169.3522949</ele>
        <time>2010-07-25T07:23:44Z</time>
      </trkpt>
      <trkpt lat="44.46782" lon="6.65242">
        <ele>2169.8327637</ele>
        <time>2010-07-25T07:23:45Z</time>
      </trkpt>
      <trkpt lat="44.4677" lon="6.65237">
        <ele>2170.7941895</ele>
        <time>2010-07-25T07:23:52Z</time>
      </trkpt>
      <trkpt lat="44.46768" lon="6.65237">
        <ele>2170.7941895</ele>
        <time>2010-07-25T07:23:54Z</time>
      </trkpt>
      <trkpt lat="44.46758" lon="6.65233">
        <ele>2171.7553711</ele>
        <time>2010-07-25T07:24:01Z</time>
      </trkpt>
      <trkpt lat="44.46757" lon="6.65233">
        <ele>2171.7553711</ele>
        <time>2010-07-25T07:24:17Z</time>
      </trkpt>
      <trkpt lat="44.46754" lon="6.65229">
        <ele>2169.3522949</ele>
        <time>2010-07-25T07:24:23Z</time>
      </trkpt>
      <trkpt lat="44.46747" lon="6.65224">
        <ele>2175.1201172</ele>
        <time>2010-07-25T07:24:34Z</time>
      </trkpt>
      <trkpt lat="44.4674" lon="6.65218">
        <ele>2175.6008301</ele>
        <time>2010-07-25T07:24:41Z</time>
      </trkpt>
      <trkpt lat="44.46738" lon="6.65216">
        <ele>2179.9267578</ele>
        <time>2010-07-25T07:24:47Z</time>
      </trkpt>
      <trkpt lat="44.46727" lon="6.65217">
        <ele>2178.4848633</ele>
        <time>2010-07-25T07:25:02Z</time>
      </trkpt>
      <trkpt lat="44.46716" lon="6.65212">
        <ele>2181.8493652</ele>
        <time>2010-07-25T07:25:10Z</time>
      </trkpt>
      <trkpt lat="44.46704" lon="6.65211">
        <ele>2180.8881836</ele>
        <time>2010-07-25T07:25:17Z</time>
      </trkpt>
      <trkpt lat="44.46692" lon="6.65208">
        <ele>2181.3686523</ele>
        <time>2010-07-25T07:25:24Z</time>
      </trkpt>
      <trkpt lat="44.46681" lon="6.65205">
        <ele>2183.2912598</ele>
        <time>2010-07-25T07:25:31Z</time>
      </trkpt>
      <trkpt lat="44.46673" lon="6.65202">
        <ele>2187.6171875</ele>
        <time>2010-07-25T07:25:38Z</time>
      </trkpt>
      <trkpt lat="44.46662" lon="6.65199">
        <ele>2185.2138672</ele>
        <time>2010-07-25T07:25:44Z</time>
      </trkpt>
      <trkpt lat="44.46652" lon="6.65197">
        <ele>2183.7719727</ele>
        <time>2010-07-25T07:25:50Z</time>
      </trkpt>
      <trkpt lat="44.46641" lon="6.65193">
        <ele>2183.7719727</ele>
        <time>2010-07-25T07:25:57Z</time>
      </trkpt>
      <trkpt lat="44.4663" lon="6.65193">
        <ele>2185.6945801</ele>
        <time>2010-07-25T07:26:04Z</time>
      </trkpt>
      <trkpt lat="44.46617" lon="6.65194">
        <ele>2184.2526855</ele>
        <time>2010-07-25T07:26:11Z</time>
      </trkpt>
      <trkpt lat="44.46605" lon="6.65192">
        <ele>2186.175293</ele>
        <time>2010-07-25T07:26:19Z</time>
      </trkpt>
      <trkpt lat="44.46594" lon="6.65188">
        <ele>2186.175293</ele>
        <time>2010-07-25T07:26:25Z</time>
      </trkpt>
      <trkpt lat="44.46573" lon="6.6518">
        <ele>2185.2138672</ele>
        <time>2010-07-25T07:26:36Z</time>
      </trkpt>
      <trkpt lat="44.46557" lon="6.6517">
        <ele>2187.1364746</ele>
        <time>2010-07-25T07:26:43Z</time>
      </trkpt>
      <trkpt lat="44.46541" lon="6.65159">
        <ele>2189.0593262</ele>
        <time>2010-07-25T07:26:50Z</time>
      </trkpt>
      <trkpt lat="44.46524" lon="6.65147">
        <ele>2189.5400391</ele>
        <time>2010-07-25T07:26:56Z</time>
      </trkpt>
      <trkpt lat="44.46509" lon="6.65135">
        <ele>2190.5012207</ele>
        <time>2010-07-25T07:27:04Z</time>
      </trkpt>
      <trkpt lat="44.46499" lon="6.65128">
        <ele>2191.4626465</ele>
        <time>2010-07-25T07:27:10Z</time>
      </trkpt>
      <trkpt lat="44.46479" lon="6.65112">
        <ele>2188.5788574</ele>
        <time>2010-07-25T07:27:17Z</time>
      </trkpt>
      <trkpt lat="44.46458" lon="6.65096">
        <ele>2189.0593262</ele>
        <time>2010-07-25T07:27:26Z</time>
      </trkpt>
      <trkpt lat="44.46444" lon="6.65086">
        <ele>2190.5012207</ele>
        <time>2010-07-25T07:27:33Z</time>
      </trkpt>
      <trkpt lat="44.46432" lon="6.65079">
        <ele>2193.3852539</ele>
        <time>2010-07-25T07:27:39Z</time>
      </trkpt>
      <trkpt lat="44.46424" lon="6.65075">
        <ele>2195.3078613</ele>
        <time>2010-07-25T07:27:45Z</time>
      </trkpt>
      <trkpt lat="44.46414" lon="6.65071">
        <ele>2197.7111816</ele>
        <time>2010-07-25T07:27:51Z</time>
      </trkpt>
      <trkpt lat="44.46404" lon="6.6507">
        <ele>2202.0368652</ele>
        <time>2010-07-25T07:27:57Z</time>
      </trkpt>
      <trkpt lat="44.46393" lon="6.65065">
        <ele>2201.5563965</ele>
        <time>2010-07-25T07:28:03Z</time>
      </trkpt>
      <trkpt lat="44.46378" lon="6.65053">
        <ele>2199.1530762</ele>
        <time>2010-07-25T07:28:09Z</time>
      </trkpt>
      <trkpt lat="44.46363" lon="6.65039">
        <ele>2199.1530762</ele>
        <time>2010-07-25T07:28:15Z</time>
      </trkpt>
      <trkpt lat="44.46352" lon="6.65031">
        <ele>2197.2304688</ele>
        <time>2010-07-25T07:28:23Z</time>
      </trkpt>
      <trkpt lat="44.46341" lon="6.65026">
        <ele>2198.6723633</ele>
        <time>2010-07-25T07:28:32Z</time>
      </trkpt>
      <trkpt lat="44.46336" lon="6.65026">
        <ele>2205.4018555</ele>
        <time>2010-07-25T07:28:39Z</time>
      </trkpt>
      <trkpt lat="44.46323" lon="6.6502">
        <ele>2204.4404297</ele>
        <time>2010-07-25T07:28:47Z</time>
      </trkpt>
      <trkpt lat="44.46314" lon="6.65012">
        <ele>2199.6337891</ele>
        <time>2010-07-25T07:28:54Z</time>
      </trkpt>
      <trkpt lat="44.46304" lon="6.65004">
        <ele>2199.1530762</ele>
        <time>2010-07-25T07:29:01Z</time>
      </trkpt>
      <trkpt lat="44.46296" lon="6.64996">
        <ele>2199.1530762</ele>
        <time>2010-07-25T07:29:07Z</time>
      </trkpt>
      <trkpt lat="44.46286" lon="6.64989">
        <ele>2202.0368652</ele>
        <time>2010-07-25T07:29:15Z</time>
      </trkpt>
      <trkpt lat="44.4628" lon="6.64985">
        <ele>2205.8823242</ele>
        <time>2010-07-25T07:29:22Z</time>
      </trkpt>
      <trkpt lat="44.46271" lon="6.64982">
        <ele>2205.8823242</ele>
        <time>2010-07-25T07:29:29Z</time>
      </trkpt>
      <trkpt lat="44.46258" lon="6.64973">
        <ele>2209.2470703</ele>
        <time>2010-07-25T07:29:38Z</time>
      </trkpt>
      <trkpt lat="44.4625" lon="6.64965">
        <ele>2212.1308594</ele>
        <time>2010-07-25T07:29:44Z</time>
      </trkpt>
      <trkpt lat="44.4624" lon="6.64964">
        <ele>2211.1696777</ele>
        <time>2010-07-25T07:29:51Z</time>
      </trkpt>
      <trkpt lat="44.46238" lon="6.64965">
        <ele>2212.1308594</ele>
        <time>2010-07-25T07:29:54Z</time>
      </trkpt>
      <trkpt lat="44.46235" lon="6.64967">
        <ele>2210.6889648</ele>
        <time>2010-07-25T07:29:56Z</time>
      </trkpt>
      <trkpt lat="44.46223" lon="6.64966">
        <ele>2211.1696777</ele>
        <time>2010-07-25T07:30:05Z</time>
      </trkpt>
      <trkpt lat="44.46215" lon="6.64957">
        <ele>2211.6503906</ele>
        <time>2010-07-25T07:30:11Z</time>
      </trkpt>
      <trkpt lat="44.46214" lon="6.64957">
        <ele>2211.6503906</ele>
        <time>2010-07-25T07:30:12Z</time>
      </trkpt>
      <trkpt lat="44.46206" lon="6.64953">
        <ele>2215.0148926</ele>
        <time>2010-07-25T07:30:18Z</time>
      </trkpt>
      <trkpt lat="44.46198" lon="6.64952">
        <ele>2210.6889648</ele>
        <time>2010-07-25T07:30:24Z</time>
      </trkpt>
      <trkpt lat="44.4619" lon="6.64943">
        <ele>2210.208252</ele>
        <time>2010-07-25T07:30:30Z</time>
      </trkpt>
      <trkpt lat="44.46187" lon="6.64939">
        <ele>2210.6889648</ele>
        <time>2010-07-25T07:30:32Z</time>
      </trkpt>
      <trkpt lat="44.46179" lon="6.64933">
        <ele>2210.208252</ele>
        <time>2010-07-25T07:30:41Z</time>
      </trkpt>
      <trkpt lat="44.46172" lon="6.64928">
        <ele>2215.4956055</ele>
        <time>2010-07-25T07:30:46Z</time>
      </trkpt>
      <trkpt lat="44.46168" lon="6.64926">
        <ele>2216.4567871</ele>
        <time>2010-07-25T07:30:50Z</time>
      </trkpt>
      <trkpt lat="44.46161" lon="6.64924">
        <ele>2215.9760742</ele>
        <time>2010-07-25T07:30:57Z</time>
      </trkpt>
      <trkpt lat="44.46159" lon="6.64924">
        <ele>2215.4956055</ele>
        <time>2010-07-25T07:30:58Z</time>
      </trkpt>
      <trkpt lat="44.46154" lon="6.64922">
        <ele>2212.6115723</ele>
        <time>2010-07-25T07:31:05Z</time>
      </trkpt>
      <trkpt lat="44.46157" lon="6.64925">
        <ele>2210.6889648</ele>
        <time>2010-07-25T07:31:11Z</time>
      </trkpt>
      <trkpt lat="44.46161" lon="6.64926">
        <ele>2214.0534668</ele>
        <time>2010-07-25T07:31:26Z</time>
      </trkpt>
      <trkpt lat="44.46159" lon="6.64924">
        <ele>2214.5341797</ele>
        <time>2010-07-25T07:31:32Z</time>
      </trkpt>
      <trkpt lat="44.46156" lon="6.64923">
        <ele>2214.5341797</ele>
        <time>2010-07-25T07:31:40Z</time>
      </trkpt>
      <trkpt lat="44.46149" lon="6.64918">
        <ele>2213.5727539</ele>
        <time>2010-07-25T07:31:47Z</time>
      </trkpt>
      <trkpt lat="44.46144" lon="6.64919">
        <ele>2213.5727539</ele>
        <time>2010-07-25T07:31:52Z</time>
      </trkpt>
      <trkpt lat="44.46141" lon="6.64919">
        <ele>2209.7275391</ele>
        <time>2010-07-25T07:31:58Z</time>
      </trkpt>
      <trkpt lat="44.46137" lon="6.64918">
        <ele>2209.7275391</ele>
        <time>2010-07-25T07:32:04Z</time>
      </trkpt>
      <trkpt lat="44.46131" lon="6.64916">
        <ele>2212.6115723</ele>
        <time>2010-07-25T07:32:12Z</time>
      </trkpt>
      <trkpt lat="44.46129" lon="6.64915">
        <ele>2213.5727539</ele>
        <time>2010-07-25T07:32:14Z</time>
      </trkpt>
      <trkpt lat="44.46123" lon="6.64915">
        <ele>2216.9375</ele>
        <time>2010-07-25T07:32:23Z</time>
      </trkpt>
      <trkpt lat="44.46121" lon="6.64915">
        <ele>2217.8986816</ele>
        <time>2010-07-25T07:32:28Z</time>
      </trkpt>
      <trkpt lat="44.46121" lon="6.64915">
        <ele>2217.8986816</ele>
        <time>2010-07-25T07:32:39Z</time>
      </trkpt>
      <trkpt lat="44.46121" lon="6.64915">
        <ele>2216.9375</ele>
        <time>2010-07-25T07:32:50Z</time>
      </trkpt>
      <trkpt lat="44.46121" lon="6.64915">
        <ele>2216.4567871</ele>
        <time>2010-07-25T07:33:00Z</time>
      </trkpt>
      <trkpt lat="44.46122" lon="6.64915">
        <ele>2218.3793945</ele>
        <time>2010-07-25T07:33:10Z</time>
      </trkpt>
      <trkpt lat="44.4612" lon="6.64914">
        <ele>2218.8601074</ele>
        <time>2010-07-25T07:33:16Z</time>
      </trkpt>
      <trkpt lat="44.46109" lon="6.6491">
        <ele>2220.3022461</ele>
        <time>2010-07-25T07:33:23Z</time>
      </trkpt>
      <trkpt lat="44.461" lon="6.64912">
        <ele>2221.7441406</ele>
        <time>2010-07-25T07:33:28Z</time>
      </trkpt>
      <trkpt lat="44.46091" lon="6.6491">
        <ele>2223.666748</ele>
        <time>2010-07-25T07:33:33Z</time>
      </trkpt>
      <trkpt lat="44.46073" lon="6.64904">
        <ele>2223.1862793</ele>
        <time>2010-07-25T07:33:38Z</time>
      </trkpt>
      <trkpt lat="44.4606" lon="6.64898">
        <ele>2223.1862793</ele>
        <time>2010-07-25T07:33:43Z</time>
      </trkpt>
      <trkpt lat="44.46047" lon="6.64885">
        <ele>2223.1862793</ele>
        <time>2010-07-25T07:33:48Z</time>
      </trkpt>
      <trkpt lat="44.46032" lon="6.64876">
        <ele>2224.1474609</ele>
        <time>2010-07-25T07:33:53Z</time>
      </trkpt>
      <trkpt lat="44.46024" lon="6.64881">
        <ele>2224.6281738</ele>
        <time>2010-07-25T07:33:59Z</time>
      </trkpt>
      <trkpt lat="44.46014" lon="6.64879">
        <ele>2226.0700684</ele>
        <time>2010-07-25T07:34:06Z</time>
      </trkpt>
      <trkpt lat="44.46005" lon="6.64874">
        <ele>2228.9538574</ele>
        <time>2010-07-25T07:34:14Z</time>
      </trkpt>
      <trkpt lat="44.45994" lon="6.6487">
        <ele>2233.2797852</ele>
        <time>2010-07-25T07:34:23Z</time>
      </trkpt>
      <trkpt lat="44.45985" lon="6.64867">
        <ele>2235.2023926</ele>
        <time>2010-07-25T07:34:31Z</time>
      </trkpt>
      <trkpt lat="44.45984" lon="6.64865">
        <ele>2235.2023926</ele>
        <time>2010-07-25T07:34:36Z</time>
      </trkpt>
      <trkpt lat="44.45981" lon="6.64861">
        <ele>2237.1252441</ele>
        <time>2010-07-25T07:34:45Z</time>
      </trkpt>
      <trkpt lat="44.45975" lon="6.64859">
        <ele>2239.5285645</ele>
        <time>2010-07-25T07:34:53Z</time>
      </trkpt>
      <trkpt lat="44.45973" lon="6.64857">
        <ele>2243.3737793</ele>
        <time>2010-07-25T07:34:59Z</time>
      </trkpt>
      <trkpt lat="44.45967" lon="6.64855">
        <ele>2244.3349609</ele>
        <time>2010-07-25T07:35:07Z</time>
      </trkpt>
      <trkpt lat="44.45964" lon="6.64853">
        <ele>2243.3737793</ele>
        <time>2010-07-25T07:35:14Z</time>
      </trkpt>
      <trkpt lat="44.45955" lon="6.64857">
        <ele>2239.0478516</ele>
        <time>2010-07-25T07:35:22Z</time>
      </trkpt>
      <trkpt lat="44.45947" lon="6.64853">
        <ele>2241.4511719</ele>
        <time>2010-07-25T07:35:32Z</time>
      </trkpt>
      <trkpt lat="44.45938" lon="6.64851">
        <ele>2244.8156738</ele>
        <time>2010-07-25T07:35:40Z</time>
      </trkpt>
      <trkpt lat="44.45925" lon="6.64847">
        <ele>2249.1416016</ele>
        <time>2010-07-25T07:35:48Z</time>
      </trkpt>
      <trkpt lat="44.45917" lon="6.64847">
        <ele>2241.4511719</ele>
        <time>2010-07-25T07:35:56Z</time>
      </trkpt>
      <trkpt lat="44.45916" lon="6.6485">
        <ele>2240.0092773</ele>
        <time>2010-07-25T07:36:03Z</time>
      </trkpt>
      <trkpt lat="44.459" lon="6.64849">
        <ele>2242.4125977</ele>
        <time>2010-07-25T07:36:13Z</time>
      </trkpt>
      <trkpt lat="44.45891" lon="6.6485">
        <ele>2245.2963867</ele>
        <time>2010-07-25T07:36:19Z</time>
      </trkpt>
      <trkpt lat="44.45886" lon="6.64851">
        <ele>2245.7770996</ele>
        <time>2010-07-25T07:36:22Z</time>
      </trkpt>
      <trkpt lat="44.45881" lon="6.6485">
        <ele>2248.1801758</ele>
        <time>2010-07-25T07:36:28Z</time>
      </trkpt>
      <trkpt lat="44.45875" lon="6.64849">
        <ele>2250.5834961</ele>
        <time>2010-07-25T07:36:35Z</time>
      </trkpt>
      <trkpt lat="44.45869" lon="6.64847">
        <ele>2251.064209</ele>
        <time>2010-07-25T07:36:42Z</time>
      </trkpt>
      <trkpt lat="44.45866" lon="6.64843">
        <ele>2250.5834961</ele>
        <time>2010-07-25T07:36:47Z</time>
      </trkpt>
      <trkpt lat="44.45863" lon="6.64843">
        <ele>2250.1030273</ele>
        <time>2010-07-25T07:36:54Z</time>
      </trkpt>
      <trkpt lat="44.45861" lon="6.64839">
        <ele>2256.8322754</ele>
        <time>2010-07-25T07:37:01Z</time>
      </trkpt>
      <trkpt lat="44.45851" lon="6.64834">
        <ele>2261.638916</ele>
        <time>2010-07-25T07:37:08Z</time>
      </trkpt>
      <trkpt lat="44.45843" lon="6.64832">
        <ele>2261.1582031</ele>
        <time>2010-07-25T07:37:14Z</time>
      </trkpt>
      <trkpt lat="44.45843" lon="6.64832">
        <ele>2257.7937012</ele>
        <time>2010-07-25T07:37:19Z</time>
      </trkpt>
      <trkpt lat="44.45841" lon="6.64831">
        <ele>2258.2741699</ele>
        <time>2010-07-25T07:37:25Z</time>
      </trkpt>
      <trkpt lat="44.45838" lon="6.64832">
        <ele>2259.7160645</ele>
        <time>2010-07-25T07:37:32Z</time>
      </trkpt>
      <trkpt lat="44.45827" lon="6.64825">
        <ele>2260.6774902</ele>
        <time>2010-07-25T07:37:40Z</time>
      </trkpt>
      <trkpt lat="44.45821" lon="6.6482">
        <ele>2263.0808105</ele>
        <time>2010-07-25T07:37:48Z</time>
      </trkpt>
      <trkpt lat="44.45818" lon="6.64816">
        <ele>2265.003418</ele>
        <time>2010-07-25T07:37:54Z</time>
      </trkpt>
      <trkpt lat="44.45812" lon="6.64812">
        <ele>2265.9645996</ele>
        <time>2010-07-25T07:38:01Z</time>
      </trkpt>
      <trkpt lat="44.45804" lon="6.64812">
        <ele>2264.5227051</ele>
        <time>2010-07-25T07:38:09Z</time>
      </trkpt>
      <trkpt lat="44.45803" lon="6.64811">
        <ele>2263.5612793</ele>
        <time>2010-07-25T07:38:11Z</time>
      </trkpt>
      <trkpt lat="44.4579" lon="6.64806">
        <ele>2258.2741699</ele>
        <time>2010-07-25T07:38:20Z</time>
      </trkpt>
      <trkpt lat="44.45783" lon="6.64798">
        <ele>2256.3515625</ele>
        <time>2010-07-25T07:38:29Z</time>
      </trkpt>
      <trkpt lat="44.45777" lon="6.64787">
        <ele>2276.0585938</ele>
        <time>2010-07-25T07:39:30Z</time>
      </trkpt>
      <trkpt lat="44.45776" lon="6.64795">
        <ele>2268.3681641</ele>
        <time>2010-07-25T07:39:35Z</time>
      </trkpt>
      <trkpt lat="44.45774" lon="6.64799">
        <ele>2266.9260254</ele>
        <time>2010-07-25T07:39:41Z</time>
      </trkpt>
      <trkpt lat="44.45762" lon="6.64803">
        <ele>2263.5612793</ele>
        <time>2010-07-25T07:39:47Z</time>
      </trkpt>
      <trkpt lat="44.45746" lon="6.64803">
        <ele>2260.6774902</ele>
        <time>2010-07-25T07:39:55Z</time>
      </trkpt>
      <trkpt lat="44.45732" lon="6.64801">
        <ele>2260.6774902</ele>
        <time>2010-07-25T07:40:02Z</time>
      </trkpt>
      <trkpt lat="44.45721" lon="6.648">
        <ele>2263.5612793</ele>
        <time>2010-07-25T07:40:09Z</time>
      </trkpt>
      <trkpt lat="44.45708" lon="6.64801">
        <ele>2265.4841309</ele>
        <time>2010-07-25T07:40:16Z</time>
      </trkpt>
      <trkpt lat="44.45699" lon="6.64795">
        <ele>2269.3295898</ele>
        <time>2010-07-25T07:40:23Z</time>
      </trkpt>
      <trkpt lat="44.45687" lon="6.64791">
        <ele>2272.2133789</ele>
        <time>2010-07-25T07:40:31Z</time>
      </trkpt>
      <trkpt lat="44.45677" lon="6.64788">
        <ele>2275.097168</ele>
        <time>2010-07-25T07:40:38Z</time>
      </trkpt>
      <trkpt lat="44.45669" lon="6.64788">
        <ele>2277.0200195</ele>
        <time>2010-07-25T07:40:44Z</time>
      </trkpt>
      <trkpt lat="44.4566" lon="6.64787">
        <ele>2277.0200195</ele>
        <time>2010-07-25T07:40:50Z</time>
      </trkpt>
      <trkpt lat="44.4565" lon="6.64783">
        <ele>2277.5004883</ele>
        <time>2010-07-25T07:40:57Z</time>
      </trkpt>
      <trkpt lat="44.45641" lon="6.64777">
        <ele>2277.9812012</ele>
        <time>2010-07-25T07:41:02Z</time>
      </trkpt>
      <trkpt lat="44.4563" lon="6.64779">
        <ele>2278.9423828</ele>
        <time>2010-07-25T07:41:10Z</time>
      </trkpt>
      <trkpt lat="44.4562" lon="6.64777">
        <ele>2279.4230957</ele>
        <time>2010-07-25T07:41:15Z</time>
      </trkpt>
      <trkpt lat="44.45613" lon="6.64774">
        <ele>2279.4230957</ele>
        <time>2010-07-25T07:41:21Z</time>
      </trkpt>
      <trkpt lat="44.45604" lon="6.6477">
        <ele>2281.3457031</ele>
        <time>2010-07-25T07:41:26Z</time>
      </trkpt>
      <trkpt lat="44.45593" lon="6.64768">
        <ele>2282.3071289</ele>
        <time>2010-07-25T07:41:33Z</time>
      </trkpt>
      <trkpt lat="44.45581" lon="6.64762">
        <ele>2282.7875977</ele>
        <time>2010-07-25T07:41:40Z</time>
      </trkpt>
      <trkpt lat="44.45573" lon="6.64752">
        <ele>2282.3071289</ele>
        <time>2010-07-25T07:41:47Z</time>
      </trkpt>
      <trkpt lat="44.45566" lon="6.64743">
        <ele>2283.7490234</ele>
        <time>2010-07-25T07:41:53Z</time>
      </trkpt>
      <trkpt lat="44.45557" lon="6.64731">
        <ele>2285.671875</ele>
        <time>2010-07-25T07:42:00Z</time>
      </trkpt>
      <trkpt lat="44.45547" lon="6.64722">
        <ele>2289.036377</ele>
        <time>2010-07-25T07:42:06Z</time>
      </trkpt>
      <trkpt lat="44.45547" lon="6.64722">
        <ele>2289.5170898</ele>
        <time>2010-07-25T07:42:11Z</time>
      </trkpt>
      <trkpt lat="44.45551" lon="6.64723">
        <ele>2294.8041992</ele>
        <time>2010-07-25T07:42:50Z</time>
      </trkpt>
      <trkpt lat="44.45543" lon="6.64717">
        <ele>2290.4782715</ele>
        <time>2010-07-25T07:42:55Z</time>
      </trkpt>
      <trkpt lat="44.45533" lon="6.64708">
        <ele>2290.4782715</ele>
        <time>2010-07-25T07:43:01Z</time>
      </trkpt>
      <trkpt lat="44.45524" lon="6.64697">
        <ele>2290.4782715</ele>
        <time>2010-07-25T07:43:08Z</time>
      </trkpt>
      <trkpt lat="44.45523" lon="6.64695">
        <ele>2290.4782715</ele>
        <time>2010-07-25T07:43:09Z</time>
      </trkpt>
      <trkpt lat="44.45513" lon="6.64685">
        <ele>2290.4782715</ele>
        <time>2010-07-25T07:43:16Z</time>
      </trkpt>
      <trkpt lat="44.455" lon="6.6467">
        <ele>2290.4782715</ele>
        <time>2010-07-25T07:43:25Z</time>
      </trkpt>
      <trkpt lat="44.45488" lon="6.64664">
        <ele>2290.9589844</ele>
        <time>2010-07-25T07:43:31Z</time>
      </trkpt>
      <trkpt lat="44.4548" lon="6.64658">
        <ele>2293.8430176</ele>
        <time>2010-07-25T07:43:37Z</time>
      </trkpt>
      <trkpt lat="44.45476" lon="6.64658">
        <ele>2292.401123</ele>
        <time>2010-07-25T07:43:41Z</time>
      </trkpt>
      <trkpt lat="44.45475" lon="6.64658">
        <ele>2292.401123</ele>
        <time>2010-07-25T07:43:47Z</time>
      </trkpt>
      <trkpt lat="44.45476" lon="6.64658">
        <ele>2290.9589844</ele>
        <time>2010-07-25T07:44:06Z</time>
      </trkpt>
      <trkpt lat="44.45473" lon="6.64654">
        <ele>2294.8041992</ele>
        <time>2010-07-25T07:44:14Z</time>
      </trkpt>
      <trkpt lat="44.45464" lon="6.64649">
        <ele>2297.6882324</ele>
        <time>2010-07-25T07:44:22Z</time>
      </trkpt>
      <trkpt lat="44.45461" lon="6.64645">
        <ele>2300.0917969</ele>
        <time>2010-07-25T07:44:29Z</time>
      </trkpt>
      <trkpt lat="44.45456" lon="6.6464">
        <ele>2302.494873</ele>
        <time>2010-07-25T07:44:36Z</time>
      </trkpt>
      <trkpt lat="44.45456" lon="6.64634">
        <ele>2310.6660156</ele>
        <time>2010-07-25T07:44:42Z</time>
      </trkpt>
      <trkpt lat="44.45453" lon="6.64633">
        <ele>2313.5498047</ele>
        <time>2010-07-25T07:44:46Z</time>
      </trkpt>
      <trkpt lat="44.45445" lon="6.64628">
        <ele>2314.0305176</ele>
        <time>2010-07-25T07:44:54Z</time>
      </trkpt>
      <trkpt lat="44.45436" lon="6.64621">
        <ele>2320.2792969</ele>
        <time>2010-07-25T07:45:03Z</time>
      </trkpt>
      <trkpt lat="44.45427" lon="6.64619">
        <ele>2317.3952637</ele>
        <time>2010-07-25T07:45:11Z</time>
      </trkpt>
      <trkpt lat="44.45416" lon="6.64616">
        <ele>2324.1245117</ele>
        <time>2010-07-25T07:45:19Z</time>
      </trkpt>
      <trkpt lat="44.45414" lon="6.6462">
        <ele>2316.434082</ele>
        <time>2010-07-25T07:45:23Z</time>
      </trkpt>
      <trkpt lat="44.45414" lon="6.64617">
        <ele>2315.953125</ele>
        <time>2010-07-25T07:45:29Z</time>
      </trkpt>
      <trkpt lat="44.45413" lon="6.6462">
        <ele>2315.953125</ele>
        <time>2010-07-25T07:46:01Z</time>
      </trkpt>
      <trkpt lat="44.45411" lon="6.64618">
        <ele>2314.0305176</ele>
        <time>2010-07-25T07:46:08Z</time>
      </trkpt>
      <trkpt lat="44.45408" lon="6.64614">
        <ele>2315.953125</ele>
        <time>2010-07-25T07:46:15Z</time>
      </trkpt>
      <trkpt lat="44.45406" lon="6.64609">
        <ele>2317.3952637</ele>
        <time>2010-07-25T07:46:20Z</time>
      </trkpt>
      <trkpt lat="44.45403" lon="6.64604">
        <ele>2318.8374023</ele>
        <time>2010-07-25T07:46:26Z</time>
      </trkpt>
      <trkpt lat="44.45403" lon="6.64603">
        <ele>2318.8374023</ele>
        <time>2010-07-25T07:46:27Z</time>
      </trkpt>
      <trkpt lat="44.454" lon="6.64594">
        <ele>2321.7211914</ele>
        <time>2010-07-25T07:46:36Z</time>
      </trkpt>
      <trkpt lat="44.45398" lon="6.64591">
        <ele>2324.6052246</ele>
        <time>2010-07-25T07:46:42Z</time>
      </trkpt>
      <trkpt lat="44.45393" lon="6.64585">
        <ele>2321.7211914</ele>
        <time>2010-07-25T07:46:52Z</time>
      </trkpt>
      <trkpt lat="44.45392" lon="6.64576">
        <ele>2331.3342285</ele>
        <time>2010-07-25T07:47:00Z</time>
      </trkpt>
      <trkpt lat="44.45384" lon="6.6457">
        <ele>2339.9863281</ele>
        <time>2010-07-25T07:47:07Z</time>
      </trkpt>
      <trkpt lat="44.45381" lon="6.64562">
        <ele>2350.560791</ele>
        <time>2010-07-25T07:47:17Z</time>
      </trkpt>
      <trkpt lat="44.45379" lon="6.6456">
        <ele>2353.4448242</ele>
        <time>2010-07-25T07:47:24Z</time>
      </trkpt>
      <trkpt lat="44.45373" lon="6.64552">
        <ele>2355.8479004</ele>
        <time>2010-07-25T07:47:32Z</time>
      </trkpt>
      <trkpt lat="44.45371" lon="6.64542">
        <ele>2363.5383301</ele>
        <time>2010-07-25T07:47:40Z</time>
      </trkpt>
      <trkpt lat="44.45371" lon="6.6454">
        <ele>2365.4614258</ele>
        <time>2010-07-25T07:47:46Z</time>
      </trkpt>
      <trkpt lat="44.45351" lon="6.64536">
        <ele>2327.9697266</ele>
        <time>2010-07-25T07:54:43Z</time>
      </trkpt>
      <trkpt lat="44.45346" lon="6.64529">
        <ele>2331.8149414</ele>
        <time>2010-07-25T07:54:51Z</time>
      </trkpt>
      <trkpt lat="44.45343" lon="6.64525">
        <ele>2333.737793</ele>
        <time>2010-07-25T07:54:59Z</time>
      </trkpt>
      <trkpt lat="44.45339" lon="6.64519">
        <ele>2331.3342285</ele>
        <time>2010-07-25T07:55:06Z</time>
      </trkpt>
      <trkpt lat="44.45334" lon="6.64515">
        <ele>2329.4116211</ele>
        <time>2010-07-25T07:55:14Z</time>
      </trkpt>
      <trkpt lat="44.45331" lon="6.64511">
        <ele>2330.8537598</ele>
        <time>2010-07-25T07:55:21Z</time>
      </trkpt>
      <trkpt lat="44.4533" lon="6.6451">
        <ele>2331.3342285</ele>
        <time>2010-07-25T07:55:22Z</time>
      </trkpt>
      <trkpt lat="44.45322" lon="6.64506">
        <ele>2327.4890137</ele>
        <time>2010-07-25T07:55:31Z</time>
      </trkpt>
      <trkpt lat="44.45316" lon="6.64503">
        <ele>2328.4504395</ele>
        <time>2010-07-25T07:55:38Z</time>
      </trkpt>
      <trkpt lat="44.45308" lon="6.64501">
        <ele>2330.3730469</ele>
        <time>2010-07-25T07:55:48Z</time>
      </trkpt>
      <trkpt lat="44.45304" lon="6.64498">
        <ele>2335.6604004</ele>
        <time>2010-07-25T07:55:58Z</time>
      </trkpt>
      <trkpt lat="44.45299" lon="6.64497">
        <ele>2337.5830078</ele>
        <time>2010-07-25T07:56:05Z</time>
      </trkpt>
      <trkpt lat="44.45294" lon="6.64493">
        <ele>2336.1411133</ele>
        <time>2010-07-25T07:56:12Z</time>
      </trkpt>
      <trkpt lat="44.45287" lon="6.64488">
        <ele>2339.0249023</ele>
        <time>2010-07-25T07:56:19Z</time>
      </trkpt>
      <trkpt lat="44.45284" lon="6.64488">
        <ele>2348.1574707</ele>
        <time>2010-07-25T07:56:27Z</time>
      </trkpt>
      <trkpt lat="44.45284" lon="6.64484">
        <ele>2353.9255371</ele>
        <time>2010-07-25T07:56:34Z</time>
      </trkpt>
      <trkpt lat="44.45277" lon="6.64478">
        <ele>2357.2900391</ele>
        <time>2010-07-25T07:56:43Z</time>
      </trkpt>
      <trkpt lat="44.45267" lon="6.64475">
        <ele>2350.0803223</ele>
        <time>2010-07-25T07:56:52Z</time>
      </trkpt>
      <trkpt lat="44.45261" lon="6.64471">
        <ele>2348.1574707</ele>
        <time>2010-07-25T07:56:59Z</time>
      </trkpt>
      <trkpt lat="44.45256" lon="6.6447">
        <ele>2349.5996094</ele>
        <time>2010-07-25T07:57:05Z</time>
      </trkpt>
      <trkpt lat="44.45247" lon="6.64465">
        <ele>2347.1960449</ele>
        <time>2010-07-25T07:57:15Z</time>
      </trkpt>
      <trkpt lat="44.4524" lon="6.6446">
        <ele>2347.1960449</ele>
        <time>2010-07-25T07:57:25Z</time>
      </trkpt>
      <trkpt lat="44.45234" lon="6.64455">
        <ele>2350.0803223</ele>
        <time>2010-07-25T07:57:35Z</time>
      </trkpt>
      <trkpt lat="44.45226" lon="6.64455">
        <ele>2353.9255371</ele>
        <time>2010-07-25T07:57:43Z</time>
      </trkpt>
      <trkpt lat="44.45219" lon="6.64453">
        <ele>2356.8093262</ele>
        <time>2010-07-25T07:57:51Z</time>
      </trkpt>
      <trkpt lat="44.45212" lon="6.64453">
        <ele>2358.2512207</ele>
        <time>2010-07-25T07:57:59Z</time>
      </trkpt>
      <trkpt lat="44.45203" lon="6.64452">
        <ele>2360.1738281</ele>
        <time>2010-07-25T07:58:08Z</time>
      </trkpt>
      <trkpt lat="44.45194" lon="6.64451">
        <ele>2362.0964355</ele>
        <time>2010-07-25T07:58:18Z</time>
      </trkpt>
      <trkpt lat="44.45187" lon="6.64453">
        <ele>2364.0192871</ele>
        <time>2010-07-25T07:58:28Z</time>
      </trkpt>
      <trkpt lat="44.4518" lon="6.64453">
        <ele>2366.4226074</ele>
        <time>2010-07-25T07:58:37Z</time>
      </trkpt>
      <trkpt lat="44.45174" lon="6.64452">
        <ele>2367.864502</ele>
        <time>2010-07-25T07:58:45Z</time>
      </trkpt>
      <trkpt lat="44.45167" lon="6.64449">
        <ele>2368.3452148</ele>
        <time>2010-07-25T07:58:55Z</time>
      </trkpt>
      <trkpt lat="44.45161" lon="6.64451">
        <ele>2369.7871094</ele>
        <time>2010-07-25T07:59:02Z</time>
      </trkpt>
      <trkpt lat="44.45156" lon="6.64452">
        <ele>2371.2290039</ele>
        <time>2010-07-25T07:59:09Z</time>
      </trkpt>
      <trkpt lat="44.45149" lon="6.64453">
        <ele>2373.1518555</ele>
        <time>2010-07-25T07:59:17Z</time>
      </trkpt>
      <trkpt lat="44.45142" lon="6.64451">
        <ele>2374.1130371</ele>
        <time>2010-07-25T07:59:26Z</time>
      </trkpt>
      <trkpt lat="44.45135" lon="6.64448">
        <ele>2373.1518555</ele>
        <time>2010-07-25T07:59:35Z</time>
      </trkpt>
      <trkpt lat="44.45129" lon="6.64444">
        <ele>2375.0742188</ele>
        <time>2010-07-25T07:59:43Z</time>
      </trkpt>
      <trkpt lat="44.45124" lon="6.64446">
        <ele>2376.5163574</ele>
        <time>2010-07-25T07:59:50Z</time>
      </trkpt>
      <trkpt lat="44.4512" lon="6.64451">
        <ele>2375.5549316</ele>
        <time>2010-07-25T07:59:57Z</time>
      </trkpt>
      <trkpt lat="44.45113" lon="6.64452">
        <ele>2376.9970703</ele>
        <time>2010-07-25T08:00:06Z</time>
      </trkpt>
      <trkpt lat="44.45106" lon="6.64449">
        <ele>2378.4389648</ele>
        <time>2010-07-25T08:00:14Z</time>
      </trkpt>
      <trkpt lat="44.451" lon="6.6445">
        <ele>2381.322998</ele>
        <time>2010-07-25T08:00:23Z</time>
      </trkpt>
      <trkpt lat="44.45095" lon="6.64449">
        <ele>2382.7648926</ele>
        <time>2010-07-25T08:00:30Z</time>
      </trkpt>
      <trkpt lat="44.4509" lon="6.64452">
        <ele>2382.2844238</ele>
        <time>2010-07-25T08:00:37Z</time>
      </trkpt>
      <trkpt lat="44.45086" lon="6.64454">
        <ele>2383.2456055</ele>
        <time>2010-07-25T08:00:43Z</time>
      </trkpt>
      <trkpt lat="44.45079" lon="6.64453">
        <ele>2385.6489258</ele>
        <time>2010-07-25T08:00:53Z</time>
      </trkpt>
      <trkpt lat="44.45073" lon="6.64449">
        <ele>2384.2070312</ele>
        <time>2010-07-25T08:01:03Z</time>
      </trkpt>
      <trkpt lat="44.45067" lon="6.64445">
        <ele>2384.2070312</ele>
        <time>2010-07-25T08:01:13Z</time>
      </trkpt>
      <trkpt lat="44.45061" lon="6.64442">
        <ele>2382.2844238</ele>
        <time>2010-07-25T08:01:23Z</time>
      </trkpt>
      <trkpt lat="44.45055" lon="6.64443">
        <ele>2383.2456055</ele>
        <time>2010-07-25T08:01:32Z</time>
      </trkpt>
      <trkpt lat="44.4505" lon="6.64443">
        <ele>2386.1296387</ele>
        <time>2010-07-25T08:01:41Z</time>
      </trkpt>
      <trkpt lat="44.45045" lon="6.64443">
        <ele>2389.4941406</ele>
        <time>2010-07-25T08:01:50Z</time>
      </trkpt>
      <trkpt lat="44.45037" lon="6.64443">
        <ele>2392.8586426</ele>
        <time>2010-07-25T08:02:01Z</time>
      </trkpt>
      <trkpt lat="44.4503" lon="6.64442">
        <ele>2397.1848145</ele>
        <time>2010-07-25T08:02:11Z</time>
      </trkpt>
      <trkpt lat="44.4503" lon="6.64443">
        <ele>2398.1459961</ele>
        <time>2010-07-25T08:02:24Z</time>
      </trkpt>
      <trkpt lat="44.45026" lon="6.64446">
        <ele>2398.1459961</ele>
        <time>2010-07-25T08:02:35Z</time>
      </trkpt>
      <trkpt lat="44.45018" lon="6.64447">
        <ele>2399.5881348</ele>
        <time>2010-07-25T08:02:43Z</time>
      </trkpt>
      <trkpt lat="44.45012" lon="6.64447">
        <ele>2399.1074219</ele>
        <time>2010-07-25T08:02:51Z</time>
      </trkpt>
      <trkpt lat="44.45009" lon="6.64452">
        <ele>2402.9526367</ele>
        <time>2010-07-25T08:03:00Z</time>
      </trkpt>
      <trkpt lat="44.45006" lon="6.64453">
        <ele>2404.8752441</ele>
        <time>2010-07-25T08:03:07Z</time>
      </trkpt>
      <trkpt lat="44.45" lon="6.6445">
        <ele>2407.2785645</ele>
        <time>2010-07-25T08:03:16Z</time>
      </trkpt>
      <trkpt lat="44.44996" lon="6.64449">
        <ele>2407.2785645</ele>
        <time>2010-07-25T08:03:24Z</time>
      </trkpt>
      <trkpt lat="44.44988" lon="6.64446">
        <ele>2411.1237793</ele>
        <time>2010-07-25T08:03:32Z</time>
      </trkpt>
      <trkpt lat="44.44981" lon="6.64443">
        <ele>2414.9692383</ele>
        <time>2010-07-25T08:03:40Z</time>
      </trkpt>
      <trkpt lat="44.44975" lon="6.64439">
        <ele>2414.9692383</ele>
        <time>2010-07-25T08:03:48Z</time>
      </trkpt>
      <trkpt lat="44.44969" lon="6.64436">
        <ele>2413.5270996</ele>
        <time>2010-07-25T08:03:54Z</time>
      </trkpt>
      <trkpt lat="44.44957" lon="6.6443">
        <ele>2410.1623535</ele>
        <time>2010-07-25T08:04:05Z</time>
      </trkpt>
      <trkpt lat="44.44954" lon="6.64428">
        <ele>2409.2011719</ele>
        <time>2010-07-25T08:04:12Z</time>
      </trkpt>
      <trkpt lat="44.4495" lon="6.64422">
        <ele>2412.0852051</ele>
        <time>2010-07-25T08:04:20Z</time>
      </trkpt>
      <trkpt lat="44.44945" lon="6.64416">
        <ele>2415.4499512</ele>
        <time>2010-07-25T08:04:30Z</time>
      </trkpt>
      <trkpt lat="44.44941" lon="6.64411">
        <ele>2416.8918457</ele>
        <time>2010-07-25T08:04:38Z</time>
      </trkpt>
      <trkpt lat="44.44937" lon="6.64407">
        <ele>2420.7370605</ele>
        <time>2010-07-25T08:04:44Z</time>
      </trkpt>
      <trkpt lat="44.44936" lon="6.64406">
        <ele>2420.2563477</ele>
        <time>2010-07-25T08:04:49Z</time>
      </trkpt>
      <trkpt lat="44.44933" lon="6.64408">
        <ele>2415.9304199</ele>
        <time>2010-07-25T08:05:08Z</time>
      </trkpt>
      <trkpt lat="44.44931" lon="6.64407">
        <ele>2416.4111328</ele>
        <time>2010-07-25T08:06:15Z</time>
      </trkpt>
      <trkpt lat="44.44921" lon="6.64396">
        <ele>2417.8530273</ele>
        <time>2010-07-25T08:06:24Z</time>
      </trkpt>
      <trkpt lat="44.44914" lon="6.64387">
        <ele>2419.295166</ele>
        <time>2010-07-25T08:06:32Z</time>
      </trkpt>
      <trkpt lat="44.44906" lon="6.64377">
        <ele>2421.6982422</ele>
        <time>2010-07-25T08:06:42Z</time>
      </trkpt>
      <trkpt lat="44.449" lon="6.64373">
        <ele>2422.1789551</ele>
        <time>2010-07-25T08:06:48Z</time>
      </trkpt>
      <trkpt lat="44.44889" lon="6.64367">
        <ele>2423.1403809</ele>
        <time>2010-07-25T08:06:58Z</time>
      </trkpt>
      <trkpt lat="44.44885" lon="6.64364">
        <ele>2423.1403809</ele>
        <time>2010-07-25T08:07:05Z</time>
      </trkpt>
      <trkpt lat="44.44882" lon="6.6436">
        <ele>2424.1015625</ele>
        <time>2010-07-25T08:07:11Z</time>
      </trkpt>
      <trkpt lat="44.44869" lon="6.6435">
        <ele>2425.543457</ele>
        <time>2010-07-25T08:07:20Z</time>
      </trkpt>
      <trkpt lat="44.44863" lon="6.64336">
        <ele>2426.9855957</ele>
        <time>2010-07-25T08:07:28Z</time>
      </trkpt>
      <trkpt lat="44.44857" lon="6.64326">
        <ele>2428.9082031</ele>
        <time>2010-07-25T08:07:34Z</time>
      </trkpt>
      <trkpt lat="44.44858" lon="6.64324">
        <ele>2431.3115234</ele>
        <time>2010-07-25T08:07:39Z</time>
      </trkpt>
      <trkpt lat="44.44854" lon="6.64317">
        <ele>2433.7148438</ele>
        <time>2010-07-25T08:07:47Z</time>
      </trkpt>
      <trkpt lat="44.44852" lon="6.64311">
        <ele>2437.0793457</ele>
        <time>2010-07-25T08:07:55Z</time>
      </trkpt>
      <trkpt lat="44.44844" lon="6.643">
        <ele>2437.5600586</ele>
        <time>2010-07-25T08:08:04Z</time>
      </trkpt>
      <trkpt lat="44.44838" lon="6.64291">
        <ele>2438.5214844</ele>
        <time>2010-07-25T08:08:12Z</time>
      </trkpt>
      <trkpt lat="44.44832" lon="6.64282">
        <ele>2439.482666</ele>
        <time>2010-07-25T08:08:20Z</time>
      </trkpt>
      <trkpt lat="44.44829" lon="6.64282">
        <ele>2439.482666</ele>
        <time>2010-07-25T08:08:22Z</time>
      </trkpt>
      <trkpt lat="44.44821" lon="6.64277">
        <ele>2439.0019531</ele>
        <time>2010-07-25T08:08:30Z</time>
      </trkpt>
      <trkpt lat="44.44813" lon="6.64275">
        <ele>2439.482666</ele>
        <time>2010-07-25T08:08:37Z</time>
      </trkpt>
      <trkpt lat="44.44811" lon="6.64274">
        <ele>2438.5214844</ele>
        <time>2010-07-25T08:08:43Z</time>
      </trkpt>
      <trkpt lat="44.44809" lon="6.64274">
        <ele>2437.0793457</ele>
        <time>2010-07-25T08:09:11Z</time>
      </trkpt>
      <trkpt lat="44.44802" lon="6.64268">
        <ele>2436.5986328</ele>
        <time>2010-07-25T08:09:18Z</time>
      </trkpt>
      <trkpt lat="44.44792" lon="6.6427">
        <ele>2434.6762695</ele>
        <time>2010-07-25T08:09:24Z</time>
      </trkpt>
      <trkpt lat="44.44788" lon="6.6427">
        <ele>2434.6762695</ele>
        <time>2010-07-25T08:09:27Z</time>
      </trkpt>
      <trkpt lat="44.44784" lon="6.64266">
        <ele>2434.6762695</ele>
        <time>2010-07-25T08:09:31Z</time>
      </trkpt>
      <trkpt lat="44.4478" lon="6.6427">
        <ele>2435.6374512</ele>
        <time>2010-07-25T08:09:37Z</time>
      </trkpt>
      <trkpt lat="44.44779" lon="6.64271">
        <ele>2436.5986328</ele>
        <time>2010-07-25T08:09:43Z</time>
      </trkpt>
      <trkpt lat="44.44778" lon="6.64276">
        <ele>2440.4438477</ele>
        <time>2010-07-25T08:10:01Z</time>
      </trkpt>
      <trkpt lat="44.44773" lon="6.64279">
        <ele>2442.3666992</ele>
        <time>2010-07-25T08:10:08Z</time>
      </trkpt>
      <trkpt lat="44.44767" lon="6.64281">
        <ele>2445.2507324</ele>
        <time>2010-07-25T08:10:17Z</time>
      </trkpt>
      <trkpt lat="44.44761" lon="6.64284">
        <ele>2447.6540527</ele>
        <time>2010-07-25T08:10:26Z</time>
      </trkpt>
      <trkpt lat="44.44757" lon="6.64287">
        <ele>2450.5378418</ele>
        <time>2010-07-25T08:10:34Z</time>
      </trkpt>
      <trkpt lat="44.44754" lon="6.6429">
        <ele>2454.8637695</ele>
        <time>2010-07-25T08:10:42Z</time>
      </trkpt>
      <trkpt lat="44.44752" lon="6.64293">
        <ele>2456.786377</ele>
        <time>2010-07-25T08:10:49Z</time>
      </trkpt>
      <trkpt lat="44.44749" lon="6.64297">
        <ele>2458.2282715</ele>
        <time>2010-07-25T08:10:56Z</time>
      </trkpt>
      <trkpt lat="44.44744" lon="6.64306">
        <ele>2459.1896973</ele>
        <time>2010-07-25T08:11:05Z</time>
      </trkpt>
      <trkpt lat="44.44737" lon="6.64311">
        <ele>2460.151123</ele>
        <time>2010-07-25T08:11:15Z</time>
      </trkpt>
      <trkpt lat="44.44729" lon="6.64311">
        <ele>2462.5544434</ele>
        <time>2010-07-25T08:11:25Z</time>
      </trkpt>
      <trkpt lat="44.44721" lon="6.6431">
        <ele>2462.0737305</ele>
        <time>2010-07-25T08:11:35Z</time>
      </trkpt>
      <trkpt lat="44.44716" lon="6.64306">
        <ele>2463.0351562</ele>
        <time>2010-07-25T08:11:43Z</time>
      </trkpt>
      <trkpt lat="44.4471" lon="6.64304">
        <ele>2463.515625</ele>
        <time>2010-07-25T08:11:50Z</time>
      </trkpt>
      <trkpt lat="44.44703" lon="6.64302">
        <ele>2464.9577637</ele>
        <time>2010-07-25T08:12:00Z</time>
      </trkpt>
      <trkpt lat="44.44697" lon="6.64298">
        <ele>2466.8803711</ele>
        <time>2010-07-25T08:12:09Z</time>
      </trkpt>
      <trkpt lat="44.44692" lon="6.64294">
        <ele>2466.8803711</ele>
        <time>2010-07-25T08:12:19Z</time>
      </trkpt>
      <trkpt lat="44.44687" lon="6.64291">
        <ele>2468.3222656</ele>
        <time>2010-07-25T08:12:27Z</time>
      </trkpt>
      <trkpt lat="44.44684" lon="6.6429">
        <ele>2470.244873</ele>
        <time>2010-07-25T08:12:35Z</time>
      </trkpt>
      <trkpt lat="44.44679" lon="6.64288">
        <ele>2472.6481934</ele>
        <time>2010-07-25T08:12:44Z</time>
      </trkpt>
      <trkpt lat="44.44676" lon="6.64286">
        <ele>2476.0129395</ele>
        <time>2010-07-25T08:12:53Z</time>
      </trkpt>
      <trkpt lat="44.44673" lon="6.64286">
        <ele>2477.9355469</ele>
        <time>2010-07-25T08:13:00Z</time>
      </trkpt>
      <trkpt lat="44.44669" lon="6.64287">
        <ele>2481.3000488</ele>
        <time>2010-07-25T08:13:08Z</time>
      </trkpt>
      <trkpt lat="44.44665" lon="6.64288">
        <ele>2483.2226562</ele>
        <time>2010-07-25T08:13:16Z</time>
      </trkpt>
      <trkpt lat="44.44662" lon="6.64289">
        <ele>2485.1452637</ele>
        <time>2010-07-25T08:13:23Z</time>
      </trkpt>
      <trkpt lat="44.44658" lon="6.64291">
        <ele>2487.548584</ele>
        <time>2010-07-25T08:13:31Z</time>
      </trkpt>
      <trkpt lat="44.44655" lon="6.64291">
        <ele>2488.9904785</ele>
        <time>2010-07-25T08:13:38Z</time>
      </trkpt>
      <trkpt lat="44.44651" lon="6.6429">
        <ele>2489.9519043</ele>
        <time>2010-07-25T08:13:46Z</time>
      </trkpt>
      <trkpt lat="44.4465" lon="6.64289">
        <ele>2491.8745117</ele>
        <time>2010-07-25T08:13:54Z</time>
      </trkpt>
      <trkpt lat="44.44648" lon="6.64287">
        <ele>2492.3554688</ele>
        <time>2010-07-25T08:13:59Z</time>
      </trkpt>
      <trkpt lat="44.44642" lon="6.64283">
        <ele>2493.7973633</ele>
        <time>2010-07-25T08:14:08Z</time>
      </trkpt>
      <trkpt lat="44.44637" lon="6.64281">
        <ele>2495.2392578</ele>
        <time>2010-07-25T08:14:17Z</time>
      </trkpt>
      <trkpt lat="44.44633" lon="6.64279">
        <ele>2495.7199707</ele>
        <time>2010-07-25T08:14:26Z</time>
      </trkpt>
      <trkpt lat="44.4463" lon="6.64275">
        <ele>2495.2392578</ele>
        <time>2010-07-25T08:14:34Z</time>
      </trkpt>
      <trkpt lat="44.44628" lon="6.64273">
        <ele>2496.2006836</ele>
        <time>2010-07-25T08:14:40Z</time>
      </trkpt>
      <trkpt lat="44.44623" lon="6.64274">
        <ele>2497.1618652</ele>
        <time>2010-07-25T08:14:49Z</time>
      </trkpt>
      <trkpt lat="44.44619" lon="6.64278">
        <ele>2499.0844727</ele>
        <time>2010-07-25T08:14:58Z</time>
      </trkpt>
      <trkpt lat="44.44616" lon="6.64282">
        <ele>2500.5263672</ele>
        <time>2010-07-25T08:15:05Z</time>
      </trkpt>
      <trkpt lat="44.44613" lon="6.64286">
        <ele>2501.9682617</ele>
        <time>2010-07-25T08:15:13Z</time>
      </trkpt>
      <trkpt lat="44.44609" lon="6.64288">
        <ele>2504.371582</ele>
        <time>2010-07-25T08:15:22Z</time>
      </trkpt>
      <trkpt lat="44.44605" lon="6.64289">
        <ele>2506.7749023</ele>
        <time>2010-07-25T08:15:30Z</time>
      </trkpt>
      <trkpt lat="44.44601" lon="6.64291">
        <ele>2508.217041</ele>
        <time>2010-07-25T08:15:39Z</time>
      </trkpt>
      <trkpt lat="44.44596" lon="6.64292">
        <ele>2509.1784668</ele>
        <time>2010-07-25T08:15:47Z</time>
      </trkpt>
      <trkpt lat="44.44591" lon="6.64295">
        <ele>2510.6203613</ele>
        <time>2010-07-25T08:15:55Z</time>
      </trkpt>
      <trkpt lat="44.44586" lon="6.64299">
        <ele>2512.5429688</ele>
        <time>2010-07-25T08:16:04Z</time>
      </trkpt>
      <trkpt lat="44.44581" lon="6.643">
        <ele>2514.4655762</ele>
        <time>2010-07-25T08:16:11Z</time>
      </trkpt>
      <trkpt lat="44.44577" lon="6.64301">
        <ele>2515.427002</ele>
        <time>2010-07-25T08:16:18Z</time>
      </trkpt>
      <trkpt lat="44.44574" lon="6.64302">
        <ele>2518.310791</ele>
        <time>2010-07-25T08:16:29Z</time>
      </trkpt>
      <trkpt lat="44.44567" lon="6.64305">
        <ele>2516.8688965</ele>
        <time>2010-07-25T08:16:37Z</time>
      </trkpt>
      <trkpt lat="44.44559" lon="6.64304">
        <ele>2512.5429688</ele>
        <time>2010-07-25T08:16:46Z</time>
      </trkpt>
      <trkpt lat="44.44555" lon="6.64302">
        <ele>2513.5041504</ele>
        <time>2010-07-25T08:16:55Z</time>
      </trkpt>
      <trkpt lat="44.44551" lon="6.64307">
        <ele>2513.5041504</ele>
        <time>2010-07-25T08:17:03Z</time>
      </trkpt>
      <trkpt lat="44.44547" lon="6.64309">
        <ele>2514.9462891</ele>
        <time>2010-07-25T08:17:09Z</time>
      </trkpt>
      <trkpt lat="44.44542" lon="6.64311">
        <ele>2517.3493652</ele>
        <time>2010-07-25T08:17:15Z</time>
      </trkpt>
      <trkpt lat="44.44537" lon="6.64312">
        <ele>2519.2722168</ele>
        <time>2010-07-25T08:17:20Z</time>
      </trkpt>
      <trkpt lat="44.44532" lon="6.64314">
        <ele>2521.675293</ele>
        <time>2010-07-25T08:17:27Z</time>
      </trkpt>
      <trkpt lat="44.44528" lon="6.64316">
        <ele>2525.0400391</ele>
        <time>2010-07-25T08:17:36Z</time>
      </trkpt>
      <trkpt lat="44.44523" lon="6.64321">
        <ele>2525.520752</ele>
        <time>2010-07-25T08:17:43Z</time>
      </trkpt>
      <trkpt lat="44.44524" lon="6.64323">
        <ele>2528.4047852</ele>
        <time>2010-07-25T08:17:49Z</time>
      </trkpt>
      <trkpt lat="44.44521" lon="6.64324">
        <ele>2531.7692871</ele>
        <time>2010-07-25T08:18:08Z</time>
      </trkpt>
      <trkpt lat="44.44516" lon="6.64324">
        <ele>2532.25</ele>
        <time>2010-07-25T08:18:13Z</time>
      </trkpt>
      <trkpt lat="44.44507" lon="6.64324">
        <ele>2531.2885742</ele>
        <time>2010-07-25T08:18:23Z</time>
      </trkpt>
      <trkpt lat="44.44498" lon="6.64321">
        <ele>2530.3273926</ele>
        <time>2010-07-25T08:18:32Z</time>
      </trkpt>
      <trkpt lat="44.44491" lon="6.64317">
        <ele>2532.7304688</ele>
        <time>2010-07-25T08:18:40Z</time>
      </trkpt>
      <trkpt lat="44.4448" lon="6.64316">
        <ele>2532.7304688</ele>
        <time>2010-07-25T08:18:49Z</time>
      </trkpt>
      <trkpt lat="44.44473" lon="6.64314">
        <ele>2531.2885742</ele>
        <time>2010-07-25T08:18:57Z</time>
      </trkpt>
      <trkpt lat="44.44468" lon="6.64312">
        <ele>2534.1726074</ele>
        <time>2010-07-25T08:19:05Z</time>
      </trkpt>
      <trkpt lat="44.44464" lon="6.64313">
        <ele>2540.9018555</ele>
        <time>2010-07-25T08:19:13Z</time>
      </trkpt>
      <trkpt lat="44.44458" lon="6.64308">
        <ele>2543.3051758</ele>
        <time>2010-07-25T08:19:21Z</time>
      </trkpt>
      <trkpt lat="44.44448" lon="6.64304">
        <ele>2538.4985352</ele>
        <time>2010-07-25T08:19:30Z</time>
      </trkpt>
      <trkpt lat="44.44441" lon="6.643">
        <ele>2539.4597168</ele>
        <time>2010-07-25T08:19:38Z</time>
      </trkpt>
      <trkpt lat="44.44434" lon="6.64298">
        <ele>2541.8632812</ele>
        <time>2010-07-25T08:19:45Z</time>
      </trkpt>
      <trkpt lat="44.44425" lon="6.64295">
        <ele>2540.4211426</ele>
        <time>2010-07-25T08:19:53Z</time>
      </trkpt>
      <trkpt lat="44.44421" lon="6.64298">
        <ele>2539.9404297</ele>
        <time>2010-07-25T08:20:05Z</time>
      </trkpt>
      <trkpt lat="44.4441" lon="6.64299">
        <ele>2537.0563965</ele>
        <time>2010-07-25T08:20:17Z</time>
      </trkpt>
      <trkpt lat="44.44405" lon="6.64299">
        <ele>2538.4985352</ele>
        <time>2010-07-25T08:20:25Z</time>
      </trkpt>
      <trkpt lat="44.44402" lon="6.64298">
        <ele>2542.3439941</ele>
        <time>2010-07-25T08:20:32Z</time>
      </trkpt>
      <trkpt lat="44.44398" lon="6.64294">
        <ele>2549.5537109</ele>
        <time>2010-07-25T08:20:40Z</time>
      </trkpt>
      <trkpt lat="44.44391" lon="6.6429">
        <ele>2552.4375</ele>
        <time>2010-07-25T08:20:48Z</time>
      </trkpt>
      <trkpt lat="44.44384" lon="6.64287">
        <ele>2552.4375</ele>
        <time>2010-07-25T08:20:56Z</time>
      </trkpt>
      <trkpt lat="44.44377" lon="6.64286">
        <ele>2550.0344238</ele>
        <time>2010-07-25T08:21:03Z</time>
      </trkpt>
      <trkpt lat="44.4437" lon="6.64281">
        <ele>2550.5148926</ele>
        <time>2010-07-25T08:21:12Z</time>
      </trkpt>
      <trkpt lat="44.44367" lon="6.64277">
        <ele>2551.9567871</ele>
        <time>2010-07-25T08:21:20Z</time>
      </trkpt>
      <trkpt lat="44.44365" lon="6.64274">
        <ele>2550.9956055</ele>
        <time>2010-07-25T08:21:25Z</time>
      </trkpt>
      <trkpt lat="44.44362" lon="6.64273">
        <ele>2554.3601074</ele>
        <time>2010-07-25T08:21:31Z</time>
      </trkpt>
      <trkpt lat="44.44355" lon="6.64272">
        <ele>2556.282959</ele>
        <time>2010-07-25T08:21:38Z</time>
      </trkpt>
      <trkpt lat="44.4435" lon="6.64272">
        <ele>2556.7636719</ele>
        <time>2010-07-25T08:21:47Z</time>
      </trkpt>
      <trkpt lat="44.44345" lon="6.64272">
        <ele>2555.802002</ele>
        <time>2010-07-25T08:21:57Z</time>
      </trkpt>
      <trkpt lat="44.4434" lon="6.64274">
        <ele>2558.2055664</ele>
        <time>2010-07-25T08:22:06Z</time>
      </trkpt>
      <trkpt lat="44.44338" lon="6.64272">
        <ele>2558.2055664</ele>
        <time>2010-07-25T08:22:18Z</time>
      </trkpt>
      <trkpt lat="44.44336" lon="6.64268">
        <ele>2560.1281738</ele>
        <time>2010-07-25T08:22:35Z</time>
      </trkpt>
      <trkpt lat="44.4434" lon="6.64267">
        <ele>2569.2607422</ele>
        <time>2010-07-25T08:22:44Z</time>
      </trkpt>
      <trkpt lat="44.44334" lon="6.64263">
        <ele>2574.5480957</ele>
        <time>2010-07-25T08:22:53Z</time>
      </trkpt>
      <trkpt lat="44.44328" lon="6.64265">
        <ele>2576.951416</ele>
        <time>2010-07-25T08:23:02Z</time>
      </trkpt>
      <trkpt lat="44.44323" lon="6.64263">
        <ele>2581.7578125</ele>
        <time>2010-07-25T08:23:10Z</time>
      </trkpt>
      <trkpt lat="44.44318" lon="6.64261">
        <ele>2584.6418457</ele>
        <time>2010-07-25T08:23:17Z</time>
      </trkpt>
      <trkpt lat="44.44311" lon="6.64261">
        <ele>2586.564209</ele>
        <time>2010-07-25T08:23:26Z</time>
      </trkpt>
      <trkpt lat="44.44305" lon="6.6426">
        <ele>2588.4873047</ele>
        <time>2010-07-25T08:23:36Z</time>
      </trkpt>
      <trkpt lat="44.44299" lon="6.64259">
        <ele>2588.9677734</ele>
        <time>2010-07-25T08:23:45Z</time>
      </trkpt>
      <trkpt lat="44.44293" lon="6.64255">
        <ele>2590.409668</ele>
        <time>2010-07-25T08:23:54Z</time>
      </trkpt>
      <trkpt lat="44.44289" lon="6.64249">
        <ele>2587.5256348</ele>
        <time>2010-07-25T08:24:04Z</time>
      </trkpt>
      <trkpt lat="44.44285" lon="6.64243">
        <ele>2591.8518066</ele>
        <time>2010-07-25T08:24:14Z</time>
      </trkpt>
      <trkpt lat="44.44281" lon="6.64241">
        <ele>2594.7355957</ele>
        <time>2010-07-25T08:24:22Z</time>
      </trkpt>
      <trkpt lat="44.44277" lon="6.64239">
        <ele>2595.6970215</ele>
        <time>2010-07-25T08:24:29Z</time>
      </trkpt>
      <trkpt lat="44.44272" lon="6.64239">
        <ele>2597.6196289</ele>
        <time>2010-07-25T08:24:38Z</time>
      </trkpt>
      <trkpt lat="44.44267" lon="6.6424">
        <ele>2598.1000977</ele>
        <time>2010-07-25T08:24:46Z</time>
      </trkpt>
      <trkpt lat="44.44263" lon="6.64238">
        <ele>2598.1000977</ele>
        <time>2010-07-25T08:24:53Z</time>
      </trkpt>
      <trkpt lat="44.4426" lon="6.64237">
        <ele>2596.1777344</ele>
        <time>2010-07-25T08:25:00Z</time>
      </trkpt>
      <trkpt lat="44.44257" lon="6.64235">
        <ele>2596.1777344</ele>
        <time>2010-07-25T08:25:07Z</time>
      </trkpt>
      <trkpt lat="44.44253" lon="6.64234">
        <ele>2597.6196289</ele>
        <time>2010-07-25T08:25:14Z</time>
      </trkpt>
      <trkpt lat="44.44249" lon="6.64234">
        <ele>2597.1386719</ele>
        <time>2010-07-25T08:25:22Z</time>
      </trkpt>
      <trkpt lat="44.44245" lon="6.64234">
        <ele>2598.1000977</ele>
        <time>2010-07-25T08:25:29Z</time>
      </trkpt>
      <trkpt lat="44.44242" lon="6.64234">
        <ele>2599.0615234</ele>
        <time>2010-07-25T08:25:38Z</time>
      </trkpt>
      <trkpt lat="44.44239" lon="6.64233">
        <ele>2600.0229492</ele>
        <time>2010-07-25T08:25:46Z</time>
      </trkpt>
      <trkpt lat="44.44236" lon="6.64232">
        <ele>2601.4648438</ele>
        <time>2010-07-25T08:25:54Z</time>
      </trkpt>
      <trkpt lat="44.44232" lon="6.6423">
        <ele>2604.3486328</ele>
        <time>2010-07-25T08:26:04Z</time>
      </trkpt>
      <trkpt lat="44.44226" lon="6.64229">
        <ele>2604.8291016</ele>
        <time>2010-07-25T08:26:13Z</time>
      </trkpt>
      <trkpt lat="44.44225" lon="6.6423">
        <ele>2604.8291016</ele>
        <time>2010-07-25T08:26:19Z</time>
      </trkpt>
      <trkpt lat="44.44224" lon="6.6423">
        <ele>2604.3486328</ele>
        <time>2010-07-25T08:26:28Z</time>
      </trkpt>
      <trkpt lat="44.44216" lon="6.64226">
        <ele>2597.1386719</ele>
        <time>2010-07-25T08:26:38Z</time>
      </trkpt>
      <trkpt lat="44.44213" lon="6.64221">
        <ele>2596.6582031</ele>
        <time>2010-07-25T08:26:45Z</time>
      </trkpt>
      <trkpt lat="44.44207" lon="6.64215">
        <ele>2599.0615234</ele>
        <time>2010-07-25T08:26:55Z</time>
      </trkpt>
      <trkpt lat="44.44199" lon="6.6421">
        <ele>2600.984375</ele>
        <time>2010-07-25T08:27:03Z</time>
      </trkpt>
      <trkpt lat="44.44191" lon="6.64205">
        <ele>2603.387207</ele>
        <time>2010-07-25T08:27:10Z</time>
      </trkpt>
      <trkpt lat="44.44184" lon="6.64201">
        <ele>2601.9453125</ele>
        <time>2010-07-25T08:27:18Z</time>
      </trkpt>
      <trkpt lat="44.4418" lon="6.64197">
        <ele>2599.5419922</ele>
        <time>2010-07-25T08:27:25Z</time>
      </trkpt>
      <trkpt lat="44.44176" lon="6.64194">
        <ele>2603.8681641</ele>
        <time>2010-07-25T08:27:32Z</time>
      </trkpt>
      <trkpt lat="44.44174" lon="6.64193">
        <ele>2604.3486328</ele>
        <time>2010-07-25T08:27:39Z</time>
      </trkpt>
      <trkpt lat="44.44173" lon="6.64195">
        <ele>2604.8291016</ele>
        <time>2010-07-25T08:28:03Z</time>
      </trkpt>
      <trkpt lat="44.44167" lon="6.64191">
        <ele>2609.1552734</ele>
        <time>2010-07-25T08:28:13Z</time>
      </trkpt>
      <trkpt lat="44.44163" lon="6.64188">
        <ele>2611.5585938</ele>
        <time>2010-07-25T08:28:21Z</time>
      </trkpt>
      <trkpt lat="44.44159" lon="6.64188">
        <ele>2614.4428711</ele>
        <time>2010-07-25T08:28:29Z</time>
      </trkpt>
      <trkpt lat="44.44153" lon="6.64186">
        <ele>2618.2880859</ele>
        <time>2010-07-25T08:28:39Z</time>
      </trkpt>
      <trkpt lat="44.44148" lon="6.64186">
        <ele>2619.7299805</ele>
        <time>2010-07-25T08:28:49Z</time>
      </trkpt>
      <trkpt lat="44.44144" lon="6.64187">
        <ele>2620.6914062</ele>
        <time>2010-07-25T08:28:58Z</time>
      </trkpt>
      <trkpt lat="44.44141" lon="6.64187">
        <ele>2621.171875</ele>
        <time>2010-07-25T08:29:04Z</time>
      </trkpt>
      <trkpt lat="44.44137" lon="6.64187">
        <ele>2623.0947266</ele>
        <time>2010-07-25T08:29:11Z</time>
      </trkpt>
      <trkpt lat="44.44132" lon="6.64185">
        <ele>2625.9785156</ele>
        <time>2010-07-25T08:29:20Z</time>
      </trkpt>
      <trkpt lat="44.44126" lon="6.64182">
        <ele>2627.4204102</ele>
        <time>2010-07-25T08:29:28Z</time>
      </trkpt>
      <trkpt lat="44.4412" lon="6.64187">
        <ele>2627.4204102</ele>
        <time>2010-07-25T08:29:36Z</time>
      </trkpt>
      <trkpt lat="44.44117" lon="6.6419">
        <ele>2627.4204102</ele>
        <time>2010-07-25T08:29:43Z</time>
      </trkpt>
      <trkpt lat="44.44111" lon="6.64193">
        <ele>2628.8623047</ele>
        <time>2010-07-25T08:29:53Z</time>
      </trkpt>
      <trkpt lat="44.44109" lon="6.64193">
        <ele>2629.3432617</ele>
        <time>2010-07-25T08:29:59Z</time>
      </trkpt>
      <trkpt lat="44.44104" lon="6.64196">
        <ele>2630.3041992</ele>
        <time>2010-07-25T08:30:08Z</time>
      </trkpt>
      <trkpt lat="44.44103" lon="6.642">
        <ele>2632.2270508</ele>
        <time>2010-07-25T08:30:15Z</time>
      </trkpt>
      <trkpt lat="44.441" lon="6.64207">
        <ele>2633.6689453</ele>
        <time>2010-07-25T08:30:24Z</time>
      </trkpt>
      <trkpt lat="44.44097" lon="6.64211">
        <ele>2634.1494141</ele>
        <time>2010-07-25T08:30:30Z</time>
      </trkpt>
      <trkpt lat="44.44094" lon="6.64215">
        <ele>2635.1108398</ele>
        <time>2010-07-25T08:30:39Z</time>
      </trkpt>
      <trkpt lat="44.44093" lon="6.64219">
        <ele>2636.5527344</ele>
        <time>2010-07-25T08:30:46Z</time>
      </trkpt>
      <trkpt lat="44.4409" lon="6.64219">
        <ele>2637.0336914</ele>
        <time>2010-07-25T08:30:53Z</time>
      </trkpt>
      <trkpt lat="44.44088" lon="6.64217">
        <ele>2638.4755859</ele>
        <time>2010-07-25T08:31:01Z</time>
      </trkpt>
      <trkpt lat="44.44087" lon="6.64218">
        <ele>2639.4370117</ele>
        <time>2010-07-25T08:31:13Z</time>
      </trkpt>
      <trkpt lat="44.44085" lon="6.64214">
        <ele>2639.9174805</ele>
        <time>2010-07-25T08:31:20Z</time>
      </trkpt>
      <trkpt lat="44.44084" lon="6.6421">
        <ele>2640.8789062</ele>
        <time>2010-07-25T08:31:28Z</time>
      </trkpt>
      <trkpt lat="44.44084" lon="6.64207">
        <ele>2642.8012695</ele>
        <time>2010-07-25T08:31:35Z</time>
      </trkpt>
      <trkpt lat="44.44082" lon="6.64205">
        <ele>2644.7246094</ele>
        <time>2010-07-25T08:31:43Z</time>
      </trkpt>
      <trkpt lat="44.44082" lon="6.64203">
        <ele>2645.6855469</ele>
        <time>2010-07-25T08:31:49Z</time>
      </trkpt>
      <trkpt lat="44.44085" lon="6.64198">
        <ele>2641.8398438</ele>
        <time>2010-07-25T08:31:59Z</time>
      </trkpt>
      <trkpt lat="44.44081" lon="6.64199">
        <ele>2646.6469727</ele>
        <time>2010-07-25T08:32:07Z</time>
      </trkpt>
      <trkpt lat="44.44079" lon="6.64201">
        <ele>2648.5698242</ele>
        <time>2010-07-25T08:32:13Z</time>
      </trkpt>
      <trkpt lat="44.44076" lon="6.64205">
        <ele>2651.934082</ele>
        <time>2010-07-25T08:32:18Z</time>
      </trkpt>
      <trkpt lat="44.44075" lon="6.64206">
        <ele>2656.2602539</ele>
        <time>2010-07-25T08:32:23Z</time>
      </trkpt>
      <trkpt lat="44.44075" lon="6.64208">
        <ele>2652.4150391</ele>
        <time>2010-07-25T08:32:28Z</time>
      </trkpt>
      <trkpt lat="44.44074" lon="6.64211">
        <ele>2650.9726562</ele>
        <time>2010-07-25T08:32:37Z</time>
      </trkpt>
      <trkpt lat="44.44073" lon="6.64213">
        <ele>2651.934082</ele>
        <time>2010-07-25T08:32:40Z</time>
      </trkpt>
      <trkpt lat="44.44073" lon="6.64224">
        <ele>2655.2988281</ele>
        <time>2010-07-25T08:32:47Z</time>
      </trkpt>
      <trkpt lat="44.44076" lon="6.64223">
        <ele>2659.144043</ele>
        <time>2010-07-25T08:32:52Z</time>
      </trkpt>
      <trkpt lat="44.44076" lon="6.64222">
        <ele>2659.144043</ele>
        <time>2010-07-25T08:32:53Z</time>
      </trkpt>
      <trkpt lat="44.44076" lon="6.6422">
        <ele>2660.1054688</ele>
        <time>2010-07-25T08:32:59Z</time>
      </trkpt>
      <trkpt lat="44.44077" lon="6.64219">
        <ele>2656.2602539</ele>
        <time>2010-07-25T08:33:04Z</time>
      </trkpt>
      <trkpt lat="44.44073" lon="6.64215">
        <ele>2653.3759766</ele>
        <time>2010-07-25T08:33:09Z</time>
      </trkpt>
      <trkpt lat="44.44073" lon="6.64215">
        <ele>2653.3759766</ele>
        <time>2010-07-25T08:33:10Z</time>
      </trkpt>
      <trkpt lat="44.44073" lon="6.64211">
        <ele>2644.7246094</ele>
        <time>2010-07-25T08:33:17Z</time>
      </trkpt>
      <trkpt lat="44.44072" lon="6.64205">
        <ele>2642.3208008</ele>
        <time>2010-07-25T08:33:21Z</time>
      </trkpt>
      <trkpt lat="44.44066" lon="6.64199">
        <ele>2635.5913086</ele>
        <time>2010-07-25T08:33:31Z</time>
      </trkpt>
      <trkpt lat="44.44068" lon="6.64197">
        <ele>2632.7075195</ele>
        <time>2010-07-25T08:33:37Z</time>
      </trkpt>
      <trkpt lat="44.44073" lon="6.64199">
        <ele>2636.5527344</ele>
        <time>2010-07-25T08:33:48Z</time>
      </trkpt>
      <trkpt lat="44.44079" lon="6.64198">
        <ele>2642.8012695</ele>
        <time>2010-07-25T08:33:52Z</time>
      </trkpt>
      <trkpt lat="44.44082" lon="6.64199">
        <ele>2645.6855469</ele>
        <time>2010-07-25T08:33:58Z</time>
      </trkpt>
      <trkpt lat="44.44084" lon="6.64201">
        <ele>2645.6855469</ele>
        <time>2010-07-25T08:34:04Z</time>
      </trkpt>
      <trkpt lat="44.44082" lon="6.64198">
        <ele>2648.0888672</ele>
        <time>2010-07-25T08:34:11Z</time>
      </trkpt>
      <trkpt lat="44.44079" lon="6.64196">
        <ele>2650.4921875</ele>
        <time>2010-07-25T08:34:18Z</time>
      </trkpt>
      <trkpt lat="44.44077" lon="6.642">
        <ele>2650.0117188</ele>
        <time>2010-07-25T08:34:23Z</time>
      </trkpt>
      <trkpt lat="44.44075" lon="6.64207">
        <ele>2652.4150391</ele>
        <time>2010-07-25T08:34:31Z</time>
      </trkpt>
      <trkpt lat="44.44073" lon="6.64212">
        <ele>2652.8955078</ele>
        <time>2010-07-25T08:34:37Z</time>
      </trkpt>
      <trkpt lat="44.44073" lon="6.64223">
        <ele>2653.8569336</ele>
        <time>2010-07-25T08:34:46Z</time>
      </trkpt>
      <trkpt lat="44.44071" lon="6.64228">
        <ele>2654.3374023</ele>
        <time>2010-07-25T08:34:52Z</time>
      </trkpt>
      <trkpt lat="44.4407" lon="6.64238">
        <ele>2653.8569336</ele>
        <time>2010-07-25T08:35:00Z</time>
      </trkpt>
      <trkpt lat="44.44069" lon="6.64244">
        <ele>2653.8569336</ele>
        <time>2010-07-25T08:35:06Z</time>
      </trkpt>
      <trkpt lat="44.44068" lon="6.64247">
        <ele>2655.7792969</ele>
        <time>2010-07-25T08:35:11Z</time>
      </trkpt>
      <trkpt lat="44.44067" lon="6.64249">
        <ele>2656.7407227</ele>
        <time>2010-07-25T08:35:17Z</time>
      </trkpt>
      <trkpt lat="44.44065" lon="6.64251">
        <ele>2657.2211914</ele>
        <time>2010-07-25T08:35:20Z</time>
      </trkpt>
      <trkpt lat="44.44061" lon="6.64258">
        <ele>2659.6245117</ele>
        <time>2010-07-25T08:35:28Z</time>
      </trkpt>
      <trkpt lat="44.44054" lon="6.64259">
        <ele>2662.9892578</ele>
        <time>2010-07-25T08:35:36Z</time>
      </trkpt>
      <trkpt lat="44.4405" lon="6.64258">
        <ele>2663.9506836</ele>
        <time>2010-07-25T08:35:39Z</time>
      </trkpt>
      <trkpt lat="44.44046" lon="6.64259">
        <ele>2664.4311523</ele>
        <time>2010-07-25T08:35:47Z</time>
      </trkpt>
      <trkpt lat="44.44046" lon="6.64259">
        <ele>2665.3925781</ele>
        <time>2010-07-25T08:35:54Z</time>
      </trkpt>
      <trkpt lat="44.44046" lon="6.64259">
        <ele>2664.9116211</ele>
        <time>2010-07-25T08:36:02Z</time>
      </trkpt>
      <trkpt lat="44.44046" lon="6.64257">
        <ele>2665.8730469</ele>
        <time>2010-07-25T08:36:06Z</time>
      </trkpt>
      <trkpt lat="44.44039" lon="6.64246">
        <ele>2666.3535156</ele>
        <time>2010-07-25T08:36:13Z</time>
      </trkpt>
      <trkpt lat="44.44032" lon="6.64232">
        <ele>2668.2763672</ele>
        <time>2010-07-25T08:36:20Z</time>
      </trkpt>
      <trkpt lat="44.44026" lon="6.64218">
        <ele>2668.7568359</ele>
        <time>2010-07-25T08:36:27Z</time>
      </trkpt>
      <trkpt lat="44.44025" lon="6.64213">
        <ele>2669.7182617</ele>
        <time>2010-07-25T08:36:31Z</time>
      </trkpt>
      <trkpt lat="44.44026" lon="6.64213">
        <ele>2665.8730469</ele>
        <time>2010-07-25T08:37:14Z</time>
      </trkpt>
      <trkpt lat="44.44024" lon="6.6421">
        <ele>2668.2763672</ele>
        <time>2010-07-25T08:37:28Z</time>
      </trkpt>
      <trkpt lat="44.44022" lon="6.64201">
        <ele>2669.237793</ele>
        <time>2010-07-25T08:37:35Z</time>
      </trkpt>
      <trkpt lat="44.4402" lon="6.64196">
        <ele>2667.3149414</ele>
        <time>2010-07-25T08:37:42Z</time>
      </trkpt>
      <trkpt lat="44.44017" lon="6.64181">
        <ele>2666.3535156</ele>
        <time>2010-07-25T08:37:48Z</time>
      </trkpt>
      <trkpt lat="44.44012" lon="6.64167">
        <ele>2667.7958984</ele>
        <time>2010-07-25T08:37:53Z</time>
      </trkpt>
      <trkpt lat="44.44008" lon="6.64148">
        <ele>2668.7568359</ele>
        <time>2010-07-25T08:38:00Z</time>
      </trkpt>
      <trkpt lat="44.44007" lon="6.64147">
        <ele>2668.7568359</ele>
        <time>2010-07-25T08:38:04Z</time>
      </trkpt>
      <trkpt lat="44.44007" lon="6.64148">
        <ele>2668.2763672</ele>
        <time>2010-07-25T08:38:27Z</time>
      </trkpt>
      <trkpt lat="44.44008" lon="6.64149">
        <ele>2670.6796875</ele>
        <time>2010-07-25T08:39:04Z</time>
      </trkpt>
      <trkpt lat="44.44008" lon="6.64149">
        <ele>2669.7182617</ele>
        <time>2010-07-25T08:39:51Z</time>
      </trkpt>
      <trkpt lat="44.44003" lon="6.64147">
        <ele>2669.7182617</ele>
        <time>2010-07-25T08:40:51Z</time>
      </trkpt>
      <trkpt lat="44.4401" lon="6.6415">
        <ele>2656.7407227</ele>
        <time>2010-07-25T08:49:21Z</time>
      </trkpt>
      <trkpt lat="44.44012" lon="6.64166">
        <ele>2657.7021484</ele>
        <time>2010-07-25T08:49:27Z</time>
      </trkpt>
      <trkpt lat="44.44016" lon="6.64182">
        <ele>2659.144043</ele>
        <time>2010-07-25T08:49:31Z</time>
      </trkpt>
      <trkpt lat="44.44021" lon="6.64195">
        <ele>2660.5859375</ele>
        <time>2010-07-25T08:49:36Z</time>
      </trkpt>
      <trkpt lat="44.44022" lon="6.64198">
        <ele>2660.5859375</ele>
        <time>2010-07-25T08:49:37Z</time>
      </trkpt>
      <trkpt lat="44.44025" lon="6.64215">
        <ele>2656.7407227</ele>
        <time>2010-07-25T08:49:43Z</time>
      </trkpt>
      <trkpt lat="44.44025" lon="6.64216">
        <ele>2655.2988281</ele>
        <time>2010-07-25T08:49:47Z</time>
      </trkpt>
      <trkpt lat="44.44022" lon="6.64216">
        <ele>2657.2211914</ele>
        <time>2010-07-25T08:50:53Z</time>
      </trkpt>
      <trkpt lat="44.44022" lon="6.64216">
        <ele>2658.1826172</ele>
        <time>2010-07-25T08:50:56Z</time>
      </trkpt>
      <trkpt lat="44.44026" lon="6.64229">
        <ele>2658.1826172</ele>
        <time>2010-07-25T08:51:02Z</time>
      </trkpt>
      <trkpt lat="44.44037" lon="6.64248">
        <ele>2662.027832</ele>
        <time>2010-07-25T08:51:08Z</time>
      </trkpt>
      <trkpt lat="44.4404" lon="6.64251">
        <ele>2662.027832</ele>
        <time>2010-07-25T08:51:09Z</time>
      </trkpt>
      <trkpt lat="44.44056" lon="6.64259">
        <ele>2658.6630859</ele>
        <time>2010-07-25T08:51:14Z</time>
      </trkpt>
      <trkpt lat="44.44061" lon="6.64256">
        <ele>2657.2211914</ele>
        <time>2010-07-25T08:51:18Z</time>
      </trkpt>
      <trkpt lat="44.44069" lon="6.64242">
        <ele>2652.8955078</ele>
        <time>2010-07-25T08:51:25Z</time>
      </trkpt>
      <trkpt lat="44.44074" lon="6.64235">
        <ele>2648.0888672</ele>
        <time>2010-07-25T08:51:30Z</time>
      </trkpt>
      <trkpt lat="44.44072" lon="6.64234">
        <ele>2654.3374023</ele>
        <time>2010-07-25T08:51:35Z</time>
      </trkpt>
      <trkpt lat="44.4407" lon="6.64234">
        <ele>2662.5087891</ele>
        <time>2010-07-25T08:51:43Z</time>
      </trkpt>
      <trkpt lat="44.44068" lon="6.64232">
        <ele>2666.8344727</ele>
        <time>2010-07-25T08:51:52Z</time>
      </trkpt>
      <trkpt lat="44.44066" lon="6.64231">
        <ele>2670.6796875</ele>
        <time>2010-07-25T08:51:58Z</time>
      </trkpt>
      <trkpt lat="44.44065" lon="6.64231">
        <ele>2673.5634766</ele>
        <time>2010-07-25T08:52:04Z</time>
      </trkpt>
      <trkpt lat="44.44067" lon="6.64237">
        <ele>2673.5634766</ele>
        <time>2010-07-25T08:52:12Z</time>
      </trkpt>
      <trkpt lat="44.44068" lon="6.64241">
        <ele>2675.4863281</ele>
        <time>2010-07-25T08:52:17Z</time>
      </trkpt>
      <trkpt lat="44.44069" lon="6.64246">
        <ele>2675.9667969</ele>
        <time>2010-07-25T08:52:21Z</time>
      </trkpt>
      <trkpt lat="44.44072" lon="6.64242">
        <ele>2668.2763672</ele>
        <time>2010-07-25T08:52:27Z</time>
      </trkpt>
      <trkpt lat="44.44074" lon="6.64238">
        <ele>2649.050293</ele>
        <time>2010-07-25T08:52:33Z</time>
      </trkpt>
      <trkpt lat="44.44076" lon="6.64236">
        <ele>2636.5527344</ele>
        <time>2010-07-25T08:52:38Z</time>
      </trkpt>
      <trkpt lat="44.44076" lon="6.64238">
        <ele>2632.2270508</ele>
        <time>2010-07-25T08:52:44Z</time>
      </trkpt>
      <trkpt lat="44.44078" lon="6.6424">
        <ele>2630.3041992</ele>
        <time>2010-07-25T08:52:53Z</time>
      </trkpt>
      <trkpt lat="44.4408" lon="6.64242">
        <ele>2630.7851562</ele>
        <time>2010-07-25T08:52:59Z</time>
      </trkpt>
      <trkpt lat="44.44076" lon="6.64243">
        <ele>2629.8237305</ele>
        <time>2010-07-25T08:53:05Z</time>
      </trkpt>
      <trkpt lat="44.44075" lon="6.64243">
        <ele>2630.7851562</ele>
        <time>2010-07-25T08:53:09Z</time>
      </trkpt>
      <trkpt lat="44.44086" lon="6.64228">
        <ele>2629.3432617</ele>
        <time>2010-07-25T08:53:15Z</time>
      </trkpt>
      <trkpt lat="44.44101" lon="6.64207">
        <ele>2626.4589844</ele>
        <time>2010-07-25T08:53:23Z</time>
      </trkpt>
      <trkpt lat="44.44111" lon="6.64201">
        <ele>2625.0170898</ele>
        <time>2010-07-25T08:53:26Z</time>
      </trkpt>
      <trkpt lat="44.4413" lon="6.64186">
        <ele>2625.0170898</ele>
        <time>2010-07-25T08:53:31Z</time>
      </trkpt>
      <trkpt lat="44.44131" lon="6.64184">
        <ele>2624.0561523</ele>
        <time>2010-07-25T08:53:35Z</time>
      </trkpt>
      <trkpt lat="44.44128" lon="6.64183">
        <ele>2620.6914062</ele>
        <time>2010-07-25T08:54:30Z</time>
      </trkpt>
      <trkpt lat="44.4413" lon="6.6419">
        <ele>2618.7685547</ele>
        <time>2010-07-25T08:54:35Z</time>
      </trkpt>
      <trkpt lat="44.44133" lon="6.6419">
        <ele>2618.2880859</ele>
        <time>2010-07-25T08:54:36Z</time>
      </trkpt>
      <trkpt lat="44.44153" lon="6.6419">
        <ele>2609.6357422</ele>
        <time>2010-07-25T08:54:44Z</time>
      </trkpt>
      <trkpt lat="44.44167" lon="6.64191">
        <ele>2608.1938477</ele>
        <time>2010-07-25T08:54:48Z</time>
      </trkpt>
      <trkpt lat="44.44179" lon="6.64202">
        <ele>2605.3100586</ele>
        <time>2010-07-25T08:54:52Z</time>
      </trkpt>
      <trkpt lat="44.44197" lon="6.64213">
        <ele>2601.4648438</ele>
        <time>2010-07-25T08:54:57Z</time>
      </trkpt>
      <trkpt lat="44.44209" lon="6.64219">
        <ele>2599.5419922</ele>
        <time>2010-07-25T08:55:01Z</time>
      </trkpt>
      <trkpt lat="44.44222" lon="6.64237">
        <ele>2598.5810547</ele>
        <time>2010-07-25T08:55:08Z</time>
      </trkpt>
      <trkpt lat="44.44223" lon="6.64236">
        <ele>2598.1000977</ele>
        <time>2010-07-25T08:55:12Z</time>
      </trkpt>
      <trkpt lat="44.44222" lon="6.64236">
        <ele>2598.1000977</ele>
        <time>2010-07-25T08:55:16Z</time>
      </trkpt>
      <trkpt lat="44.44231" lon="6.64233">
        <ele>2596.6582031</ele>
        <time>2010-07-25T08:55:22Z</time>
      </trkpt>
      <trkpt lat="44.44233" lon="6.6423">
        <ele>2600.984375</ele>
        <time>2010-07-25T08:55:27Z</time>
      </trkpt>
      <trkpt lat="44.44234" lon="6.64231">
        <ele>2602.9067383</ele>
        <time>2010-07-25T08:55:34Z</time>
      </trkpt>
      <trkpt lat="44.44235" lon="6.64232">
        <ele>2601.9453125</ele>
        <time>2010-07-25T08:55:42Z</time>
      </trkpt>
      <trkpt lat="44.44241" lon="6.64233">
        <ele>2599.0615234</ele>
        <time>2010-07-25T08:55:48Z</time>
      </trkpt>
      <trkpt lat="44.44254" lon="6.64234">
        <ele>2593.7744141</ele>
        <time>2010-07-25T08:55:53Z</time>
      </trkpt>
      <trkpt lat="44.44255" lon="6.64235">
        <ele>2592.8129883</ele>
        <time>2010-07-25T08:55:54Z</time>
      </trkpt>
      <trkpt lat="44.44263" lon="6.6424">
        <ele>2591.3710938</ele>
        <time>2010-07-25T08:55:58Z</time>
      </trkpt>
      <trkpt lat="44.44277" lon="6.64243">
        <ele>2582.2385254</ele>
        <time>2010-07-25T08:56:03Z</time>
      </trkpt>
      <trkpt lat="44.44285" lon="6.64253">
        <ele>2579.8352051</ele>
        <time>2010-07-25T08:56:06Z</time>
      </trkpt>
      <trkpt lat="44.44295" lon="6.64267">
        <ele>2576.4707031</ele>
        <time>2010-07-25T08:56:10Z</time>
      </trkpt>
      <trkpt lat="44.44296" lon="6.64268">
        <ele>2573.5866699</ele>
        <time>2010-07-25T08:56:15Z</time>
      </trkpt>
      <trkpt lat="44.44302" lon="6.64271">
        <ele>2570.2219238</ele>
        <time>2010-07-25T08:56:24Z</time>
      </trkpt>
      <trkpt lat="44.44317" lon="6.64271">
        <ele>2563.4926758</ele>
        <time>2010-07-25T08:56:29Z</time>
      </trkpt>
      <trkpt lat="44.44333" lon="6.64272">
        <ele>2559.6474609</ele>
        <time>2010-07-25T08:56:34Z</time>
      </trkpt>
      <trkpt lat="44.44342" lon="6.64276">
        <ele>2557.7250977</ele>
        <time>2010-07-25T08:56:38Z</time>
      </trkpt>
      <trkpt lat="44.44358" lon="6.64274">
        <ele>2550.9956055</ele>
        <time>2010-07-25T08:56:44Z</time>
      </trkpt>
      <trkpt lat="44.44378" lon="6.64273">
        <ele>2547.6311035</ele>
        <time>2010-07-25T08:56:49Z</time>
      </trkpt>
      <trkpt lat="44.44381" lon="6.64274">
        <ele>2547.1503906</ele>
        <time>2010-07-25T08:56:50Z</time>
      </trkpt>
      <trkpt lat="44.44391" lon="6.64288">
        <ele>2545.7084961</ele>
        <time>2010-07-25T08:56:56Z</time>
      </trkpt>
      <trkpt lat="44.444" lon="6.64294">
        <ele>2544.2663574</ele>
        <time>2010-07-25T08:56:59Z</time>
      </trkpt>
      <trkpt lat="44.44423" lon="6.64305">
        <ele>2541.3825684</ele>
        <time>2010-07-25T08:57:04Z</time>
      </trkpt>
      <trkpt lat="44.44441" lon="6.64314">
        <ele>2537.5371094</ele>
        <time>2010-07-25T08:57:07Z</time>
      </trkpt>
      <trkpt lat="44.44452" lon="6.64315">
        <ele>2536.5756836</ele>
        <time>2010-07-25T08:57:11Z</time>
      </trkpt>
      <trkpt lat="44.44452" lon="6.64317">
        <ele>2538.0178223</ele>
        <time>2010-07-25T08:57:18Z</time>
      </trkpt>
      <trkpt lat="44.44451" lon="6.64316">
        <ele>2540.4211426</ele>
        <time>2010-07-25T08:57:35Z</time>
      </trkpt>
      <trkpt lat="44.44462" lon="6.64329">
        <ele>2540.4211426</ele>
        <time>2010-07-25T08:57:40Z</time>
      </trkpt>
      <trkpt lat="44.4447" lon="6.64334">
        <ele>2540.4211426</ele>
        <time>2010-07-25T08:57:42Z</time>
      </trkpt>
      <trkpt lat="44.44487" lon="6.64342">
        <ele>2537.0563965</ele>
        <time>2010-07-25T08:57:45Z</time>
      </trkpt>
      <trkpt lat="44.44508" lon="6.64365">
        <ele>2535.1337891</ele>
        <time>2010-07-25T08:57:49Z</time>
      </trkpt>
      <trkpt lat="44.44518" lon="6.64378">
        <ele>2534.1726074</ele>
        <time>2010-07-25T08:57:51Z</time>
      </trkpt>
      <trkpt lat="44.44526" lon="6.64391">
        <ele>2533.6918945</ele>
        <time>2010-07-25T08:57:53Z</time>
      </trkpt>
      <trkpt lat="44.44532" lon="6.64416">
        <ele>2533.6918945</ele>
        <time>2010-07-25T08:57:57Z</time>
      </trkpt>
      <trkpt lat="44.44543" lon="6.6443">
        <ele>2528.8852539</ele>
        <time>2010-07-25T08:58:01Z</time>
      </trkpt>
      <trkpt lat="44.44545" lon="6.64431">
        <ele>2525.0400391</ele>
        <time>2010-07-25T08:58:07Z</time>
      </trkpt>
      <trkpt lat="44.44541" lon="6.64432">
        <ele>2528.8852539</ele>
        <time>2010-07-25T08:59:06Z</time>
      </trkpt>
      <trkpt lat="44.44538" lon="6.64437">
        <ele>2527.9240723</ele>
        <time>2010-07-25T08:59:10Z</time>
      </trkpt>
      <trkpt lat="44.44533" lon="6.64457">
        <ele>2526.4821777</ele>
        <time>2010-07-25T08:59:16Z</time>
      </trkpt>
      <trkpt lat="44.44534" lon="6.64484">
        <ele>2528.8852539</ele>
        <time>2010-07-25T08:59:22Z</time>
      </trkpt>
      <trkpt lat="44.44539" lon="6.64513">
        <ele>2528.8852539</ele>
        <time>2010-07-25T08:59:29Z</time>
      </trkpt>
      <trkpt lat="44.4454" lon="6.64528">
        <ele>2529.8466797</ele>
        <time>2010-07-25T08:59:34Z</time>
      </trkpt>
      <trkpt lat="44.44537" lon="6.6454">
        <ele>2527.9240723</ele>
        <time>2010-07-25T08:59:41Z</time>
      </trkpt>
      <trkpt lat="44.44535" lon="6.64544">
        <ele>2528.8852539</ele>
        <time>2010-07-25T08:59:48Z</time>
      </trkpt>
      <trkpt lat="44.44535" lon="6.64556">
        <ele>2528.4047852</ele>
        <time>2010-07-25T08:59:56Z</time>
      </trkpt>
      <trkpt lat="44.44535" lon="6.64564">
        <ele>2528.8852539</ele>
        <time>2010-07-25T09:00:03Z</time>
      </trkpt>
      <trkpt lat="44.44537" lon="6.64571">
        <ele>2527.9240723</ele>
        <time>2010-07-25T09:00:12Z</time>
      </trkpt>
      <trkpt lat="44.44539" lon="6.64589">
        <ele>2529.8466797</ele>
        <time>2010-07-25T09:00:20Z</time>
      </trkpt>
      <trkpt lat="44.44539" lon="6.64593">
        <ele>2532.25</ele>
        <time>2010-07-25T09:00:27Z</time>
      </trkpt>
      <trkpt lat="44.44541" lon="6.64605">
        <ele>2531.2885742</ele>
        <time>2010-07-25T09:00:33Z</time>
      </trkpt>
      <trkpt lat="44.44541" lon="6.64622">
        <ele>2533.6918945</ele>
        <time>2010-07-25T09:00:40Z</time>
      </trkpt>
      <trkpt lat="44.44541" lon="6.64628">
        <ele>2535.614502</ele>
        <time>2010-07-25T09:00:45Z</time>
      </trkpt>
      <trkpt lat="44.4454" lon="6.64632">
        <ele>2536.0952148</ele>
        <time>2010-07-25T09:00:50Z</time>
      </trkpt>
      <trkpt lat="44.4454" lon="6.64637">
        <ele>2536.0952148</ele>
        <time>2010-07-25T09:00:55Z</time>
      </trkpt>
      <trkpt lat="44.44542" lon="6.64645">
        <ele>2536.5756836</ele>
        <time>2010-07-25T09:01:02Z</time>
      </trkpt>
      <trkpt lat="44.44543" lon="6.64652">
        <ele>2537.5371094</ele>
        <time>2010-07-25T09:01:09Z</time>
      </trkpt>
      <trkpt lat="44.44543" lon="6.64653">
        <ele>2538.4985352</ele>
        <time>2010-07-25T09:01:17Z</time>
      </trkpt>
      <trkpt lat="44.44545" lon="6.6466">
        <ele>2536.5756836</ele>
        <time>2010-07-25T09:01:27Z</time>
      </trkpt>
      <trkpt lat="44.44545" lon="6.64664">
        <ele>2537.5371094</ele>
        <time>2010-07-25T09:01:32Z</time>
      </trkpt>
      <trkpt lat="44.44547" lon="6.64679">
        <ele>2538.9790039</ele>
        <time>2010-07-25T09:01:39Z</time>
      </trkpt>
      <trkpt lat="44.44551" lon="6.64694">
        <ele>2538.9790039</ele>
        <time>2010-07-25T09:01:46Z</time>
      </trkpt>
      <trkpt lat="44.44554" lon="6.64707">
        <ele>2542.8244629</ele>
        <time>2010-07-25T09:01:52Z</time>
      </trkpt>
      <trkpt lat="44.44556" lon="6.64721">
        <ele>2543.7858887</ele>
        <time>2010-07-25T09:01:59Z</time>
      </trkpt>
      <trkpt lat="44.44557" lon="6.64737">
        <ele>2541.3825684</ele>
        <time>2010-07-25T09:02:06Z</time>
      </trkpt>
      <trkpt lat="44.44558" lon="6.64738">
        <ele>2540.4211426</ele>
        <time>2010-07-25T09:02:10Z</time>
      </trkpt>
      <trkpt lat="44.44557" lon="6.64746">
        <ele>2540.4211426</ele>
        <time>2010-07-25T09:02:44Z</time>
      </trkpt>
      <trkpt lat="44.44557" lon="6.64754">
        <ele>2542.3439941</ele>
        <time>2010-07-25T09:02:51Z</time>
      </trkpt>
      <trkpt lat="44.44556" lon="6.6476">
        <ele>2544.2663574</ele>
        <time>2010-07-25T09:02:57Z</time>
      </trkpt>
      <trkpt lat="44.44555" lon="6.6476">
        <ele>2544.2663574</ele>
        <time>2010-07-25T09:02:58Z</time>
      </trkpt>
      <trkpt lat="44.4455" lon="6.6477">
        <ele>2547.1503906</ele>
        <time>2010-07-25T09:03:08Z</time>
      </trkpt>
      <trkpt lat="44.44544" lon="6.64777">
        <ele>2548.5922852</ele>
        <time>2010-07-25T09:03:15Z</time>
      </trkpt>
      <trkpt lat="44.44543" lon="6.64784">
        <ele>2548.5922852</ele>
        <time>2010-07-25T09:03:22Z</time>
      </trkpt>
      <trkpt lat="44.44543" lon="6.64784">
        <ele>2548.5922852</ele>
        <time>2010-07-25T09:03:27Z</time>
      </trkpt>
      <trkpt lat="44.44534" lon="6.64792">
        <ele>2550.0344238</ele>
        <time>2010-07-25T09:03:35Z</time>
      </trkpt>
      <trkpt lat="44.44532" lon="6.64795">
        <ele>2548.1115723</ele>
        <time>2010-07-25T09:03:44Z</time>
      </trkpt>
      <trkpt lat="44.44533" lon="6.64794">
        <ele>2546.189209</ele>
        <time>2010-07-25T09:03:52Z</time>
      </trkpt>
      <trkpt lat="44.44533" lon="6.64793">
        <ele>2545.7084961</ele>
        <time>2010-07-25T09:04:13Z</time>
      </trkpt>
      <trkpt lat="44.44525" lon="6.64796">
        <ele>2547.1503906</ele>
        <time>2010-07-25T09:04:22Z</time>
      </trkpt>
      <trkpt lat="44.44517" lon="6.64802">
        <ele>2549.5537109</ele>
        <time>2010-07-25T09:04:31Z</time>
      </trkpt>
      <trkpt lat="44.4451" lon="6.64812">
        <ele>2551.9567871</ele>
        <time>2010-07-25T09:04:41Z</time>
      </trkpt>
      <trkpt lat="44.44505" lon="6.64819">
        <ele>2553.8796387</ele>
        <time>2010-07-25T09:04:50Z</time>
      </trkpt>
      <trkpt lat="44.44499" lon="6.64827">
        <ele>2555.802002</ele>
        <time>2010-07-25T09:05:00Z</time>
      </trkpt>
      <trkpt lat="44.44494" lon="6.6483">
        <ele>2558.6862793</ele>
        <time>2010-07-25T09:05:08Z</time>
      </trkpt>
      <trkpt lat="44.44491" lon="6.64833">
        <ele>2562.0507812</ele>
        <time>2010-07-25T09:05:17Z</time>
      </trkpt>
      <trkpt lat="44.44488" lon="6.64835">
        <ele>2564.9348145</ele>
        <time>2010-07-25T09:05:23Z</time>
      </trkpt>
      <trkpt lat="44.44484" lon="6.64839">
        <ele>2565.4155273</ele>
        <time>2010-07-25T09:05:33Z</time>
      </trkpt>
      <trkpt lat="44.4448" lon="6.64844">
        <ele>2566.8574219</ele>
        <time>2010-07-25T09:05:42Z</time>
      </trkpt>
      <trkpt lat="44.44477" lon="6.64849">
        <ele>2569.2607422</ele>
        <time>2010-07-25T09:05:51Z</time>
      </trkpt>
      <trkpt lat="44.44474" lon="6.64851">
        <ele>2571.1831055</ele>
        <time>2010-07-25T09:05:58Z</time>
      </trkpt>
      <trkpt lat="44.44471" lon="6.64853">
        <ele>2574.0673828</ele>
        <time>2010-07-25T09:06:06Z</time>
      </trkpt>
      <trkpt lat="44.44468" lon="6.64858">
        <ele>2575.5092773</ele>
        <time>2010-07-25T09:06:14Z</time>
      </trkpt>
      <trkpt lat="44.44467" lon="6.6486">
        <ele>2577.4318848</ele>
        <time>2010-07-25T09:06:22Z</time>
      </trkpt>
      <trkpt lat="44.44464" lon="6.64864">
        <ele>2578.3933105</ele>
        <time>2010-07-25T09:06:29Z</time>
      </trkpt>
      <trkpt lat="44.44459" lon="6.64871">
        <ele>2578.8737793</ele>
        <time>2010-07-25T09:06:38Z</time>
      </trkpt>
      <trkpt lat="44.44454" lon="6.64877">
        <ele>2579.8352051</ele>
        <time>2010-07-25T09:06:46Z</time>
      </trkpt>
      <trkpt lat="44.44453" lon="6.64878">
        <ele>2580.315918</ele>
        <time>2010-07-25T09:06:48Z</time>
      </trkpt>
      <trkpt lat="44.44445" lon="6.64883">
        <ele>2581.7578125</ele>
        <time>2010-07-25T09:06:59Z</time>
      </trkpt>
      <trkpt lat="44.44438" lon="6.64886">
        <ele>2582.7189941</ele>
        <time>2010-07-25T09:07:07Z</time>
      </trkpt>
      <trkpt lat="44.44432" lon="6.64889">
        <ele>2584.1611328</ele>
        <time>2010-07-25T09:07:15Z</time>
      </trkpt>
      <trkpt lat="44.44426" lon="6.64894">
        <ele>2585.6030273</ele>
        <time>2010-07-25T09:07:24Z</time>
      </trkpt>
      <trkpt lat="44.44421" lon="6.64896">
        <ele>2587.5256348</ele>
        <time>2010-07-25T09:07:32Z</time>
      </trkpt>
      <trkpt lat="44.44418" lon="6.64899">
        <ele>2588.4873047</ele>
        <time>2010-07-25T09:07:39Z</time>
      </trkpt>
      <trkpt lat="44.44414" lon="6.64901">
        <ele>2589.4484863</ele>
        <time>2010-07-25T09:07:46Z</time>
      </trkpt>
      <trkpt lat="44.4441" lon="6.64903">
        <ele>2590.8903809</ele>
        <time>2010-07-25T09:07:53Z</time>
      </trkpt>
      <trkpt lat="44.44406" lon="6.64908">
        <ele>2592.3325195</ele>
        <time>2010-07-25T09:08:01Z</time>
      </trkpt>
      <trkpt lat="44.44399" lon="6.64912">
        <ele>2592.8129883</ele>
        <time>2010-07-25T09:08:09Z</time>
      </trkpt>
      <trkpt lat="44.44394" lon="6.64915">
        <ele>2594.2548828</ele>
        <time>2010-07-25T09:08:18Z</time>
      </trkpt>
      <trkpt lat="44.44389" lon="6.64916">
        <ele>2596.1777344</ele>
        <time>2010-07-25T09:08:27Z</time>
      </trkpt>
      <trkpt lat="44.44384" lon="6.64921">
        <ele>2595.6970215</ele>
        <time>2010-07-25T09:08:36Z</time>
      </trkpt>
      <trkpt lat="44.4438" lon="6.64923">
        <ele>2593.2937012</ele>
        <time>2010-07-25T09:08:43Z</time>
      </trkpt>
      <trkpt lat="44.44379" lon="6.64925">
        <ele>2591.8518066</ele>
        <time>2010-07-25T09:08:48Z</time>
      </trkpt>
      <trkpt lat="44.44373" lon="6.64929">
        <ele>2590.8903809</ele>
        <time>2010-07-25T09:08:57Z</time>
      </trkpt>
      <trkpt lat="44.44373" lon="6.6493">
        <ele>2588.9677734</ele>
        <time>2010-07-25T09:09:04Z</time>
      </trkpt>
      <trkpt lat="44.44371" lon="6.64931">
        <ele>2588.0065918</ele>
        <time>2010-07-25T09:09:12Z</time>
      </trkpt>
      <trkpt lat="44.44372" lon="6.64934">
        <ele>2582.7189941</ele>
        <time>2010-07-25T09:09:25Z</time>
      </trkpt>
      <trkpt lat="44.44367" lon="6.64937">
        <ele>2581.2770996</ele>
        <time>2010-07-25T09:09:29Z</time>
      </trkpt>
      <trkpt lat="44.44344" lon="6.64946">
        <ele>2578.3933105</ele>
        <time>2010-07-25T09:09:37Z</time>
      </trkpt>
      <trkpt lat="44.44326" lon="6.64959">
        <ele>2579.3544922</ele>
        <time>2010-07-25T09:09:44Z</time>
      </trkpt>
      <trkpt lat="44.44323" lon="6.64961">
        <ele>2580.7966309</ele>
        <time>2010-07-25T09:09:49Z</time>
      </trkpt>
      <trkpt lat="44.4432" lon="6.64961">
        <ele>2584.6418457</ele>
        <time>2010-07-25T09:10:03Z</time>
      </trkpt>
      <trkpt lat="44.44319" lon="6.6496">
        <ele>2588.0065918</ele>
        <time>2010-07-25T09:10:07Z</time>
      </trkpt>
      <trkpt lat="44.4431" lon="6.64961">
        <ele>2591.3710938</ele>
        <time>2010-07-25T09:10:16Z</time>
      </trkpt>
      <trkpt lat="44.44302" lon="6.64961">
        <ele>2593.7744141</ele>
        <time>2010-07-25T09:10:27Z</time>
      </trkpt>
      <trkpt lat="44.44294" lon="6.64961">
        <ele>2596.1777344</ele>
        <time>2010-07-25T09:10:37Z</time>
      </trkpt>
      <trkpt lat="44.44288" lon="6.64964">
        <ele>2597.1386719</ele>
        <time>2010-07-25T09:10:46Z</time>
      </trkpt>
      <trkpt lat="44.44283" lon="6.64966">
        <ele>2599.5419922</ele>
        <time>2010-07-25T09:10:55Z</time>
      </trkpt>
      <trkpt lat="44.44279" lon="6.64967">
        <ele>2603.387207</ele>
        <time>2010-07-25T09:11:05Z</time>
      </trkpt>
      <trkpt lat="44.44277" lon="6.64968">
        <ele>2606.2714844</ele>
        <time>2010-07-25T09:11:13Z</time>
      </trkpt>
      <trkpt lat="44.44274" lon="6.64967">
        <ele>2608.1938477</ele>
        <time>2010-07-25T09:11:20Z</time>
      </trkpt>
      <trkpt lat="44.44272" lon="6.64967">
        <ele>2609.6357422</ele>
        <time>2010-07-25T09:11:26Z</time>
      </trkpt>
      <trkpt lat="44.44268" lon="6.6497">
        <ele>2611.5585938</ele>
        <time>2010-07-25T09:11:34Z</time>
      </trkpt>
      <trkpt lat="44.44264" lon="6.64971">
        <ele>2611.0776367</ele>
        <time>2010-07-25T09:11:42Z</time>
      </trkpt>
      <trkpt lat="44.44261" lon="6.64965">
        <ele>2618.7685547</ele>
        <time>2010-07-25T09:11:58Z</time>
      </trkpt>
      <trkpt lat="44.44261" lon="6.64967">
        <ele>2616.8461914</ele>
        <time>2010-07-25T09:12:06Z</time>
      </trkpt>
      <trkpt lat="44.44251" lon="6.64974">
        <ele>2612.0395508</ele>
        <time>2010-07-25T09:12:13Z</time>
      </trkpt>
      <trkpt lat="44.44243" lon="6.64979">
        <ele>2611.0776367</ele>
        <time>2010-07-25T09:12:19Z</time>
      </trkpt>
      <trkpt lat="44.44231" lon="6.64995">
        <ele>2612.0395508</ele>
        <time>2010-07-25T09:12:29Z</time>
      </trkpt>
      <trkpt lat="44.44226" lon="6.65009">
        <ele>2616.3657227</ele>
        <time>2010-07-25T09:12:36Z</time>
      </trkpt>
      <trkpt lat="44.44222" lon="6.65013">
        <ele>2618.2880859</ele>
        <time>2010-07-25T09:12:41Z</time>
      </trkpt>
      <trkpt lat="44.44221" lon="6.65013">
        <ele>2618.7685547</ele>
        <time>2010-07-25T09:12:47Z</time>
      </trkpt>
      <trkpt lat="44.44219" lon="6.65016">
        <ele>2620.6914062</ele>
        <time>2010-07-25T09:12:57Z</time>
      </trkpt>
      <trkpt lat="44.44212" lon="6.65021">
        <ele>2620.2104492</ele>
        <time>2010-07-25T09:13:06Z</time>
      </trkpt>
      <trkpt lat="44.44207" lon="6.65025">
        <ele>2622.1333008</ele>
        <time>2010-07-25T09:13:17Z</time>
      </trkpt>
      <trkpt lat="44.44202" lon="6.65031">
        <ele>2622.1333008</ele>
        <time>2010-07-25T09:13:26Z</time>
      </trkpt>
      <trkpt lat="44.44199" lon="6.65034">
        <ele>2623.0947266</ele>
        <time>2010-07-25T09:13:34Z</time>
      </trkpt>
      <trkpt lat="44.44198" lon="6.65036">
        <ele>2624.0561523</ele>
        <time>2010-07-25T09:13:43Z</time>
      </trkpt>
      <trkpt lat="44.44192" lon="6.65045">
        <ele>2625.4980469</ele>
        <time>2010-07-25T09:13:53Z</time>
      </trkpt>
      <trkpt lat="44.4419" lon="6.65049">
        <ele>2626.4589844</ele>
        <time>2010-07-25T09:14:01Z</time>
      </trkpt>
      <trkpt lat="44.44188" lon="6.65056">
        <ele>2627.9008789</ele>
        <time>2010-07-25T09:14:07Z</time>
      </trkpt>
      <trkpt lat="44.44181" lon="6.65069">
        <ele>2628.8623047</ele>
        <time>2010-07-25T09:14:16Z</time>
      </trkpt>
      <trkpt lat="44.44176" lon="6.65078">
        <ele>2629.8237305</ele>
        <time>2010-07-25T09:14:23Z</time>
      </trkpt>
      <trkpt lat="44.44171" lon="6.65093">
        <ele>2632.2270508</ele>
        <time>2010-07-25T09:14:29Z</time>
      </trkpt>
      <trkpt lat="44.44171" lon="6.65094">
        <ele>2632.7075195</ele>
        <time>2010-07-25T09:14:30Z</time>
      </trkpt>
      <trkpt lat="44.44167" lon="6.65102">
        <ele>2634.1494141</ele>
        <time>2010-07-25T09:14:34Z</time>
      </trkpt>
      <trkpt lat="44.44161" lon="6.6512">
        <ele>2636.0722656</ele>
        <time>2010-07-25T09:14:39Z</time>
      </trkpt>
      <trkpt lat="44.44154" lon="6.65128">
        <ele>2637.5141602</ele>
        <time>2010-07-25T09:14:45Z</time>
      </trkpt>
      <trkpt lat="44.44143" lon="6.6514">
        <ele>2637.9946289</ele>
        <time>2010-07-25T09:14:50Z</time>
      </trkpt>
      <trkpt lat="44.44141" lon="6.65142">
        <ele>2641.359375</ele>
        <time>2010-07-25T09:14:54Z</time>
      </trkpt>
      <trkpt lat="44.4414" lon="6.65144">
        <ele>2643.7626953</ele>
        <time>2010-07-25T09:15:02Z</time>
      </trkpt>
      <trkpt lat="44.44139" lon="6.65148">
        <ele>2641.359375</ele>
        <time>2010-07-25T09:15:13Z</time>
      </trkpt>
      <trkpt lat="44.44137" lon="6.65152">
        <ele>2639.9174805</ele>
        <time>2010-07-25T09:15:23Z</time>
      </trkpt>
      <trkpt lat="44.44132" lon="6.65162">
        <ele>2641.359375</ele>
        <time>2010-07-25T09:15:32Z</time>
      </trkpt>
      <trkpt lat="44.44133" lon="6.65163">
        <ele>2642.3208008</ele>
        <time>2010-07-25T09:15:38Z</time>
      </trkpt>
      <trkpt lat="44.44123" lon="6.65172">
        <ele>2641.8398438</ele>
        <time>2010-07-25T09:15:45Z</time>
      </trkpt>
      <trkpt lat="44.44112" lon="6.65185">
        <ele>2641.8398438</ele>
        <time>2010-07-25T09:15:51Z</time>
      </trkpt>
      <trkpt lat="44.44102" lon="6.65195">
        <ele>2642.8012695</ele>
        <time>2010-07-25T09:15:58Z</time>
      </trkpt>
      <trkpt lat="44.44097" lon="6.65208">
        <ele>2643.2817383</ele>
        <time>2010-07-25T09:16:06Z</time>
      </trkpt>
      <trkpt lat="44.44096" lon="6.6521">
        <ele>2644.2436523</ele>
        <time>2010-07-25T09:16:13Z</time>
      </trkpt>
      <trkpt lat="44.44096" lon="6.65211">
        <ele>2643.2817383</ele>
        <time>2010-07-25T09:16:31Z</time>
      </trkpt>
      <trkpt lat="44.44094" lon="6.65214">
        <ele>2645.6855469</ele>
        <time>2010-07-25T09:16:41Z</time>
      </trkpt>
      <trkpt lat="44.44092" lon="6.65224">
        <ele>2646.6469727</ele>
        <time>2010-07-25T09:16:49Z</time>
      </trkpt>
      <trkpt lat="44.44089" lon="6.65227">
        <ele>2648.0888672</ele>
        <time>2010-07-25T09:16:56Z</time>
      </trkpt>
      <trkpt lat="44.44086" lon="6.65231">
        <ele>2650.0117188</ele>
        <time>2010-07-25T09:17:02Z</time>
      </trkpt>
      <trkpt lat="44.44082" lon="6.65231">
        <ele>2650.9726562</ele>
        <time>2010-07-25T09:17:09Z</time>
      </trkpt>
      <trkpt lat="44.44081" lon="6.65236">
        <ele>2652.4150391</ele>
        <time>2010-07-25T09:17:16Z</time>
      </trkpt>
      <trkpt lat="44.44078" lon="6.65235">
        <ele>2654.3374023</ele>
        <time>2010-07-25T09:17:23Z</time>
      </trkpt>
      <trkpt lat="44.44075" lon="6.65239">
        <ele>2655.7792969</ele>
        <time>2010-07-25T09:17:30Z</time>
      </trkpt>
      <trkpt lat="44.44075" lon="6.65242">
        <ele>2657.7021484</ele>
        <time>2010-07-25T09:17:37Z</time>
      </trkpt>
      <trkpt lat="44.44074" lon="6.65247">
        <ele>2659.6245117</ele>
        <time>2010-07-25T09:17:44Z</time>
      </trkpt>
      <trkpt lat="44.44072" lon="6.65249">
        <ele>2661.0664062</ele>
        <time>2010-07-25T09:17:51Z</time>
      </trkpt>
      <trkpt lat="44.44071" lon="6.65252">
        <ele>2662.027832</ele>
        <time>2010-07-25T09:17:57Z</time>
      </trkpt>
      <trkpt lat="44.44071" lon="6.6526">
        <ele>2663.9506836</ele>
        <time>2010-07-25T09:18:05Z</time>
      </trkpt>
      <trkpt lat="44.44073" lon="6.65264">
        <ele>2665.3925781</ele>
        <time>2010-07-25T09:18:12Z</time>
      </trkpt>
      <trkpt lat="44.44073" lon="6.65269">
        <ele>2666.8344727</ele>
        <time>2010-07-25T09:18:19Z</time>
      </trkpt>
      <trkpt lat="44.44072" lon="6.65276">
        <ele>2667.7958984</ele>
        <time>2010-07-25T09:18:28Z</time>
      </trkpt>
      <trkpt lat="44.44072" lon="6.65282">
        <ele>2669.237793</ele>
        <time>2010-07-25T09:18:36Z</time>
      </trkpt>
      <trkpt lat="44.44071" lon="6.65284">
        <ele>2670.1992188</ele>
        <time>2010-07-25T09:18:43Z</time>
      </trkpt>
      <trkpt lat="44.44069" lon="6.65289">
        <ele>2671.6411133</ele>
        <time>2010-07-25T09:18:50Z</time>
      </trkpt>
      <trkpt lat="44.44071" lon="6.65297">
        <ele>2673.0830078</ele>
        <time>2010-07-25T09:18:58Z</time>
      </trkpt>
      <trkpt lat="44.4407" lon="6.65304">
        <ele>2675.0053711</ele>
        <time>2010-07-25T09:19:05Z</time>
      </trkpt>
      <trkpt lat="44.44071" lon="6.65311">
        <ele>2678.3706055</ele>
        <time>2010-07-25T09:19:14Z</time>
      </trkpt>
      <trkpt lat="44.44074" lon="6.65316">
        <ele>2679.8125</ele>
        <time>2010-07-25T09:19:22Z</time>
      </trkpt>
      <trkpt lat="44.44075" lon="6.65317">
        <ele>2679.8125</ele>
        <time>2010-07-25T09:19:23Z</time>
      </trkpt>
      <trkpt lat="44.44076" lon="6.65324">
        <ele>2681.2543945</ele>
        <time>2010-07-25T09:19:31Z</time>
      </trkpt>
      <trkpt lat="44.44077" lon="6.65332">
        <ele>2682.2158203</ele>
        <time>2010-07-25T09:19:40Z</time>
      </trkpt>
      <trkpt lat="44.44076" lon="6.65341">
        <ele>2683.6577148</ele>
        <time>2010-07-25T09:19:49Z</time>
      </trkpt>
      <trkpt lat="44.44074" lon="6.65346">
        <ele>2685.0996094</ele>
        <time>2010-07-25T09:19:57Z</time>
      </trkpt>
      <trkpt lat="44.44073" lon="6.65351">
        <ele>2686.5415039</ele>
        <time>2010-07-25T09:20:04Z</time>
      </trkpt>
      <trkpt lat="44.44071" lon="6.65358">
        <ele>2688.4643555</ele>
        <time>2010-07-25T09:20:13Z</time>
      </trkpt>
      <trkpt lat="44.4407" lon="6.65366">
        <ele>2690.3867188</ele>
        <time>2010-07-25T09:20:23Z</time>
      </trkpt>
      <trkpt lat="44.44072" lon="6.65372">
        <ele>2692.7900391</ele>
        <time>2010-07-25T09:20:31Z</time>
      </trkpt>
      <trkpt lat="44.44073" lon="6.65375">
        <ele>2692.7900391</ele>
        <time>2010-07-25T09:20:37Z</time>
      </trkpt>
      <trkpt lat="44.44074" lon="6.6538">
        <ele>2694.2319336</ele>
        <time>2010-07-25T09:20:44Z</time>
      </trkpt>
      <trkpt lat="44.44075" lon="6.65388">
        <ele>2695.6738281</ele>
        <time>2010-07-25T09:20:52Z</time>
      </trkpt>
      <trkpt lat="44.44075" lon="6.65395">
        <ele>2697.5966797</ele>
        <time>2010-07-25T09:21:01Z</time>
      </trkpt>
      <trkpt lat="44.44077" lon="6.65402">
        <ele>2698.5581055</ele>
        <time>2010-07-25T09:21:09Z</time>
      </trkpt>
      <trkpt lat="44.44079" lon="6.65409">
        <ele>2699.519043</ele>
        <time>2010-07-25T09:21:17Z</time>
      </trkpt>
      <trkpt lat="44.44079" lon="6.65415">
        <ele>2701.9223633</ele>
        <time>2010-07-25T09:21:26Z</time>
      </trkpt>
      <trkpt lat="44.44081" lon="6.6542">
        <ele>2703.8452148</ele>
        <time>2010-07-25T09:21:35Z</time>
      </trkpt>
      <trkpt lat="44.44082" lon="6.65424">
        <ele>2705.7675781</ele>
        <time>2010-07-25T09:21:44Z</time>
      </trkpt>
      <trkpt lat="44.44083" lon="6.65429">
        <ele>2707.6904297</ele>
        <time>2010-07-25T09:21:53Z</time>
      </trkpt>
      <trkpt lat="44.44085" lon="6.65432">
        <ele>2708.6523438</ele>
        <time>2010-07-25T09:22:01Z</time>
      </trkpt>
      <trkpt lat="44.44084" lon="6.65435">
        <ele>2703.3642578</ele>
        <time>2010-07-25T09:22:18Z</time>
      </trkpt>
      <trkpt lat="44.44084" lon="6.65431">
        <ele>2704.8061523</ele>
        <time>2010-07-25T09:22:35Z</time>
      </trkpt>
      <trkpt lat="44.44087" lon="6.65432">
        <ele>2704.3256836</ele>
        <time>2010-07-25T09:22:55Z</time>
      </trkpt>
      <trkpt lat="44.44089" lon="6.65435">
        <ele>2705.2871094</ele>
        <time>2010-07-25T09:23:03Z</time>
      </trkpt>
      <trkpt lat="44.4409" lon="6.65438">
        <ele>2706.7290039</ele>
        <time>2010-07-25T09:23:11Z</time>
      </trkpt>
      <trkpt lat="44.44091" lon="6.65438">
        <ele>2706.7290039</ele>
        <time>2010-07-25T09:23:18Z</time>
      </trkpt>
      <trkpt lat="44.44093" lon="6.65439">
        <ele>2706.2485352</ele>
        <time>2010-07-25T09:23:26Z</time>
      </trkpt>
      <trkpt lat="44.44095" lon="6.65441">
        <ele>2706.7290039</ele>
        <time>2010-07-25T09:23:32Z</time>
      </trkpt>
      <trkpt lat="44.44096" lon="6.65442">
        <ele>2706.7290039</ele>
        <time>2010-07-25T09:23:37Z</time>
      </trkpt>
      <trkpt lat="44.44096" lon="6.65443">
        <ele>2707.2094727</ele>
        <time>2010-07-25T09:23:44Z</time>
      </trkpt>
      <trkpt lat="44.44098" lon="6.65447">
        <ele>2707.6904297</ele>
        <time>2010-07-25T09:23:52Z</time>
      </trkpt>
      <trkpt lat="44.44102" lon="6.65451">
        <ele>2707.2094727</ele>
        <time>2010-07-25T09:24:00Z</time>
      </trkpt>
      <trkpt lat="44.44105" lon="6.65453">
        <ele>2705.7675781</ele>
        <time>2010-07-25T09:24:07Z</time>
      </trkpt>
      <trkpt lat="44.44106" lon="6.65459">
        <ele>2706.7290039</ele>
        <time>2010-07-25T09:24:15Z</time>
      </trkpt>
      <trkpt lat="44.4411" lon="6.65465">
        <ele>2707.6904297</ele>
        <time>2010-07-25T09:24:25Z</time>
      </trkpt>
      <trkpt lat="44.4411" lon="6.65466">
        <ele>2707.2094727</ele>
        <time>2010-07-25T09:24:33Z</time>
      </trkpt>
      <trkpt lat="44.44113" lon="6.65469">
        <ele>2707.2094727</ele>
        <time>2010-07-25T09:24:40Z</time>
      </trkpt>
      <trkpt lat="44.44112" lon="6.65472">
        <ele>2708.6523438</ele>
        <time>2010-07-25T09:24:46Z</time>
      </trkpt>
      <trkpt lat="44.44112" lon="6.65475">
        <ele>2709.6132812</ele>
        <time>2010-07-25T09:24:52Z</time>
      </trkpt>
      <trkpt lat="44.4411" lon="6.65474">
        <ele>2712.4970703</ele>
        <time>2010-07-25T09:25:15Z</time>
      </trkpt>
      <trkpt lat="44.44109" lon="6.65476">
        <ele>2713.9394531</ele>
        <time>2010-07-25T09:25:41Z</time>
      </trkpt>
      <trkpt lat="44.44111" lon="6.65478">
        <ele>2714.9003906</ele>
        <time>2010-07-25T09:25:47Z</time>
      </trkpt>
      <trkpt lat="44.4411" lon="6.65477">
        <ele>2715.3813477</ele>
        <time>2010-07-25T09:25:54Z</time>
      </trkpt>
      <trkpt lat="44.44109" lon="6.65479">
        <ele>2716.3427734</ele>
        <time>2010-07-25T09:26:01Z</time>
      </trkpt>
      <trkpt lat="44.44109" lon="6.6548">
        <ele>2717.784668</ele>
        <time>2010-07-25T09:26:07Z</time>
      </trkpt>
      <trkpt lat="44.44109" lon="6.65482">
        <ele>2719.2265625</ele>
        <time>2010-07-25T09:26:15Z</time>
      </trkpt>
      <trkpt lat="44.44109" lon="6.65484">
        <ele>2720.668457</ele>
        <time>2010-07-25T09:26:22Z</time>
      </trkpt>
      <trkpt lat="44.44108" lon="6.65486">
        <ele>2721.6298828</ele>
        <time>2010-07-25T09:26:28Z</time>
      </trkpt>
      <trkpt lat="44.44107" lon="6.65487">
        <ele>2721.6298828</ele>
        <time>2010-07-25T09:26:34Z</time>
      </trkpt>
      <trkpt lat="44.44107" lon="6.65489">
        <ele>2722.1103516</ele>
        <time>2010-07-25T09:26:41Z</time>
      </trkpt>
      <trkpt lat="44.44109" lon="6.65487">
        <ele>2722.5908203</ele>
        <time>2010-07-25T09:27:16Z</time>
      </trkpt>
      <trkpt lat="44.44108" lon="6.65488">
        <ele>2722.5908203</ele>
        <time>2010-07-25T09:27:23Z</time>
      </trkpt>
      <trkpt lat="44.44107" lon="6.6549">
        <ele>2723.5522461</ele>
        <time>2010-07-25T09:27:32Z</time>
      </trkpt>
      <trkpt lat="44.44107" lon="6.65491">
        <ele>2724.9941406</ele>
        <time>2010-07-25T09:27:44Z</time>
      </trkpt>
      <trkpt lat="44.44107" lon="6.65494">
        <ele>2724.9941406</ele>
        <time>2010-07-25T09:27:50Z</time>
      </trkpt>
      <trkpt lat="44.44107" lon="6.65495">
        <ele>2724.9941406</ele>
        <time>2010-07-25T09:27:57Z</time>
      </trkpt>
      <trkpt lat="44.44107" lon="6.65495">
        <ele>2724.5136719</ele>
        <time>2010-07-25T09:28:04Z</time>
      </trkpt>
      <trkpt lat="44.44107" lon="6.65497">
        <ele>2724.5136719</ele>
        <time>2010-07-25T09:28:13Z</time>
      </trkpt>
      <trkpt lat="44.44106" lon="6.655">
        <ele>2724.9941406</ele>
        <time>2010-07-25T09:28:17Z</time>
      </trkpt>
      <trkpt lat="44.44101" lon="6.65509">
        <ele>2725.9555664</ele>
        <time>2010-07-25T09:28:25Z</time>
      </trkpt>
      <trkpt lat="44.441" lon="6.65511">
        <ele>2725.9555664</ele>
        <time>2010-07-25T09:28:27Z</time>
      </trkpt>
      <trkpt lat="44.44099" lon="6.65516">
        <ele>2725.4750977</ele>
        <time>2010-07-25T09:28:33Z</time>
      </trkpt>
      <trkpt lat="44.44098" lon="6.65517">
        <ele>2725.4750977</ele>
        <time>2010-07-25T09:28:39Z</time>
      </trkpt>
      <trkpt lat="44.44096" lon="6.65524">
        <ele>2725.9555664</ele>
        <time>2010-07-25T09:28:46Z</time>
      </trkpt>
      <trkpt lat="44.44094" lon="6.65528">
        <ele>2726.4360352</ele>
        <time>2010-07-25T09:28:55Z</time>
      </trkpt>
      <trkpt lat="44.44094" lon="6.65531">
        <ele>2727.3974609</ele>
        <time>2010-07-25T09:29:01Z</time>
      </trkpt>
      <trkpt lat="44.44093" lon="6.65535">
        <ele>2728.3588867</ele>
        <time>2010-07-25T09:29:08Z</time>
      </trkpt>
      <trkpt lat="44.44092" lon="6.65542">
        <ele>2730.762207</ele>
        <time>2010-07-25T09:29:19Z</time>
      </trkpt>
      <trkpt lat="44.44091" lon="6.65547">
        <ele>2732.6845703</ele>
        <time>2010-07-25T09:29:28Z</time>
      </trkpt>
      <trkpt lat="44.44091" lon="6.65552">
        <ele>2734.6074219</ele>
        <time>2010-07-25T09:29:37Z</time>
      </trkpt>
      <trkpt lat="44.44089" lon="6.65553">
        <ele>2736.0493164</ele>
        <time>2010-07-25T09:29:43Z</time>
      </trkpt>
      <trkpt lat="44.44089" lon="6.65559">
        <ele>2737.0107422</ele>
        <time>2010-07-25T09:29:51Z</time>
      </trkpt>
      <trkpt lat="44.44088" lon="6.65562">
        <ele>2737.9716797</ele>
        <time>2010-07-25T09:29:58Z</time>
      </trkpt>
      <trkpt lat="44.44087" lon="6.65566">
        <ele>2738.9331055</ele>
        <time>2010-07-25T09:30:06Z</time>
      </trkpt>
      <trkpt lat="44.44084" lon="6.65564">
        <ele>2740.3754883</ele>
        <time>2010-07-25T09:30:13Z</time>
      </trkpt>
      <trkpt lat="44.44081" lon="6.65559">
        <ele>2740.8564453</ele>
        <time>2010-07-25T09:30:21Z</time>
      </trkpt>
      <trkpt lat="44.44076" lon="6.65554">
        <ele>2741.8173828</ele>
        <time>2010-07-25T09:30:31Z</time>
      </trkpt>
      <trkpt lat="44.44075" lon="6.65561">
        <ele>2743.7402344</ele>
        <time>2010-07-25T09:30:40Z</time>
      </trkpt>
      <trkpt lat="44.44074" lon="6.65566">
        <ele>2745.1821289</ele>
        <time>2010-07-25T09:30:49Z</time>
      </trkpt>
      <trkpt lat="44.44075" lon="6.65571">
        <ele>2746.6240234</ele>
        <time>2010-07-25T09:30:56Z</time>
      </trkpt>
      <trkpt lat="44.44075" lon="6.65577">
        <ele>2748.065918</ele>
        <time>2010-07-25T09:31:05Z</time>
      </trkpt>
      <trkpt lat="44.44073" lon="6.65583">
        <ele>2749.9887695</ele>
        <time>2010-07-25T09:31:16Z</time>
      </trkpt>
      <trkpt lat="44.44072" lon="6.65589">
        <ele>2751.4306641</ele>
        <time>2010-07-25T09:31:26Z</time>
      </trkpt>
      <trkpt lat="44.44072" lon="6.65592">
        <ele>2752.8725586</ele>
        <time>2010-07-25T09:31:34Z</time>
      </trkpt>
      <trkpt lat="44.44072" lon="6.65597">
        <ele>2754.3144531</ele>
        <time>2010-07-25T09:31:42Z</time>
      </trkpt>
      <trkpt lat="44.44074" lon="6.65602">
        <ele>2756.2373047</ele>
        <time>2010-07-25T09:31:52Z</time>
      </trkpt>
      <trkpt lat="44.44075" lon="6.65605">
        <ele>2757.6791992</ele>
        <time>2010-07-25T09:31:59Z</time>
      </trkpt>
      <trkpt lat="44.44078" lon="6.65608">
        <ele>2757.6791992</ele>
        <time>2010-07-25T09:32:05Z</time>
      </trkpt>
      <trkpt lat="44.44077" lon="6.65609">
        <ele>2756.7177734</ele>
        <time>2010-07-25T09:32:23Z</time>
      </trkpt>
      <trkpt lat="44.44077" lon="6.6561">
        <ele>2757.1982422</ele>
        <time>2010-07-25T09:32:51Z</time>
      </trkpt>
      <trkpt lat="44.44074" lon="6.65609">
        <ele>2759.1210938</ele>
        <time>2010-07-25T09:34:13Z</time>
      </trkpt>
      <trkpt lat="44.44077" lon="6.65613">
        <ele>2758.159668</ele>
        <time>2010-07-25T09:34:19Z</time>
      </trkpt>
      <trkpt lat="44.4408" lon="6.65613">
        <ele>2753.8339844</ele>
        <time>2010-07-25T09:34:29Z</time>
      </trkpt>
      <trkpt lat="44.44085" lon="6.65618">
        <ele>2756.2373047</ele>
        <time>2010-07-25T09:34:39Z</time>
      </trkpt>
      <trkpt lat="44.44089" lon="6.65629">
        <ele>2757.1982422</ele>
        <time>2010-07-25T09:34:45Z</time>
      </trkpt>
      <trkpt lat="44.44093" lon="6.65649">
        <ele>2757.6791992</ele>
        <time>2010-07-25T09:34:53Z</time>
      </trkpt>
      <trkpt lat="44.44099" lon="6.65664">
        <ele>2760.0825195</ele>
        <time>2010-07-25T09:35:00Z</time>
      </trkpt>
      <trkpt lat="44.44101" lon="6.65672">
        <ele>2761.5244141</ele>
        <time>2010-07-25T09:35:03Z</time>
      </trkpt>
      <trkpt lat="44.44102" lon="6.65673">
        <ele>2763.9277344</ele>
        <time>2010-07-25T09:35:08Z</time>
      </trkpt>
      <trkpt lat="44.44102" lon="6.65674">
        <ele>2765.3696289</ele>
        <time>2010-07-25T09:35:13Z</time>
      </trkpt>
      <trkpt lat="44.44102" lon="6.65677">
        <ele>2766.8115234</ele>
        <time>2010-07-25T09:35:19Z</time>
      </trkpt>
      <trkpt lat="44.44103" lon="6.65679">
        <ele>2770.1762695</ele>
        <time>2010-07-25T09:35:28Z</time>
      </trkpt>
      <trkpt lat="44.44104" lon="6.65683">
        <ele>2766.3305664</ele>
        <time>2010-07-25T09:35:44Z</time>
      </trkpt>
      <trkpt lat="44.44104" lon="6.65684">
        <ele>2765.8500977</ele>
        <time>2010-07-25T09:35:54Z</time>
      </trkpt>
      <trkpt lat="44.44106" lon="6.65688">
        <ele>2766.8115234</ele>
        <time>2010-07-25T09:36:02Z</time>
      </trkpt>
      <trkpt lat="44.44108" lon="6.65694">
        <ele>2765.8500977</ele>
        <time>2010-07-25T09:36:11Z</time>
      </trkpt>
      <trkpt lat="44.44115" lon="6.65707">
        <ele>2767.7729492</ele>
        <time>2010-07-25T09:36:18Z</time>
      </trkpt>
      <trkpt lat="44.44121" lon="6.65721">
        <ele>2770.1762695</ele>
        <time>2010-07-25T09:36:26Z</time>
      </trkpt>
      <trkpt lat="44.44125" lon="6.65729">
        <ele>2771.6181641</ele>
        <time>2010-07-25T09:36:32Z</time>
      </trkpt>
      <trkpt lat="44.44126" lon="6.65729">
        <ele>2773.0605469</ele>
        <time>2010-07-25T09:36:42Z</time>
      </trkpt>
      <trkpt lat="44.44127" lon="6.65734">
        <ele>2776.4248047</ele>
        <time>2010-07-25T09:37:06Z</time>
      </trkpt>
      <trkpt lat="44.44126" lon="6.6574">
        <ele>2776.9057617</ele>
        <time>2010-07-25T09:37:13Z</time>
      </trkpt>
      <trkpt lat="44.44134" lon="6.65751">
        <ele>2776.4248047</ele>
        <time>2010-07-25T09:37:23Z</time>
      </trkpt>
      <trkpt lat="44.44141" lon="6.65756">
        <ele>2775.4638672</ele>
        <time>2010-07-25T09:37:31Z</time>
      </trkpt>
      <trkpt lat="44.44146" lon="6.65759">
        <ele>2776.4248047</ele>
        <time>2010-07-25T09:37:38Z</time>
      </trkpt>
      <trkpt lat="44.44153" lon="6.65761">
        <ele>2777.3862305</ele>
        <time>2010-07-25T09:37:46Z</time>
      </trkpt>
      <trkpt lat="44.44158" lon="6.65764">
        <ele>2778.828125</ele>
        <time>2010-07-25T09:37:55Z</time>
      </trkpt>
      <trkpt lat="44.44163" lon="6.65765">
        <ele>2781.2314453</ele>
        <time>2010-07-25T09:38:04Z</time>
      </trkpt>
      <trkpt lat="44.44169" lon="6.65765">
        <ele>2782.6733398</ele>
        <time>2010-07-25T09:38:13Z</time>
      </trkpt>
      <trkpt lat="44.4417" lon="6.65765">
        <ele>2783.6347656</ele>
        <time>2010-07-25T09:38:19Z</time>
      </trkpt>
      <trkpt lat="44.44172" lon="6.65769">
        <ele>2786.0380859</ele>
        <time>2010-07-25T09:38:26Z</time>
      </trkpt>
      <trkpt lat="44.44172" lon="6.65769">
        <ele>2786.0380859</ele>
        <time>2010-07-25T09:38:27Z</time>
      </trkpt>
      <trkpt lat="44.44179" lon="6.65769">
        <ele>2787.9604492</ele>
        <time>2010-07-25T09:38:34Z</time>
      </trkpt>
      <trkpt lat="44.44179" lon="6.6577">
        <ele>2787.9604492</ele>
        <time>2010-07-25T09:38:41Z</time>
      </trkpt>
      <trkpt lat="44.44179" lon="6.65771">
        <ele>2788.921875</ele>
        <time>2010-07-25T09:38:52Z</time>
      </trkpt>
      <trkpt lat="44.44179" lon="6.65771">
        <ele>2788.4414062</ele>
        <time>2010-07-25T09:39:04Z</time>
      </trkpt>
      <trkpt lat="44.44178" lon="6.65769">
        <ele>2786.5185547</ele>
        <time>2010-07-25T09:39:15Z</time>
      </trkpt>
      <trkpt lat="44.44178" lon="6.65771">
        <ele>2784.5961914</ele>
        <time>2010-07-25T09:39:56Z</time>
      </trkpt>
      <trkpt lat="44.44178" lon="6.6577">
        <ele>2784.1152344</ele>
        <time>2010-07-25T09:40:11Z</time>
      </trkpt>
      <trkpt lat="44.44183" lon="6.65771">
        <ele>2784.1152344</ele>
        <time>2010-07-25T09:40:15Z</time>
      </trkpt>
      <trkpt lat="44.44185" lon="6.6577">
        <ele>2783.6347656</ele>
        <time>2010-07-25T09:40:20Z</time>
      </trkpt>
      <trkpt lat="44.44194" lon="6.65773">
        <ele>2784.1152344</ele>
        <time>2010-07-25T09:40:27Z</time>
      </trkpt>
      <trkpt lat="44.44195" lon="6.65774">
        <ele>2784.5961914</ele>
        <time>2010-07-25T09:40:31Z</time>
      </trkpt>
      <trkpt lat="44.44195" lon="6.65775">
        <ele>2786.0380859</ele>
        <time>2010-07-25T09:40:37Z</time>
      </trkpt>
      <trkpt lat="44.44196" lon="6.65776">
        <ele>2786.0380859</ele>
        <time>2010-07-25T09:40:38Z</time>
      </trkpt>
      <trkpt lat="44.44197" lon="6.65778">
        <ele>2786.0380859</ele>
        <time>2010-07-25T09:40:40Z</time>
      </trkpt>
      <trkpt lat="44.44193" lon="6.65788">
        <ele>2786.5185547</ele>
        <time>2010-07-25T09:40:46Z</time>
      </trkpt>
      <trkpt lat="44.44192" lon="6.65789">
        <ele>2786.9995117</ele>
        <time>2010-07-25T09:40:52Z</time>
      </trkpt>
      <trkpt lat="44.44191" lon="6.65787">
        <ele>2788.921875</ele>
        <time>2010-07-25T09:41:01Z</time>
      </trkpt>
      <trkpt lat="44.44188" lon="6.65785">
        <ele>2788.4414062</ele>
        <time>2010-07-25T09:41:04Z</time>
      </trkpt>
      <trkpt lat="44.44186" lon="6.65781">
        <ele>2787.4799805</ele>
        <time>2010-07-25T09:41:07Z</time>
      </trkpt>
      <trkpt lat="44.44182" lon="6.65774">
        <ele>2786.0380859</ele>
        <time>2010-07-25T09:41:13Z</time>
      </trkpt>
      <trkpt lat="44.44182" lon="6.65765">
        <ele>2784.1152344</ele>
        <time>2010-07-25T09:41:18Z</time>
      </trkpt>
      <trkpt lat="44.44181" lon="6.65767">
        <ele>2786.0380859</ele>
        <time>2010-07-25T09:41:26Z</time>
      </trkpt>
      <trkpt lat="44.44175" lon="6.65773">
        <ele>2790.3637695</ele>
        <time>2010-07-25T09:41:56Z</time>
      </trkpt>
      <trkpt lat="44.44176" lon="6.65775">
        <ele>2791.3251953</ele>
        <time>2010-07-25T09:42:21Z</time>
      </trkpt>
      <trkpt lat="44.44176" lon="6.65774">
        <ele>2790.8447266</ele>
        <time>2010-07-25T09:42:23Z</time>
      </trkpt>
      <trkpt lat="44.44191" lon="6.6578">
        <ele>2789.8833008</ele>
        <time>2010-07-25T09:42:32Z</time>
      </trkpt>
      <trkpt lat="44.44193" lon="6.65782">
        <ele>2787.9604492</ele>
        <time>2010-07-25T09:42:36Z</time>
      </trkpt>
      <trkpt lat="44.44198" lon="6.65784">
        <ele>2788.4414062</ele>
        <time>2010-07-25T09:42:42Z</time>
      </trkpt>
      <trkpt lat="44.44201" lon="6.65782">
        <ele>2787.4799805</ele>
        <time>2010-07-25T09:42:47Z</time>
      </trkpt>
      <trkpt lat="44.44201" lon="6.65783">
        <ele>2787.4799805</ele>
        <time>2010-07-25T09:42:48Z</time>
      </trkpt>
      <trkpt lat="44.44204" lon="6.65794">
        <ele>2785.5576172</ele>
        <time>2010-07-25T09:42:54Z</time>
      </trkpt>
      <trkpt lat="44.44205" lon="6.65795">
        <ele>2785.0766602</ele>
        <time>2010-07-25T09:42:55Z</time>
      </trkpt>
      <trkpt lat="44.44217" lon="6.65807">
        <ele>2782.1928711</ele>
        <time>2010-07-25T09:43:02Z</time>
      </trkpt>
      <trkpt lat="44.44232" lon="6.65804">
        <ele>2779.309082</ele>
        <time>2010-07-25T09:43:07Z</time>
      </trkpt>
      <trkpt lat="44.44232" lon="6.65804">
        <ele>2778.3476562</ele>
        <time>2010-07-25T09:43:11Z</time>
      </trkpt>
      <trkpt lat="44.44232" lon="6.65804">
        <ele>2776.4248047</ele>
        <time>2010-07-25T09:43:33Z</time>
      </trkpt>
      <trkpt lat="44.44231" lon="6.65803">
        <ele>2776.9057617</ele>
        <time>2010-07-25T09:44:01Z</time>
      </trkpt>
      <trkpt lat="44.4423" lon="6.65803">
        <ele>2777.3862305</ele>
        <time>2010-07-25T09:44:20Z</time>
      </trkpt>
      <trkpt lat="44.4423" lon="6.65803">
        <ele>2775.9443359</ele>
        <time>2010-07-25T09:44:56Z</time>
      </trkpt>
      <trkpt lat="44.4423" lon="6.65803">
        <ele>2779.7895508</ele>
        <time>2010-07-25T09:45:26Z</time>
      </trkpt>
      <trkpt lat="44.4423" lon="6.65802">
        <ele>2780.2700195</ele>
        <time>2010-07-25T09:45:36Z</time>
      </trkpt>
      <trkpt lat="44.44229" lon="6.65795">
        <ele>2775.9443359</ele>
        <time>2010-07-25T09:45:42Z</time>
      </trkpt>
      <trkpt lat="44.44229" lon="6.65795">
        <ele>2773.5410156</ele>
        <time>2010-07-25T09:45:46Z</time>
      </trkpt>
      <trkpt lat="44.44236" lon="6.65792">
        <ele>2771.6181641</ele>
        <time>2010-07-25T09:45:51Z</time>
      </trkpt>
      <trkpt lat="44.44245" lon="6.65796">
        <ele>2771.137207</ele>
        <time>2010-07-25T09:45:55Z</time>
      </trkpt>
      <trkpt lat="44.44254" lon="6.65795">
        <ele>2772.0991211</ele>
        <time>2010-07-25T09:45:59Z</time>
      </trkpt>
      <trkpt lat="44.44262" lon="6.65791">
        <ele>2773.5410156</ele>
        <time>2010-07-25T09:46:02Z</time>
      </trkpt>
      <trkpt lat="44.44278" lon="6.65788">
        <ele>2778.828125</ele>
        <time>2010-07-25T09:46:09Z</time>
      </trkpt>
      <trkpt lat="44.4429" lon="6.65785">
        <ele>2781.7119141</ele>
        <time>2010-07-25T09:46:15Z</time>
      </trkpt>
      <trkpt lat="44.44301" lon="6.65785">
        <ele>2784.1152344</ele>
        <time>2010-07-25T09:46:21Z</time>
      </trkpt>
      <trkpt lat="44.44307" lon="6.65788">
        <ele>2785.0766602</ele>
        <time>2010-07-25T09:46:26Z</time>
      </trkpt>
      <trkpt lat="44.44305" lon="6.65787">
        <ele>2783.6347656</ele>
        <time>2010-07-25T09:46:44Z</time>
      </trkpt>
      <trkpt lat="44.44304" lon="6.65788">
        <ele>2784.5961914</ele>
        <time>2010-07-25T09:46:51Z</time>
      </trkpt>
      <trkpt lat="44.44303" lon="6.65787">
        <ele>2786.0380859</ele>
        <time>2010-07-25T09:47:01Z</time>
      </trkpt>
      <trkpt lat="44.44306" lon="6.65787">
        <ele>2787.4799805</ele>
        <time>2010-07-25T09:47:10Z</time>
      </trkpt>
      <trkpt lat="44.44312" lon="6.65787">
        <ele>2789.4023438</ele>
        <time>2010-07-25T09:47:18Z</time>
      </trkpt>
      <trkpt lat="44.44313" lon="6.65787">
        <ele>2789.8833008</ele>
        <time>2010-07-25T09:47:20Z</time>
      </trkpt>
      <trkpt lat="44.44316" lon="6.65784">
        <ele>2792.2866211</ele>
        <time>2010-07-25T09:47:27Z</time>
      </trkpt>
      <trkpt lat="44.44314" lon="6.65787">
        <ele>2794.6899414</ele>
        <time>2010-07-25T09:47:34Z</time>
      </trkpt>
      <trkpt lat="44.44314" lon="6.6579">
        <ele>2795.6508789</ele>
        <time>2010-07-25T09:47:40Z</time>
      </trkpt>
      <trkpt lat="44.44316" lon="6.6579">
        <ele>2796.1318359</ele>
        <time>2010-07-25T09:47:46Z</time>
      </trkpt>
      <trkpt lat="44.44318" lon="6.65789">
        <ele>2796.1318359</ele>
        <time>2010-07-25T09:47:53Z</time>
      </trkpt>
      <trkpt lat="44.4432" lon="6.65788">
        <ele>2797.5737305</ele>
        <time>2010-07-25T09:48:03Z</time>
      </trkpt>
      <trkpt lat="44.44324" lon="6.65788">
        <ele>2799.4960938</ele>
        <time>2010-07-25T09:48:12Z</time>
      </trkpt>
      <trkpt lat="44.44327" lon="6.65791">
        <ele>2800.9384766</ele>
        <time>2010-07-25T09:48:20Z</time>
      </trkpt>
      <trkpt lat="44.44331" lon="6.65793">
        <ele>2800.9384766</ele>
        <time>2010-07-25T09:48:26Z</time>
      </trkpt>
      <trkpt lat="44.44332" lon="6.65793">
        <ele>2800.9384766</ele>
        <time>2010-07-25T09:48:33Z</time>
      </trkpt>
      <trkpt lat="44.44334" lon="6.65793">
        <ele>2799.015625</ele>
        <time>2010-07-25T09:48:54Z</time>
      </trkpt>
      <trkpt lat="44.44334" lon="6.65794">
        <ele>2799.9770508</ele>
        <time>2010-07-25T09:49:00Z</time>
      </trkpt>
      <trkpt lat="44.44336" lon="6.65794">
        <ele>2799.9770508</ele>
        <time>2010-07-25T09:49:01Z</time>
      </trkpt>
      <trkpt lat="44.44341" lon="6.65797">
        <ele>2801.4189453</ele>
        <time>2010-07-25T09:49:05Z</time>
      </trkpt>
      <trkpt lat="44.44349" lon="6.658">
        <ele>2802.3803711</ele>
        <time>2010-07-25T09:49:10Z</time>
      </trkpt>
      <trkpt lat="44.44351" lon="6.65815">
        <ele>2802.8608398</ele>
        <time>2010-07-25T09:49:16Z</time>
      </trkpt>
      <trkpt lat="44.44352" lon="6.65822">
        <ele>2801.8994141</ele>
        <time>2010-07-25T09:49:18Z</time>
      </trkpt>
      <trkpt lat="44.44355" lon="6.65837">
        <ele>2802.8608398</ele>
        <time>2010-07-25T09:49:24Z</time>
      </trkpt>
      <trkpt lat="44.44358" lon="6.65842">
        <ele>2804.3032227</ele>
        <time>2010-07-25T09:49:27Z</time>
      </trkpt>
      <trkpt lat="44.44355" lon="6.65849">
        <ele>2806.706543</ele>
        <time>2010-07-25T09:49:31Z</time>
      </trkpt>
      <trkpt lat="44.44354" lon="6.65859">
        <ele>2807.6679688</ele>
        <time>2010-07-25T09:49:35Z</time>
      </trkpt>
      <trkpt lat="44.44355" lon="6.65862">
        <ele>2807.1870117</ele>
        <time>2010-07-25T09:49:38Z</time>
      </trkpt>
      <trkpt lat="44.44356" lon="6.65865">
        <ele>2808.1484375</ele>
        <time>2010-07-25T09:49:43Z</time>
      </trkpt>
      <trkpt lat="44.44355" lon="6.65866">
        <ele>2807.1870117</ele>
        <time>2010-07-25T09:49:52Z</time>
      </trkpt>
      <trkpt lat="44.44355" lon="6.65866">
        <ele>2806.706543</ele>
        <time>2010-07-25T09:50:07Z</time>
      </trkpt>
      <trkpt lat="44.44356" lon="6.65866">
        <ele>2807.6679688</ele>
        <time>2010-07-25T09:50:24Z</time>
      </trkpt>
      <trkpt lat="44.44358" lon="6.65867">
        <ele>2808.1484375</ele>
        <time>2010-07-25T09:50:33Z</time>
      </trkpt>
      <trkpt lat="44.44362" lon="6.65872">
        <ele>2810.0712891</ele>
        <time>2010-07-25T09:50:42Z</time>
      </trkpt>
      <trkpt lat="44.44361" lon="6.6588">
        <ele>2811.9936523</ele>
        <time>2010-07-25T09:50:51Z</time>
      </trkpt>
      <trkpt lat="44.44359" lon="6.65887">
        <ele>2813.4355469</ele>
        <time>2010-07-25T09:51:00Z</time>
      </trkpt>
      <trkpt lat="44.44356" lon="6.65896">
        <ele>2815.3583984</ele>
        <time>2010-07-25T09:51:11Z</time>
      </trkpt>
      <trkpt lat="44.44355" lon="6.65902">
        <ele>2817.7617188</ele>
        <time>2010-07-25T09:51:20Z</time>
      </trkpt>
      <trkpt lat="44.44352" lon="6.65909">
        <ele>2819.2036133</ele>
        <time>2010-07-25T09:51:30Z</time>
      </trkpt>
      <trkpt lat="44.44347" lon="6.65913">
        <ele>2820.1645508</ele>
        <time>2010-07-25T09:51:38Z</time>
      </trkpt>
      <trkpt lat="44.44344" lon="6.65918">
        <ele>2821.6069336</ele>
        <time>2010-07-25T09:51:46Z</time>
      </trkpt>
      <trkpt lat="44.44342" lon="6.65922">
        <ele>2824.0102539</ele>
        <time>2010-07-25T09:51:55Z</time>
      </trkpt>
      <trkpt lat="44.44339" lon="6.65927">
        <ele>2825.9326172</ele>
        <time>2010-07-25T09:52:05Z</time>
      </trkpt>
      <trkpt lat="44.44338" lon="6.65931">
        <ele>2827.3745117</ele>
        <time>2010-07-25T09:52:12Z</time>
      </trkpt>
      <trkpt lat="44.44335" lon="6.65935">
        <ele>2828.8164062</ele>
        <time>2010-07-25T09:52:21Z</time>
      </trkpt>
      <trkpt lat="44.44333" lon="6.65939">
        <ele>2829.777832</ele>
        <time>2010-07-25T09:52:29Z</time>
      </trkpt>
      <trkpt lat="44.44334" lon="6.65942">
        <ele>2830.7392578</ele>
        <time>2010-07-25T09:52:36Z</time>
      </trkpt>
      <trkpt lat="44.44332" lon="6.65946">
        <ele>2831.2197266</ele>
        <time>2010-07-25T09:52:45Z</time>
      </trkpt>
      <trkpt lat="44.44334" lon="6.6595">
        <ele>2832.6616211</ele>
        <time>2010-07-25T09:52:51Z</time>
      </trkpt>
      <trkpt lat="44.44336" lon="6.65953">
        <ele>2834.1035156</ele>
        <time>2010-07-25T09:52:58Z</time>
      </trkpt>
      <trkpt lat="44.44334" lon="6.65955">
        <ele>2835.0649414</ele>
        <time>2010-07-25T09:53:05Z</time>
      </trkpt>
      <trkpt lat="44.4433" lon="6.65959">
        <ele>2836.9882812</ele>
        <time>2010-07-25T09:53:13Z</time>
      </trkpt>
      <trkpt lat="44.44329" lon="6.6596">
        <ele>2836.9882812</ele>
        <time>2010-07-25T09:53:20Z</time>
      </trkpt>
      <trkpt lat="44.44328" lon="6.6596">
        <ele>2836.0268555</ele>
        <time>2010-07-25T09:53:27Z</time>
      </trkpt>
      <trkpt lat="44.44327" lon="6.6596">
        <ele>2836.5073242</ele>
        <time>2010-07-25T09:53:45Z</time>
      </trkpt>
      <trkpt lat="44.44326" lon="6.65957">
        <ele>2838.4301758</ele>
        <time>2010-07-25T09:54:01Z</time>
      </trkpt>
      <trkpt lat="44.44326" lon="6.65956">
        <ele>2839.3916016</ele>
        <time>2010-07-25T09:54:10Z</time>
      </trkpt>
      <trkpt lat="44.44325" lon="6.65954">
        <ele>2840.3525391</ele>
        <time>2010-07-25T09:54:33Z</time>
      </trkpt>
      <trkpt lat="44.44324" lon="6.65953">
        <ele>2841.7944336</ele>
        <time>2010-07-25T09:54:51Z</time>
      </trkpt>
      <trkpt lat="44.44324" lon="6.65953">
        <ele>2842.7558594</ele>
        <time>2010-07-25T09:55:07Z</time>
      </trkpt>
      <trkpt lat="44.44324" lon="6.65952">
        <ele>2843.2363281</ele>
        <time>2010-07-25T09:55:23Z</time>
      </trkpt>
      <trkpt lat="44.44324" lon="6.65953">
        <ele>2844.1977539</ele>
        <time>2010-07-25T09:55:42Z</time>
      </trkpt>
      <trkpt lat="44.44323" lon="6.65952">
        <ele>2845.1591797</ele>
        <time>2010-07-25T09:55:55Z</time>
      </trkpt>
      <trkpt lat="44.44324" lon="6.65954">
        <ele>2844.6787109</ele>
        <time>2010-07-25T09:56:08Z</time>
      </trkpt>
      <trkpt lat="44.44324" lon="6.65956">
        <ele>2843.7172852</ele>
        <time>2010-07-25T09:56:20Z</time>
      </trkpt>
      <trkpt lat="44.44324" lon="6.65956">
        <ele>2844.1977539</ele>
        <time>2010-07-25T09:56:33Z</time>
      </trkpt>
      <trkpt lat="44.44324" lon="6.65956">
        <ele>2844.1977539</ele>
        <time>2010-07-25T09:56:49Z</time>
      </trkpt>
      <trkpt lat="44.44324" lon="6.65957">
        <ele>2842.7558594</ele>
        <time>2010-07-25T09:57:05Z</time>
      </trkpt>
      <trkpt lat="44.44324" lon="6.65958">
        <ele>2841.7944336</ele>
        <time>2010-07-25T09:57:16Z</time>
      </trkpt>
      <trkpt lat="44.44325" lon="6.6596">
        <ele>2839.8720703</ele>
        <time>2010-07-25T09:57:28Z</time>
      </trkpt>
      <trkpt lat="44.44325" lon="6.65959">
        <ele>2840.3525391</ele>
        <time>2010-07-25T09:57:42Z</time>
      </trkpt>
      <trkpt lat="44.44325" lon="6.65961">
        <ele>2839.3916016</ele>
        <time>2010-07-25T09:57:53Z</time>
      </trkpt>
      <trkpt lat="44.44325" lon="6.65961">
        <ele>2839.3916016</ele>
        <time>2010-07-25T09:58:03Z</time>
      </trkpt>
      <trkpt lat="44.44325" lon="6.65962">
        <ele>2838.9106445</ele>
        <time>2010-07-25T09:58:16Z</time>
      </trkpt>
      <trkpt lat="44.44326" lon="6.65963">
        <ele>2838.4301758</ele>
        <time>2010-07-25T09:58:26Z</time>
      </trkpt>
      <trkpt lat="44.44326" lon="6.65965">
        <ele>2837.9492188</ele>
        <time>2010-07-25T09:58:39Z</time>
      </trkpt>
      <trkpt lat="44.44326" lon="6.65964">
        <ele>2838.4301758</ele>
        <time>2010-07-25T09:58:54Z</time>
      </trkpt>
      <trkpt lat="44.44326" lon="6.65965">
        <ele>2838.4301758</ele>
        <time>2010-07-25T09:59:05Z</time>
      </trkpt>
      <trkpt lat="44.44327" lon="6.65966">
        <ele>2837.46875</ele>
        <time>2010-07-25T09:59:19Z</time>
      </trkpt>
      <trkpt lat="44.44327" lon="6.65968">
        <ele>2836.5073242</ele>
        <time>2010-07-25T09:59:29Z</time>
      </trkpt>
      <trkpt lat="44.44327" lon="6.65969">
        <ele>2836.0268555</ele>
        <time>2010-07-25T09:59:41Z</time>
      </trkpt>
      <trkpt lat="44.44328" lon="6.6597">
        <ele>2836.0268555</ele>
        <time>2010-07-25T09:59:58Z</time>
      </trkpt>
      <trkpt lat="44.44327" lon="6.65969">
        <ele>2836.5073242</ele>
        <time>2010-07-25T10:00:11Z</time>
      </trkpt>
      <trkpt lat="44.44328" lon="6.65969">
        <ele>2834.5844727</ele>
        <time>2010-07-25T10:00:21Z</time>
      </trkpt>
      <trkpt lat="44.44328" lon="6.65969">
        <ele>2833.1425781</ele>
        <time>2010-07-25T10:00:32Z</time>
      </trkpt>
      <trkpt lat="44.44328" lon="6.65968">
        <ele>2833.1425781</ele>
        <time>2010-07-25T10:00:46Z</time>
      </trkpt>
      <trkpt lat="44.44328" lon="6.65967">
        <ele>2834.1035156</ele>
        <time>2010-07-25T10:00:57Z</time>
      </trkpt>
      <trkpt lat="44.44326" lon="6.65963">
        <ele>2836.0268555</ele>
        <time>2010-07-25T10:01:16Z</time>
      </trkpt>
      <trkpt lat="44.44327" lon="6.65962">
        <ele>2835.5454102</ele>
        <time>2010-07-25T10:01:27Z</time>
      </trkpt>
      <trkpt lat="44.44326" lon="6.65959">
        <ele>2836.9882812</ele>
        <time>2010-07-25T10:01:38Z</time>
      </trkpt>
      <trkpt lat="44.44327" lon="6.65959">
        <ele>2837.46875</ele>
        <time>2010-07-25T10:01:53Z</time>
      </trkpt>
      <trkpt lat="44.44326" lon="6.65957">
        <ele>2837.9492188</ele>
        <time>2010-07-25T10:02:04Z</time>
      </trkpt>
      <trkpt lat="44.44326" lon="6.65957">
        <ele>2837.46875</ele>
        <time>2010-07-25T10:02:17Z</time>
      </trkpt>
      <trkpt lat="44.44327" lon="6.65958">
        <ele>2837.46875</ele>
        <time>2010-07-25T10:02:29Z</time>
      </trkpt>
      <trkpt lat="44.44327" lon="6.65958">
        <ele>2837.46875</ele>
        <time>2010-07-25T10:02:40Z</time>
      </trkpt>
      <trkpt lat="44.44327" lon="6.65958">
        <ele>2837.46875</ele>
        <time>2010-07-25T10:02:49Z</time>
      </trkpt>
      <trkpt lat="44.44327" lon="6.65958">
        <ele>2837.9492188</ele>
        <time>2010-07-25T10:03:07Z</time>
      </trkpt>
      <trkpt lat="44.44326" lon="6.65957">
        <ele>2837.9492188</ele>
        <time>2010-07-25T10:03:19Z</time>
      </trkpt>
      <trkpt lat="44.44326" lon="6.65958">
        <ele>2837.9492188</ele>
        <time>2010-07-25T10:03:29Z</time>
      </trkpt>
      <trkpt lat="44.44327" lon="6.65958">
        <ele>2837.9492188</ele>
        <time>2010-07-25T10:03:40Z</time>
      </trkpt>
      <trkpt lat="44.44326" lon="6.65957">
        <ele>2838.4301758</ele>
        <time>2010-07-25T10:03:54Z</time>
      </trkpt>
      <trkpt lat="44.44327" lon="6.65958">
        <ele>2836.9882812</ele>
        <time>2010-07-25T10:04:05Z</time>
      </trkpt>
      <trkpt lat="44.44327" lon="6.65958">
        <ele>2836.9882812</ele>
        <time>2010-07-25T10:04:15Z</time>
      </trkpt>
      <trkpt lat="44.44327" lon="6.65959">
        <ele>2836.5073242</ele>
        <time>2010-07-25T10:04:26Z</time>
      </trkpt>
      <trkpt lat="44.44327" lon="6.65958">
        <ele>2836.9882812</ele>
        <time>2010-07-25T10:04:38Z</time>
      </trkpt>
      <trkpt lat="44.44327" lon="6.65957">
        <ele>2837.9492188</ele>
        <time>2010-07-25T10:04:53Z</time>
      </trkpt>
      <trkpt lat="44.44327" lon="6.65958">
        <ele>2837.46875</ele>
        <time>2010-07-25T10:05:09Z</time>
      </trkpt>
      <trkpt lat="44.44327" lon="6.65957">
        <ele>2837.9492188</ele>
        <time>2010-07-25T10:05:28Z</time>
      </trkpt>
      <trkpt lat="44.44327" lon="6.65958">
        <ele>2836.9882812</ele>
        <time>2010-07-25T10:05:53Z</time>
      </trkpt>
      <trkpt lat="44.44327" lon="6.65957">
        <ele>2838.4301758</ele>
        <time>2010-07-25T10:06:18Z</time>
      </trkpt>
      <trkpt lat="44.44327" lon="6.65957">
        <ele>2837.9492188</ele>
        <time>2010-07-25T10:06:38Z</time>
      </trkpt>
      <trkpt lat="44.44327" lon="6.65958">
        <ele>2837.46875</ele>
        <time>2010-07-25T10:06:50Z</time>
      </trkpt>
      <trkpt lat="44.44328" lon="6.65959">
        <ele>2836.0268555</ele>
        <time>2010-07-25T10:07:02Z</time>
      </trkpt>
      <trkpt lat="44.44328" lon="6.65959">
        <ele>2836.9882812</ele>
        <time>2010-07-25T10:07:17Z</time>
      </trkpt>
      <trkpt lat="44.44328" lon="6.65959">
        <ele>2836.9882812</ele>
        <time>2010-07-25T10:07:30Z</time>
      </trkpt>
      <trkpt lat="44.44328" lon="6.65959">
        <ele>2837.46875</ele>
        <time>2010-07-25T10:07:44Z</time>
      </trkpt>
      <trkpt lat="44.44327" lon="6.65958">
        <ele>2837.9492188</ele>
        <time>2010-07-25T10:08:12Z</time>
      </trkpt>
      <trkpt lat="44.44327" lon="6.65958">
        <ele>2838.9106445</ele>
        <time>2010-07-25T10:08:35Z</time>
      </trkpt>
      <trkpt lat="44.44327" lon="6.65958">
        <ele>2838.4301758</ele>
        <time>2010-07-25T10:08:45Z</time>
      </trkpt>
      <trkpt lat="44.44327" lon="6.65958">
        <ele>2838.4301758</ele>
        <time>2010-07-25T10:08:54Z</time>
      </trkpt>
      <trkpt lat="44.44326" lon="6.65957">
        <ele>2838.9106445</ele>
        <time>2010-07-25T10:09:08Z</time>
      </trkpt>
      <trkpt lat="44.44326" lon="6.65957">
        <ele>2838.9106445</ele>
        <time>2010-07-25T10:09:21Z</time>
      </trkpt>
      <trkpt lat="44.44327" lon="6.65957">
        <ele>2838.9106445</ele>
        <time>2010-07-25T10:09:31Z</time>
      </trkpt>
      <trkpt lat="44.44327" lon="6.65958">
        <ele>2837.9492188</ele>
        <time>2010-07-25T10:09:41Z</time>
      </trkpt>
      <trkpt lat="44.44327" lon="6.65958">
        <ele>2837.9492188</ele>
        <time>2010-07-25T10:10:02Z</time>
      </trkpt>
      <trkpt lat="44.44327" lon="6.65958">
        <ele>2837.46875</ele>
        <time>2010-07-25T10:10:15Z</time>
      </trkpt>
      <trkpt lat="44.44327" lon="6.65958">
        <ele>2837.9492188</ele>
        <time>2010-07-25T10:10:33Z</time>
      </trkpt>
      <trkpt lat="44.44327" lon="6.65958">
        <ele>2837.9492188</ele>
        <time>2010-07-25T10:10:59Z</time>
      </trkpt>
      <trkpt lat="44.44327" lon="6.65959">
        <ele>2837.46875</ele>
        <time>2010-07-25T10:11:14Z</time>
      </trkpt>
      <trkpt lat="44.44327" lon="6.65959">
        <ele>2837.9492188</ele>
        <time>2010-07-25T10:11:28Z</time>
      </trkpt>
      <trkpt lat="44.44327" lon="6.65959">
        <ele>2837.9492188</ele>
        <time>2010-07-25T10:11:45Z</time>
      </trkpt>
      <trkpt lat="44.44327" lon="6.6596">
        <ele>2837.46875</ele>
        <time>2010-07-25T10:11:56Z</time>
      </trkpt>
      <trkpt lat="44.44327" lon="6.6596">
        <ele>2838.4301758</ele>
        <time>2010-07-25T10:12:05Z</time>
      </trkpt>
      <trkpt lat="44.44327" lon="6.6596">
        <ele>2838.4301758</ele>
        <time>2010-07-25T10:12:17Z</time>
      </trkpt>
      <trkpt lat="44.44327" lon="6.6596">
        <ele>2838.4301758</ele>
        <time>2010-07-25T10:12:32Z</time>
      </trkpt>
      <trkpt lat="44.44328" lon="6.65961">
        <ele>2837.46875</ele>
        <time>2010-07-25T10:12:41Z</time>
      </trkpt>
      <trkpt lat="44.44328" lon="6.65961">
        <ele>2836.9882812</ele>
        <time>2010-07-25T10:12:54Z</time>
      </trkpt>
      <trkpt lat="44.44328" lon="6.65962">
        <ele>2836.5073242</ele>
        <time>2010-07-25T10:13:03Z</time>
      </trkpt>
      <trkpt lat="44.44327" lon="6.6596">
        <ele>2837.46875</ele>
        <time>2010-07-25T10:13:23Z</time>
      </trkpt>
      <trkpt lat="44.44328" lon="6.6596">
        <ele>2837.9492188</ele>
        <time>2010-07-25T10:13:36Z</time>
      </trkpt>
      <trkpt lat="44.44327" lon="6.65959">
        <ele>2838.4301758</ele>
        <time>2010-07-25T10:13:47Z</time>
      </trkpt>
      <trkpt lat="44.44327" lon="6.65959">
        <ele>2838.9106445</ele>
        <time>2010-07-25T10:13:58Z</time>
      </trkpt>
      <trkpt lat="44.44327" lon="6.65958">
        <ele>2838.9106445</ele>
        <time>2010-07-25T10:14:07Z</time>
      </trkpt>
      <trkpt lat="44.44327" lon="6.65958">
        <ele>2839.3916016</ele>
        <time>2010-07-25T10:14:31Z</time>
      </trkpt>
      <trkpt lat="44.44327" lon="6.65958">
        <ele>2839.8720703</ele>
        <time>2010-07-25T10:14:44Z</time>
      </trkpt>
      <trkpt lat="44.44327" lon="6.65958">
        <ele>2839.8720703</ele>
        <time>2010-07-25T10:14:59Z</time>
      </trkpt>
      <trkpt lat="44.44327" lon="6.65959">
        <ele>2838.9106445</ele>
        <time>2010-07-25T10:15:11Z</time>
      </trkpt>
      <trkpt lat="44.44327" lon="6.65959">
        <ele>2839.8720703</ele>
        <time>2010-07-25T10:15:21Z</time>
      </trkpt>
      <trkpt lat="44.44326" lon="6.65957">
        <ele>2841.7944336</ele>
        <time>2010-07-25T10:15:32Z</time>
      </trkpt>
      <trkpt lat="44.44327" lon="6.65958">
        <ele>2840.8334961</ele>
        <time>2010-07-25T10:15:45Z</time>
      </trkpt>
      <trkpt lat="44.44326" lon="6.65959">
        <ele>2840.8334961</ele>
        <time>2010-07-25T10:15:46Z</time>
      </trkpt>
      <trkpt lat="44.44325" lon="6.6596">
        <ele>2840.8334961</ele>
        <time>2010-07-25T10:15:48Z</time>
      </trkpt>
      <trkpt lat="44.4432" lon="6.65962">
        <ele>2839.8720703</ele>
        <time>2010-07-25T10:15:54Z</time>
      </trkpt>
      <trkpt lat="44.4432" lon="6.65963">
        <ele>2838.9106445</ele>
        <time>2010-07-25T10:15:58Z</time>
      </trkpt>
      <trkpt lat="44.44319" lon="6.65978">
        <ele>2836.9882812</ele>
        <time>2010-07-25T10:16:03Z</time>
      </trkpt>
      <trkpt lat="44.44318" lon="6.65983">
        <ele>2835.5454102</ele>
        <time>2010-07-25T10:16:07Z</time>
      </trkpt>
      <trkpt lat="44.44327" lon="6.65982">
        <ele>2836.0268555</ele>
        <time>2010-07-25T10:17:58Z</time>
      </trkpt>
      <trkpt lat="44.44332" lon="6.65982">
        <ele>2836.5073242</ele>
        <time>2010-07-25T10:18:09Z</time>
      </trkpt>
      <trkpt lat="44.44335" lon="6.65982">
        <ele>2836.0268555</ele>
        <time>2010-07-25T10:18:22Z</time>
      </trkpt>
      <trkpt lat="44.44337" lon="6.65982">
        <ele>2836.0268555</ele>
        <time>2010-07-25T10:18:31Z</time>
      </trkpt>
      <trkpt lat="44.44336" lon="6.65981">
        <ele>2836.5073242</ele>
        <time>2010-07-25T10:18:42Z</time>
      </trkpt>
      <trkpt lat="44.44332" lon="6.6597">
        <ele>2829.777832</ele>
        <time>2010-07-25T10:18:49Z</time>
      </trkpt>
      <trkpt lat="44.44333" lon="6.65969">
        <ele>2829.777832</ele>
        <time>2010-07-25T10:18:50Z</time>
      </trkpt>
      <trkpt lat="44.44329" lon="6.65964">
        <ele>2824.9711914</ele>
        <time>2010-07-25T10:18:56Z</time>
      </trkpt>
      <trkpt lat="44.44327" lon="6.65964">
        <ele>2822.0874023</ele>
        <time>2010-07-25T10:19:01Z</time>
      </trkpt>
      <trkpt lat="44.44326" lon="6.65965">
        <ele>2822.0874023</ele>
        <time>2010-07-25T10:19:06Z</time>
      </trkpt>
      <trkpt lat="44.44324" lon="6.65973">
        <ele>2820.1645508</ele>
        <time>2010-07-25T10:19:09Z</time>
      </trkpt>
      <trkpt lat="44.44329" lon="6.65976">
        <ele>2819.684082</ele>
        <time>2010-07-25T10:19:13Z</time>
      </trkpt>
      <trkpt lat="44.44331" lon="6.65974">
        <ele>2819.2036133</ele>
        <time>2010-07-25T10:19:14Z</time>
      </trkpt>
      <trkpt lat="44.44337" lon="6.65972">
        <ele>2816.800293</ele>
        <time>2010-07-25T10:19:17Z</time>
      </trkpt>
      <trkpt lat="44.44338" lon="6.65986">
        <ele>2816.3198242</ele>
        <time>2010-07-25T10:19:21Z</time>
      </trkpt>
      <trkpt lat="44.44336" lon="6.66017">
        <ele>2814.3969727</ele>
        <time>2010-07-25T10:19:25Z</time>
      </trkpt>
      <trkpt lat="44.44332" lon="6.66048">
        <ele>2807.6679688</ele>
        <time>2010-07-25T10:19:30Z</time>
      </trkpt>
      <trkpt lat="44.44334" lon="6.66065">
        <ele>2804.7836914</ele>
        <time>2010-07-25T10:19:34Z</time>
      </trkpt>
      <trkpt lat="44.44339" lon="6.66067">
        <ele>2802.3803711</ele>
        <time>2010-07-25T10:19:38Z</time>
      </trkpt>
      <trkpt lat="44.44346" lon="6.66064">
        <ele>2800.9384766</ele>
        <time>2010-07-25T10:19:40Z</time>
      </trkpt>
      <trkpt lat="44.44358" lon="6.66058">
        <ele>2797.0927734</ele>
        <time>2010-07-25T10:19:45Z</time>
      </trkpt>
      <trkpt lat="44.44371" lon="6.66058">
        <ele>2793.7285156</ele>
        <time>2010-07-25T10:19:49Z</time>
      </trkpt>
      <trkpt lat="44.44376" lon="6.66054">
        <ele>2791.8056641</ele>
        <time>2010-07-25T10:19:53Z</time>
      </trkpt>
      <trkpt lat="44.44377" lon="6.66054">
        <ele>2792.7670898</ele>
        <time>2010-07-25T10:20:06Z</time>
      </trkpt>
      <trkpt lat="44.44383" lon="6.66053">
        <ele>2796.1318359</ele>
        <time>2010-07-25T10:20:19Z</time>
      </trkpt>
      <trkpt lat="44.44397" lon="6.66048">
        <ele>2793.2480469</ele>
        <time>2010-07-25T10:20:24Z</time>
      </trkpt>
      <trkpt lat="44.44409" lon="6.66049">
        <ele>2787.9604492</ele>
        <time>2010-07-25T10:20:29Z</time>
      </trkpt>
      <trkpt lat="44.44421" lon="6.66049">
        <ele>2784.1152344</ele>
        <time>2010-07-25T10:20:32Z</time>
      </trkpt>
      <trkpt lat="44.44447" lon="6.66046">
        <ele>2777.8671875</ele>
        <time>2010-07-25T10:20:37Z</time>
      </trkpt>
      <trkpt lat="44.44465" lon="6.66053">
        <ele>2774.5024414</ele>
        <time>2010-07-25T10:20:41Z</time>
      </trkpt>
      <trkpt lat="44.4448" lon="6.66063">
        <ele>2771.137207</ele>
        <time>2010-07-25T10:20:45Z</time>
      </trkpt>
      <trkpt lat="44.44483" lon="6.66066">
        <ele>2767.7729492</ele>
        <time>2010-07-25T10:20:49Z</time>
      </trkpt>
      <trkpt lat="44.44471" lon="6.66073">
        <ele>2763.4467773</ele>
        <time>2010-07-25T10:20:54Z</time>
      </trkpt>
      <trkpt lat="44.44468" lon="6.66075">
        <ele>2762.4858398</ele>
        <time>2010-07-25T10:20:55Z</time>
      </trkpt>
      <trkpt lat="44.44448" lon="6.66096">
        <ele>2757.6791992</ele>
        <time>2010-07-25T10:21:02Z</time>
      </trkpt>
      <trkpt lat="44.44446" lon="6.66103">
        <ele>2757.6791992</ele>
        <time>2010-07-25T10:21:04Z</time>
      </trkpt>
      <trkpt lat="44.44452" lon="6.66107">
        <ele>2756.7177734</ele>
        <time>2010-07-25T10:21:08Z</time>
      </trkpt>
      <trkpt lat="44.44462" lon="6.66108">
        <ele>2754.7954102</ele>
        <time>2010-07-25T10:21:11Z</time>
      </trkpt>
      <trkpt lat="44.44463" lon="6.66114">
        <ele>2751.4306641</ele>
        <time>2010-07-25T10:21:16Z</time>
      </trkpt>
      <trkpt lat="44.44462" lon="6.66114">
        <ele>2748.065918</ele>
        <time>2010-07-25T10:21:23Z</time>
      </trkpt>
      <trkpt lat="44.44461" lon="6.66112">
        <ele>2748.546875</ele>
        <time>2010-07-25T10:21:50Z</time>
      </trkpt>
      <trkpt lat="44.44458" lon="6.66119">
        <ele>2745.6625977</ele>
        <time>2010-07-25T10:22:40Z</time>
      </trkpt>
      <trkpt lat="44.44448" lon="6.66138">
        <ele>2742.7788086</ele>
        <time>2010-07-25T10:22:45Z</time>
      </trkpt>
      <trkpt lat="44.44439" lon="6.66149">
        <ele>2740.8564453</ele>
        <time>2010-07-25T10:22:49Z</time>
      </trkpt>
      <trkpt lat="44.44435" lon="6.66168">
        <ele>2744.2207031</ele>
        <time>2010-07-25T10:22:55Z</time>
      </trkpt>
      <trkpt lat="44.44432" lon="6.66176">
        <ele>2741.8173828</ele>
        <time>2010-07-25T10:23:00Z</time>
      </trkpt>
      <trkpt lat="44.44431" lon="6.66178">
        <ele>2743.2592773</ele>
        <time>2010-07-25T10:23:06Z</time>
      </trkpt>
      <trkpt lat="44.44427" lon="6.66184">
        <ele>2743.7402344</ele>
        <time>2010-07-25T10:23:21Z</time>
      </trkpt>
      <trkpt lat="44.44416" lon="6.66189">
        <ele>2743.2592773</ele>
        <time>2010-07-25T10:23:28Z</time>
      </trkpt>
      <trkpt lat="44.44405" lon="6.66194">
        <ele>2741.8173828</ele>
        <time>2010-07-25T10:23:34Z</time>
      </trkpt>
      <trkpt lat="44.44387" lon="6.66208">
        <ele>2739.4140625</ele>
        <time>2010-07-25T10:23:43Z</time>
      </trkpt>
      <trkpt lat="44.4438" lon="6.66222">
        <ele>2737.4912109</ele>
        <time>2010-07-25T10:23:48Z</time>
      </trkpt>
      <trkpt lat="44.44376" lon="6.66229">
        <ele>2736.0493164</ele>
        <time>2010-07-25T10:23:52Z</time>
      </trkpt>
      <trkpt lat="44.44374" lon="6.66229">
        <ele>2732.2041016</ele>
        <time>2010-07-25T10:24:10Z</time>
      </trkpt>
      <trkpt lat="44.44371" lon="6.66239">
        <ele>2733.6459961</ele>
        <time>2010-07-25T10:25:12Z</time>
      </trkpt>
      <trkpt lat="44.44369" lon="6.66249">
        <ele>2732.6845703</ele>
        <time>2010-07-25T10:25:15Z</time>
      </trkpt>
      <trkpt lat="44.44379" lon="6.66261">
        <ele>2730.762207</ele>
        <time>2010-07-25T10:25:20Z</time>
      </trkpt>
      <trkpt lat="44.44382" lon="6.66273">
        <ele>2729.3203125</ele>
        <time>2010-07-25T10:25:24Z</time>
      </trkpt>
      <trkpt lat="44.44385" lon="6.66296">
        <ele>2730.28125</ele>
        <time>2010-07-25T10:25:30Z</time>
      </trkpt>
      <trkpt lat="44.44382" lon="6.66318">
        <ele>2726.4360352</ele>
        <time>2010-07-25T10:25:36Z</time>
      </trkpt>
      <trkpt lat="44.44377" lon="6.6633">
        <ele>2720.1875</ele>
        <time>2010-07-25T10:25:40Z</time>
      </trkpt>
      <trkpt lat="44.44378" lon="6.66334">
        <ele>2718.2651367</ele>
        <time>2010-07-25T10:25:43Z</time>
      </trkpt>
      <trkpt lat="44.44384" lon="6.6633">
        <ele>2717.3037109</ele>
        <time>2010-07-25T10:25:47Z</time>
      </trkpt>
      <trkpt lat="44.44397" lon="6.66322">
        <ele>2715.8618164</ele>
        <time>2010-07-25T10:25:54Z</time>
      </trkpt>
      <trkpt lat="44.44409" lon="6.66319">
        <ele>2712.4970703</ele>
        <time>2010-07-25T10:26:00Z</time>
      </trkpt>
      <trkpt lat="44.44418" lon="6.66319">
        <ele>2709.6132812</ele>
        <time>2010-07-25T10:26:05Z</time>
      </trkpt>
      <trkpt lat="44.44419" lon="6.66322">
        <ele>2708.1713867</ele>
        <time>2010-07-25T10:26:08Z</time>
      </trkpt>
      <trkpt lat="44.44414" lon="6.66334">
        <ele>2702.8837891</ele>
        <time>2010-07-25T10:26:13Z</time>
      </trkpt>
      <trkpt lat="44.44413" lon="6.66336">
        <ele>2701.9223633</ele>
        <time>2010-07-25T10:26:20Z</time>
      </trkpt>
      <trkpt lat="44.44415" lon="6.66337">
        <ele>2706.7290039</ele>
        <time>2010-07-25T10:27:20Z</time>
      </trkpt>
      <trkpt lat="44.44413" lon="6.66349">
        <ele>2707.2094727</ele>
        <time>2010-07-25T10:27:25Z</time>
      </trkpt>
      <trkpt lat="44.44421" lon="6.66352">
        <ele>2706.7290039</ele>
        <time>2010-07-25T10:27:29Z</time>
      </trkpt>
      <trkpt lat="44.44439" lon="6.66345">
        <ele>2704.3256836</ele>
        <time>2010-07-25T10:27:34Z</time>
      </trkpt>
      <trkpt lat="44.44442" lon="6.66343">
        <ele>2703.8452148</ele>
        <time>2010-07-25T10:27:35Z</time>
      </trkpt>
      <trkpt lat="44.44443" lon="6.66352">
        <ele>2700</ele>
        <time>2010-07-25T10:27:39Z</time>
      </trkpt>
      <trkpt lat="44.44439" lon="6.66387">
        <ele>2693.7514648</ele>
        <time>2010-07-25T10:27:46Z</time>
      </trkpt>
      <trkpt lat="44.44431" lon="6.664">
        <ele>2684.6191406</ele>
        <time>2010-07-25T10:27:51Z</time>
      </trkpt>
      <trkpt lat="44.44421" lon="6.66421">
        <ele>2680.2929688</ele>
        <time>2010-07-25T10:27:56Z</time>
      </trkpt>
      <trkpt lat="44.44411" lon="6.66444">
        <ele>2676.9287109</ele>
        <time>2010-07-25T10:28:01Z</time>
      </trkpt>
      <trkpt lat="44.44399" lon="6.66464">
        <ele>2673.5634766</ele>
        <time>2010-07-25T10:28:06Z</time>
      </trkpt>
      <trkpt lat="44.44383" lon="6.66485">
        <ele>2666.8344727</ele>
        <time>2010-07-25T10:28:11Z</time>
      </trkpt>
      <trkpt lat="44.44377" lon="6.66498">
        <ele>2662.027832</ele>
        <time>2010-07-25T10:28:15Z</time>
      </trkpt>
      <trkpt lat="44.44378" lon="6.66498">
        <ele>2660.5859375</ele>
        <time>2010-07-25T10:28:17Z</time>
      </trkpt>
      <trkpt lat="44.44394" lon="6.66499">
        <ele>2655.7792969</ele>
        <time>2010-07-25T10:28:22Z</time>
      </trkpt>
      <trkpt lat="44.44412" lon="6.66499">
        <ele>2652.4150391</ele>
        <time>2010-07-25T10:28:27Z</time>
      </trkpt>
      <trkpt lat="44.44428" lon="6.66487">
        <ele>2649.050293</ele>
        <time>2010-07-25T10:28:32Z</time>
      </trkpt>
      <trkpt lat="44.44435" lon="6.66483">
        <ele>2647.1279297</ele>
        <time>2010-07-25T10:28:34Z</time>
      </trkpt>
      <trkpt lat="44.44443" lon="6.66479">
        <ele>2645.2050781</ele>
        <time>2010-07-25T10:28:36Z</time>
      </trkpt>
      <trkpt lat="44.44463" lon="6.66472">
        <ele>2639.9174805</ele>
        <time>2010-07-25T10:28:41Z</time>
      </trkpt>
      <trkpt lat="44.44474" lon="6.66473">
        <ele>2635.1108398</ele>
        <time>2010-07-25T10:28:44Z</time>
      </trkpt>
      <trkpt lat="44.44485" lon="6.66469">
        <ele>2631.265625</ele>
        <time>2010-07-25T10:28:48Z</time>
      </trkpt>
      <trkpt lat="44.4449" lon="6.66464">
        <ele>2629.3432617</ele>
        <time>2010-07-25T10:28:53Z</time>
      </trkpt>
      <trkpt lat="44.44491" lon="6.66463">
        <ele>2628.8623047</ele>
        <time>2010-07-25T10:28:54Z</time>
      </trkpt>
      <trkpt lat="44.44496" lon="6.66462">
        <ele>2625.9785156</ele>
        <time>2010-07-25T10:29:01Z</time>
      </trkpt>
      <trkpt lat="44.44496" lon="6.66464">
        <ele>2627.4204102</ele>
        <time>2010-07-25T10:29:02Z</time>
      </trkpt>
      <trkpt lat="44.44495" lon="6.66481">
        <ele>2625.0170898</ele>
        <time>2010-07-25T10:29:07Z</time>
      </trkpt>
      <trkpt lat="44.44497" lon="6.6649">
        <ele>2625.0170898</ele>
        <time>2010-07-25T10:29:09Z</time>
      </trkpt>
      <trkpt lat="44.44491" lon="6.66528">
        <ele>2619.2495117</ele>
        <time>2010-07-25T10:29:15Z</time>
      </trkpt>
      <trkpt lat="44.44488" lon="6.66546">
        <ele>2617.3266602</ele>
        <time>2010-07-25T10:29:19Z</time>
      </trkpt>
      <trkpt lat="44.4448" lon="6.66552">
        <ele>2614.4428711</ele>
        <time>2010-07-25T10:29:25Z</time>
      </trkpt>
      <trkpt lat="44.44483" lon="6.66555">
        <ele>2613.4814453</ele>
        <time>2010-07-25T10:29:27Z</time>
      </trkpt>
      <trkpt lat="44.44487" lon="6.66559">
        <ele>2611.5585938</ele>
        <time>2010-07-25T10:29:29Z</time>
      </trkpt>
      <trkpt lat="44.44498" lon="6.66557">
        <ele>2609.6357422</ele>
        <time>2010-07-25T10:29:33Z</time>
      </trkpt>
      <trkpt lat="44.44515" lon="6.66554">
        <ele>2606.2714844</ele>
        <time>2010-07-25T10:29:38Z</time>
      </trkpt>
      <trkpt lat="44.44531" lon="6.66545">
        <ele>2601.9453125</ele>
        <time>2010-07-25T10:29:43Z</time>
      </trkpt>
      <trkpt lat="44.4454" lon="6.66557">
        <ele>2600.0229492</ele>
        <time>2010-07-25T10:29:47Z</time>
      </trkpt>
      <trkpt lat="44.44541" lon="6.66561">
        <ele>2599.0615234</ele>
        <time>2010-07-25T10:29:48Z</time>
      </trkpt>
      <trkpt lat="44.44545" lon="6.66578">
        <ele>2591.8518066</ele>
        <time>2010-07-25T10:29:53Z</time>
      </trkpt>
      <trkpt lat="44.44544" lon="6.66584">
        <ele>2590.409668</ele>
        <time>2010-07-25T10:29:55Z</time>
      </trkpt>
      <trkpt lat="44.44544" lon="6.66595">
        <ele>2588.4873047</ele>
        <time>2010-07-25T10:29:59Z</time>
      </trkpt>
      <trkpt lat="44.44553" lon="6.66603">
        <ele>2583.6804199</ele>
        <time>2010-07-25T10:30:05Z</time>
      </trkpt>
      <trkpt lat="44.44556" lon="6.66607">
        <ele>2578.8737793</ele>
        <time>2010-07-25T10:30:09Z</time>
      </trkpt>
      <trkpt lat="44.44556" lon="6.66611">
        <ele>2578.3933105</ele>
        <time>2010-07-25T10:30:13Z</time>
      </trkpt>
      <trkpt lat="44.44557" lon="6.66616">
        <ele>2588.0065918</ele>
        <time>2010-07-25T10:30:24Z</time>
      </trkpt>
      <trkpt lat="44.44556" lon="6.6662">
        <ele>2579.3544922</ele>
        <time>2010-07-25T10:30:57Z</time>
      </trkpt>
      <trkpt lat="44.44555" lon="6.66622">
        <ele>2576.951416</ele>
        <time>2010-07-25T10:31:01Z</time>
      </trkpt>
      <trkpt lat="44.44558" lon="6.66619">
        <ele>2577.9125977</ele>
        <time>2010-07-25T10:31:12Z</time>
      </trkpt>
      <trkpt lat="44.44558" lon="6.66618">
        <ele>2577.9125977</ele>
        <time>2010-07-25T10:31:13Z</time>
      </trkpt>
      <trkpt lat="44.4456" lon="6.66616">
        <ele>2578.3933105</ele>
        <time>2010-07-25T10:31:19Z</time>
      </trkpt>
      <trkpt lat="44.44565" lon="6.66618">
        <ele>2588.4873047</ele>
        <time>2010-07-25T10:32:29Z</time>
      </trkpt>
      <trkpt lat="44.44572" lon="6.66617">
        <ele>2583.6804199</ele>
        <time>2010-07-25T10:32:34Z</time>
      </trkpt>
      <trkpt lat="44.44573" lon="6.66616">
        <ele>2583.199707</ele>
        <time>2010-07-25T10:32:35Z</time>
      </trkpt>
      <trkpt lat="44.44578" lon="6.66605">
        <ele>2579.3544922</ele>
        <time>2010-07-25T10:32:39Z</time>
      </trkpt>
      <trkpt lat="44.44591" lon="6.66584">
        <ele>2575.0285645</ele>
        <time>2010-07-25T10:32:45Z</time>
      </trkpt>
      <trkpt lat="44.44595" lon="6.66581">
        <ele>2574.0673828</ele>
        <time>2010-07-25T10:32:47Z</time>
      </trkpt>
      <trkpt lat="44.44597" lon="6.66587">
        <ele>2565.8959961</ele>
        <time>2010-07-25T10:32:52Z</time>
      </trkpt>
      <trkpt lat="44.44597" lon="6.66588">
        <ele>2564.9348145</ele>
        <time>2010-07-25T10:32:53Z</time>
      </trkpt>
      <trkpt lat="44.44609" lon="6.66587">
        <ele>2560.6088867</ele>
        <time>2010-07-25T10:32:58Z</time>
      </trkpt>
      <trkpt lat="44.44622" lon="6.66595">
        <ele>2557.2443848</ele>
        <time>2010-07-25T10:33:03Z</time>
      </trkpt>
      <trkpt lat="44.44625" lon="6.66598">
        <ele>2556.7636719</ele>
        <time>2010-07-25T10:33:04Z</time>
      </trkpt>
      <trkpt lat="44.44634" lon="6.66609">
        <ele>2553.8796387</ele>
        <time>2010-07-25T10:33:07Z</time>
      </trkpt>
      <trkpt lat="44.44649" lon="6.66618">
        <ele>2549.5537109</ele>
        <time>2010-07-25T10:33:11Z</time>
      </trkpt>
      <trkpt lat="44.44668" lon="6.6662">
        <ele>2543.3051758</ele>
        <time>2010-07-25T10:33:16Z</time>
      </trkpt>
      <trkpt lat="44.44679" lon="6.66632">
        <ele>2539.9404297</ele>
        <time>2010-07-25T10:33:20Z</time>
      </trkpt>
      <trkpt lat="44.44682" lon="6.66637">
        <ele>2538.9790039</ele>
        <time>2010-07-25T10:33:21Z</time>
      </trkpt>
      <trkpt lat="44.44691" lon="6.66675">
        <ele>2533.6918945</ele>
        <time>2010-07-25T10:33:27Z</time>
      </trkpt>
      <trkpt lat="44.44689" lon="6.667">
        <ele>2531.2885742</ele>
        <time>2010-07-25T10:33:32Z</time>
      </trkpt>
      <trkpt lat="44.44684" lon="6.66707">
        <ele>2529.8466797</ele>
        <time>2010-07-25T10:33:35Z</time>
      </trkpt>
      <trkpt lat="44.44691" lon="6.66713">
        <ele>2529.3659668</ele>
        <time>2010-07-25T10:33:38Z</time>
      </trkpt>
      <trkpt lat="44.44701" lon="6.66707">
        <ele>2527.4433594</ele>
        <time>2010-07-25T10:33:41Z</time>
      </trkpt>
      <trkpt lat="44.44715" lon="6.66697">
        <ele>2525.0400391</ele>
        <time>2010-07-25T10:33:45Z</time>
      </trkpt>
      <trkpt lat="44.4472" lon="6.66697">
        <ele>2524.5595703</ele>
        <time>2010-07-25T10:33:46Z</time>
      </trkpt>
      <trkpt lat="44.44738" lon="6.667">
        <ele>2519.7526855</ele>
        <time>2010-07-25T10:33:50Z</time>
      </trkpt>
      <trkpt lat="44.44757" lon="6.66699">
        <ele>2516.8688965</ele>
        <time>2010-07-25T10:33:54Z</time>
      </trkpt>
      <trkpt lat="44.4476" lon="6.66702">
        <ele>2517.8300781</ele>
        <time>2010-07-25T10:33:55Z</time>
      </trkpt>
      <trkpt lat="44.44765" lon="6.66709">
        <ele>2515.9074707</ele>
        <time>2010-07-25T10:33:57Z</time>
      </trkpt>
      <trkpt lat="44.44766" lon="6.66731">
        <ele>2513.9848633</ele>
        <time>2010-07-25T10:34:01Z</time>
      </trkpt>
      <trkpt lat="44.44752" lon="6.66755">
        <ele>2510.6203613</ele>
        <time>2010-07-25T10:34:05Z</time>
      </trkpt>
      <trkpt lat="44.44737" lon="6.66781">
        <ele>2506.7749023</ele>
        <time>2010-07-25T10:34:09Z</time>
      </trkpt>
      <trkpt lat="44.44731" lon="6.66805">
        <ele>2501.0070801</ele>
        <time>2010-07-25T10:34:12Z</time>
      </trkpt>
      <trkpt lat="44.44725" lon="6.66818">
        <ele>2495.7199707</ele>
        <time>2010-07-25T10:34:15Z</time>
      </trkpt>
      <trkpt lat="44.44726" lon="6.66819">
        <ele>2494.7585449</ele>
        <time>2010-07-25T10:34:16Z</time>
      </trkpt>
      <trkpt lat="44.44736" lon="6.66821">
        <ele>2490.432373</ele>
        <time>2010-07-25T10:34:20Z</time>
      </trkpt>
      <trkpt lat="44.44742" lon="6.66822">
        <ele>2488.0292969</ele>
        <time>2010-07-25T10:34:22Z</time>
      </trkpt>
      <trkpt lat="44.44762" lon="6.66813">
        <ele>2487.0678711</ele>
        <time>2010-07-25T10:34:26Z</time>
      </trkpt>
      <trkpt lat="44.44782" lon="6.66789">
        <ele>2486.1066895</ele>
        <time>2010-07-25T10:34:31Z</time>
      </trkpt>
      <trkpt lat="44.44794" lon="6.66782">
        <ele>2483.7033691</ele>
        <time>2010-07-25T10:34:34Z</time>
      </trkpt>
      <trkpt lat="44.44805" lon="6.66774">
        <ele>2482.2614746</ele>
        <time>2010-07-25T10:34:37Z</time>
      </trkpt>
      <trkpt lat="44.44823" lon="6.6676">
        <ele>2482.2614746</ele>
        <time>2010-07-25T10:34:42Z</time>
      </trkpt>
      <trkpt lat="44.44828" lon="6.66759">
        <ele>2480.3388672</ele>
        <time>2010-07-25T10:34:44Z</time>
      </trkpt>
      <trkpt lat="44.44851" lon="6.66771">
        <ele>2478.8967285</ele>
        <time>2010-07-25T10:34:48Z</time>
      </trkpt>
      <trkpt lat="44.4485" lon="6.66775">
        <ele>2479.3774414</ele>
        <time>2010-07-25T10:34:50Z</time>
      </trkpt>
      <trkpt lat="44.44832" lon="6.66781">
        <ele>2477.454834</ele>
        <time>2010-07-25T10:34:55Z</time>
      </trkpt>
      <trkpt lat="44.44826" lon="6.66791">
        <ele>2475.0512695</ele>
        <time>2010-07-25T10:34:58Z</time>
      </trkpt>
      <trkpt lat="44.44812" lon="6.66814">
        <ele>2473.1289062</ele>
        <time>2010-07-25T10:35:04Z</time>
      </trkpt>
      <trkpt lat="44.44813" lon="6.66814">
        <ele>2473.609375</ele>
        <time>2010-07-25T10:35:10Z</time>
      </trkpt>
      <trkpt lat="44.44814" lon="6.66819">
        <ele>2478.4162598</ele>
        <time>2010-07-25T10:35:24Z</time>
      </trkpt>
      <trkpt lat="44.44815" lon="6.66816">
        <ele>2479.3774414</ele>
        <time>2010-07-25T10:35:31Z</time>
      </trkpt>
      <trkpt lat="44.44828" lon="6.66811">
        <ele>2477.454834</ele>
        <time>2010-07-25T10:35:36Z</time>
      </trkpt>
      <trkpt lat="44.44843" lon="6.66817">
        <ele>2479.3774414</ele>
        <time>2010-07-25T10:35:40Z</time>
      </trkpt>
      <trkpt lat="44.44857" lon="6.6681">
        <ele>2476.9743652</ele>
        <time>2010-07-25T10:35:45Z</time>
      </trkpt>
      <trkpt lat="44.44872" lon="6.66813">
        <ele>2473.1289062</ele>
        <time>2010-07-25T10:35:50Z</time>
      </trkpt>
      <trkpt lat="44.44866" lon="6.6682">
        <ele>2470.7255859</ele>
        <time>2010-07-25T10:35:53Z</time>
      </trkpt>
      <trkpt lat="44.4485" lon="6.66839">
        <ele>2467.3608398</ele>
        <time>2010-07-25T10:35:59Z</time>
      </trkpt>
      <trkpt lat="44.44843" lon="6.66854">
        <ele>2463.9963379</ele>
        <time>2010-07-25T10:36:03Z</time>
      </trkpt>
      <trkpt lat="44.44835" lon="6.66885">
        <ele>2460.151123</ele>
        <time>2010-07-25T10:36:07Z</time>
      </trkpt>
      <trkpt lat="44.44834" lon="6.66917">
        <ele>2460.151123</ele>
        <time>2010-07-25T10:36:10Z</time>
      </trkpt>
      <trkpt lat="44.4483" lon="6.66937">
        <ele>2456.786377</ele>
        <time>2010-07-25T10:36:12Z</time>
      </trkpt>
      <trkpt lat="44.44824" lon="6.66964">
        <ele>2454.3830566</ele>
        <time>2010-07-25T10:36:15Z</time>
      </trkpt>
      <trkpt lat="44.44831" lon="6.66975">
        <ele>2451.4992676</ele>
        <time>2010-07-25T10:36:19Z</time>
      </trkpt>
      <trkpt lat="44.44842" lon="6.66976">
        <ele>2451.4992676</ele>
        <time>2010-07-25T10:36:23Z</time>
      </trkpt>
      <trkpt lat="44.44852" lon="6.66981">
        <ele>2447.6540527</ele>
        <time>2010-07-25T10:36:26Z</time>
      </trkpt>
      <trkpt lat="44.44869" lon="6.66995">
        <ele>2446.2121582</ele>
        <time>2010-07-25T10:36:32Z</time>
      </trkpt>
      <trkpt lat="44.44877" lon="6.66998">
        <ele>2447.6540527</ele>
        <time>2010-07-25T10:36:34Z</time>
      </trkpt>
      <trkpt lat="44.44887" lon="6.67017">
        <ele>2451.9797363</ele>
        <time>2010-07-25T10:36:38Z</time>
      </trkpt>
      <trkpt lat="44.44895" lon="6.67045">
        <ele>2455.3444824</ele>
        <time>2010-07-25T10:36:42Z</time>
      </trkpt>
      <trkpt lat="44.44897" lon="6.67052">
        <ele>2454.3830566</ele>
        <time>2010-07-25T10:36:43Z</time>
      </trkpt>
      <trkpt lat="44.44907" lon="6.67067">
        <ele>2451.4992676</ele>
        <time>2010-07-25T10:36:47Z</time>
      </trkpt>
      <trkpt lat="44.44897" lon="6.67065">
        <ele>2449.5766602</ele>
        <time>2010-07-25T10:36:51Z</time>
      </trkpt>
      <trkpt lat="44.44891" lon="6.67062">
        <ele>2449.0959473</ele>
        <time>2010-07-25T10:36:52Z</time>
      </trkpt>
      <trkpt lat="44.44874" lon="6.67056">
        <ele>2447.1733398</ele>
        <time>2010-07-25T10:36:55Z</time>
      </trkpt>
      <trkpt lat="44.44853" lon="6.67059">
        <ele>2440.9245605</ele>
        <time>2010-07-25T10:36:59Z</time>
      </trkpt>
      <trkpt lat="44.44837" lon="6.67064">
        <ele>2436.5986328</ele>
        <time>2010-07-25T10:37:04Z</time>
      </trkpt>
      <trkpt lat="44.44822" lon="6.67072">
        <ele>2434.1955566</ele>
        <time>2010-07-25T10:37:09Z</time>
      </trkpt>
      <trkpt lat="44.44811" lon="6.67077">
        <ele>2432.753418</ele>
        <time>2010-07-25T10:37:14Z</time>
      </trkpt>
      <trkpt lat="44.44807" lon="6.67076">
        <ele>2431.3115234</ele>
        <time>2010-07-25T10:37:18Z</time>
      </trkpt>
      <trkpt lat="44.44808" lon="6.67076">
        <ele>2430.3503418</ele>
        <time>2010-07-25T10:37:22Z</time>
      </trkpt>
      <trkpt lat="44.44805" lon="6.67076">
        <ele>2429.8696289</ele>
        <time>2010-07-25T10:37:29Z</time>
      </trkpt>
      <trkpt lat="44.44804" lon="6.67078">
        <ele>2430.3503418</ele>
        <time>2010-07-25T10:37:37Z</time>
      </trkpt>
      <trkpt lat="44.44792" lon="6.67084">
        <ele>2428.4277344</ele>
        <time>2010-07-25T10:37:42Z</time>
      </trkpt>
      <trkpt lat="44.44785" lon="6.67088">
        <ele>2426.0241699</ele>
        <time>2010-07-25T10:37:47Z</time>
      </trkpt>
      <trkpt lat="44.44787" lon="6.67089">
        <ele>2425.543457</ele>
        <time>2010-07-25T10:37:51Z</time>
      </trkpt>
      <trkpt lat="44.44794" lon="6.67087">
        <ele>2425.0627441</ele>
        <time>2010-07-25T10:37:56Z</time>
      </trkpt>
      <trkpt lat="44.44797" lon="6.67088">
        <ele>2425.0627441</ele>
        <time>2010-07-25T10:38:04Z</time>
      </trkpt>
      <trkpt lat="44.44808" lon="6.6709">
        <ele>2421.2175293</ele>
        <time>2010-07-25T10:38:10Z</time>
      </trkpt>
      <trkpt lat="44.44809" lon="6.67091">
        <ele>2420.2563477</ele>
        <time>2010-07-25T10:38:11Z</time>
      </trkpt>
      <trkpt lat="44.44812" lon="6.6709">
        <ele>2419.7756348</ele>
        <time>2010-07-25T10:38:16Z</time>
      </trkpt>
      <trkpt lat="44.44813" lon="6.67091">
        <ele>2420.2563477</ele>
        <time>2010-07-25T10:38:17Z</time>
      </trkpt>
      <trkpt lat="44.44804" lon="6.67099">
        <ele>2416.4111328</ele>
        <time>2010-07-25T10:38:22Z</time>
      </trkpt>
      <trkpt lat="44.44801" lon="6.671">
        <ele>2416.8918457</ele>
        <time>2010-07-25T10:38:25Z</time>
      </trkpt>
      <trkpt lat="44.4481" lon="6.67098">
        <ele>2441.8859863</ele>
        <time>2010-07-25T10:38:46Z</time>
      </trkpt>
      <trkpt lat="44.448" lon="6.671">
        <ele>2423.1403809</ele>
        <time>2010-07-25T10:39:16Z</time>
      </trkpt>
      <trkpt lat="44.44795" lon="6.67103">
        <ele>2421.2175293</ele>
        <time>2010-07-25T10:39:21Z</time>
      </trkpt>
      <trkpt lat="44.44787" lon="6.67106">
        <ele>2419.295166</ele>
        <time>2010-07-25T10:39:26Z</time>
      </trkpt>
      <trkpt lat="44.44786" lon="6.67107">
        <ele>2418.8144531</ele>
        <time>2010-07-25T10:39:33Z</time>
      </trkpt>
      <trkpt lat="44.44782" lon="6.67107">
        <ele>2419.7756348</ele>
        <time>2010-07-25T10:39:48Z</time>
      </trkpt>
      <trkpt lat="44.44782" lon="6.67111">
        <ele>2420.2563477</ele>
        <time>2010-07-25T10:39:52Z</time>
      </trkpt>
      <trkpt lat="44.44792" lon="6.67112">
        <ele>2418.8144531</ele>
        <time>2010-07-25T10:39:57Z</time>
      </trkpt>
      <trkpt lat="44.44798" lon="6.67112">
        <ele>2419.295166</ele>
        <time>2010-07-25T10:40:01Z</time>
      </trkpt>
      <trkpt lat="44.44808" lon="6.67112">
        <ele>2417.3723145</ele>
        <time>2010-07-25T10:40:05Z</time>
      </trkpt>
      <trkpt lat="44.44812" lon="6.67113">
        <ele>2417.3723145</ele>
        <time>2010-07-25T10:40:09Z</time>
      </trkpt>
      <trkpt lat="44.44813" lon="6.67115">
        <ele>2414.9692383</ele>
        <time>2010-07-25T10:40:15Z</time>
      </trkpt>
      <trkpt lat="44.44802" lon="6.67131">
        <ele>2414.4885254</ele>
        <time>2010-07-25T10:40:20Z</time>
      </trkpt>
      <trkpt lat="44.44794" lon="6.67135">
        <ele>2414.4885254</ele>
        <time>2010-07-25T10:40:23Z</time>
      </trkpt>
      <trkpt lat="44.44793" lon="6.67137">
        <ele>2413.5270996</ele>
        <time>2010-07-25T10:40:25Z</time>
      </trkpt>
      <trkpt lat="44.448" lon="6.67146">
        <ele>2409.2011719</ele>
        <time>2010-07-25T10:40:28Z</time>
      </trkpt>
      <trkpt lat="44.44809" lon="6.67153">
        <ele>2406.7978516</ele>
        <time>2010-07-25T10:40:30Z</time>
      </trkpt>
      <trkpt lat="44.44824" lon="6.67169">
        <ele>2400.5493164</ele>
        <time>2010-07-25T10:40:35Z</time>
      </trkpt>
      <trkpt lat="44.44828" lon="6.67177">
        <ele>2400.0688477</ele>
        <time>2010-07-25T10:40:37Z</time>
      </trkpt>
      <trkpt lat="44.44838" lon="6.67174">
        <ele>2394.3005371</ele>
        <time>2010-07-25T10:40:42Z</time>
      </trkpt>
      <trkpt lat="44.44855" lon="6.67165">
        <ele>2390.4553223</ele>
        <time>2010-07-25T10:40:48Z</time>
      </trkpt>
      <trkpt lat="44.44875" lon="6.67162">
        <ele>2388.532959</ele>
        <time>2010-07-25T10:40:54Z</time>
      </trkpt>
      <trkpt lat="44.44885" lon="6.67162">
        <ele>2388.532959</ele>
        <time>2010-07-25T10:40:57Z</time>
      </trkpt>
      <trkpt lat="44.4489" lon="6.67168">
        <ele>2387.5715332</ele>
        <time>2010-07-25T10:40:59Z</time>
      </trkpt>
      <trkpt lat="44.44906" lon="6.67185">
        <ele>2388.0522461</ele>
        <time>2010-07-25T10:41:03Z</time>
      </trkpt>
      <trkpt lat="44.44913" lon="6.67196">
        <ele>2387.0908203</ele>
        <time>2010-07-25T10:41:05Z</time>
      </trkpt>
      <trkpt lat="44.44926" lon="6.67226">
        <ele>2385.1682129</ele>
        <time>2010-07-25T10:41:10Z</time>
      </trkpt>
      <trkpt lat="44.44939" lon="6.67236">
        <ele>2383.2456055</ele>
        <time>2010-07-25T10:41:13Z</time>
      </trkpt>
      <trkpt lat="44.44944" lon="6.67236">
        <ele>2382.2844238</ele>
        <time>2010-07-25T10:41:14Z</time>
      </trkpt>
      <trkpt lat="44.44967" lon="6.67234">
        <ele>2377.958252</ele>
        <time>2010-07-25T10:41:19Z</time>
      </trkpt>
      <trkpt lat="44.4497" lon="6.67249">
        <ele>2378.9194336</ele>
        <time>2010-07-25T10:41:22Z</time>
      </trkpt>
      <trkpt lat="44.44979" lon="6.67249">
        <ele>2377.958252</ele>
        <time>2010-07-25T10:41:27Z</time>
      </trkpt>
      <trkpt lat="44.44982" lon="6.67237">
        <ele>2377.958252</ele>
        <time>2010-07-25T10:41:29Z</time>
      </trkpt>
      <trkpt lat="44.44985" lon="6.67224">
        <ele>2376.5163574</ele>
        <time>2010-07-25T10:41:32Z</time>
      </trkpt>
      <trkpt lat="44.44989" lon="6.67238">
        <ele>2374.59375</ele>
        <time>2010-07-25T10:41:36Z</time>
      </trkpt>
      <trkpt lat="44.44999" lon="6.67265">
        <ele>2375.0742188</ele>
        <time>2010-07-25T10:41:40Z</time>
      </trkpt>
      <trkpt lat="44.44998" lon="6.67272">
        <ele>2375.0742188</ele>
        <time>2010-07-25T10:41:41Z</time>
      </trkpt>
      <trkpt lat="44.45005" lon="6.67293">
        <ele>2372.6711426</ele>
        <time>2010-07-25T10:41:46Z</time>
      </trkpt>
      <trkpt lat="44.45013" lon="6.67314">
        <ele>2371.2290039</ele>
        <time>2010-07-25T10:41:51Z</time>
      </trkpt>
      <trkpt lat="44.45016" lon="6.67312">
        <ele>2369.7871094</ele>
        <time>2010-07-25T10:41:54Z</time>
      </trkpt>
      <trkpt lat="44.45015" lon="6.67295">
        <ele>2369.7871094</ele>
        <time>2010-07-25T10:41:58Z</time>
      </trkpt>
      <trkpt lat="44.45016" lon="6.6729">
        <ele>2369.7871094</ele>
        <time>2010-07-25T10:41:59Z</time>
      </trkpt>
      <trkpt lat="44.45016" lon="6.67266">
        <ele>2367.3837891</ele>
        <time>2010-07-25T10:42:04Z</time>
      </trkpt>
      <trkpt lat="44.45019" lon="6.67262">
        <ele>2366.9033203</ele>
        <time>2010-07-25T10:42:05Z</time>
      </trkpt>
      <trkpt lat="44.45022" lon="6.6724">
        <ele>2365.9418945</ele>
        <time>2010-07-25T10:42:09Z</time>
      </trkpt>
      <trkpt lat="44.45025" lon="6.67216">
        <ele>2366.4226074</ele>
        <time>2010-07-25T10:42:13Z</time>
      </trkpt>
      <trkpt lat="44.45028" lon="6.67198">
        <ele>2364.5</ele>
        <time>2010-07-25T10:42:17Z</time>
      </trkpt>
      <trkpt lat="44.4504" lon="6.6722">
        <ele>2364.5</ele>
        <time>2010-07-25T10:42:21Z</time>
      </trkpt>
      <trkpt lat="44.45055" lon="6.67241">
        <ele>2357.770752</ele>
        <time>2010-07-25T10:42:26Z</time>
      </trkpt>
      <trkpt lat="44.45058" lon="6.67245">
        <ele>2356.3286133</ele>
        <time>2010-07-25T10:42:27Z</time>
      </trkpt>
      <trkpt lat="44.45067" lon="6.67262">
        <ele>2352.0026855</ele>
        <time>2010-07-25T10:42:30Z</time>
      </trkpt>
      <trkpt lat="44.45071" lon="6.67278">
        <ele>2347.6767578</ele>
        <time>2010-07-25T10:42:35Z</time>
      </trkpt>
      <trkpt lat="44.45071" lon="6.67276">
        <ele>2345.2734375</ele>
        <time>2010-07-25T10:42:37Z</time>
      </trkpt>
      <trkpt lat="44.45069" lon="6.67274">
        <ele>2342.8701172</ele>
        <time>2010-07-25T10:42:39Z</time>
      </trkpt>
      <trkpt lat="44.45073" lon="6.67261">
        <ele>2346.715332</ele>
        <time>2010-07-25T10:42:43Z</time>
      </trkpt>
      <trkpt lat="44.45079" lon="6.67225">
        <ele>2351.0415039</ele>
        <time>2010-07-25T10:42:48Z</time>
      </trkpt>
      <trkpt lat="44.45086" lon="6.67193">
        <ele>2352.4833984</ele>
        <time>2010-07-25T10:42:52Z</time>
      </trkpt>
      <trkpt lat="44.45088" lon="6.67177">
        <ele>2351.0415039</ele>
        <time>2010-07-25T10:42:56Z</time>
      </trkpt>
      <trkpt lat="44.45086" lon="6.67174">
        <ele>2351.5222168</ele>
        <time>2010-07-25T10:42:57Z</time>
      </trkpt>
      <trkpt lat="44.451" lon="6.67201">
        <ele>2349.5996094</ele>
        <time>2010-07-25T10:43:01Z</time>
      </trkpt>
      <trkpt lat="44.45106" lon="6.67227">
        <ele>2351.0415039</ele>
        <time>2010-07-25T10:43:04Z</time>
      </trkpt>
      <trkpt lat="44.45111" lon="6.67243">
        <ele>2349.1188965</ele>
        <time>2010-07-25T10:43:06Z</time>
      </trkpt>
      <trkpt lat="44.45126" lon="6.67278">
        <ele>2348.6381836</ele>
        <time>2010-07-25T10:43:11Z</time>
      </trkpt>
      <trkpt lat="44.45126" lon="6.67283">
        <ele>2344.7927246</ele>
        <time>2010-07-25T10:43:15Z</time>
      </trkpt>
      <trkpt lat="44.45119" lon="6.67277">
        <ele>2335.6604004</ele>
        <time>2010-07-25T10:43:29Z</time>
      </trkpt>
      <trkpt lat="44.45121" lon="6.67281">
        <ele>2338.0637207</ele>
        <time>2010-07-25T10:43:33Z</time>
      </trkpt>
      <trkpt lat="44.4513" lon="6.67261">
        <ele>2336.1411133</ele>
        <time>2010-07-25T10:43:38Z</time>
      </trkpt>
      <trkpt lat="44.45132" lon="6.67251">
        <ele>2334.6992188</ele>
        <time>2010-07-25T10:43:40Z</time>
      </trkpt>
      <trkpt lat="44.45144" lon="6.67219">
        <ele>2331.8149414</ele>
        <time>2010-07-25T10:43:45Z</time>
      </trkpt>
      <trkpt lat="44.45147" lon="6.67213">
        <ele>2331.3342285</ele>
        <time>2010-07-25T10:43:46Z</time>
      </trkpt>
      <trkpt lat="44.45152" lon="6.67197">
        <ele>2329.892334</ele>
        <time>2010-07-25T10:43:49Z</time>
      </trkpt>
      <trkpt lat="44.45159" lon="6.67209">
        <ele>2328.9309082</ele>
        <time>2010-07-25T10:43:53Z</time>
      </trkpt>
      <trkpt lat="44.45163" lon="6.67224">
        <ele>2325.5664062</ele>
        <time>2010-07-25T10:43:55Z</time>
      </trkpt>
      <trkpt lat="44.45169" lon="6.67238">
        <ele>2323.6437988</ele>
        <time>2010-07-25T10:43:57Z</time>
      </trkpt>
      <trkpt lat="44.45177" lon="6.6727">
        <ele>2319.798584</ele>
        <time>2010-07-25T10:44:01Z</time>
      </trkpt>
      <trkpt lat="44.45181" lon="6.67284">
        <ele>2316.434082</ele>
        <time>2010-07-25T10:44:04Z</time>
      </trkpt>
      <trkpt lat="44.45183" lon="6.67289">
        <ele>2320.2792969</ele>
        <time>2010-07-25T10:44:05Z</time>
      </trkpt>
      <trkpt lat="44.45183" lon="6.67297">
        <ele>2316.434082</ele>
        <time>2010-07-25T10:44:10Z</time>
      </trkpt>
      <trkpt lat="44.4518" lon="6.67294">
        <ele>2315.953125</ele>
        <time>2010-07-25T10:44:28Z</time>
      </trkpt>
      <trkpt lat="44.45173" lon="6.67283">
        <ele>2282.3071289</ele>
        <time>2010-07-25T10:46:32Z</time>
      </trkpt>
      <trkpt lat="44.45177" lon="6.6729">
        <ele>2295.765625</ele>
        <time>2010-07-25T10:46:38Z</time>
      </trkpt>
      <trkpt lat="44.45178" lon="6.67291">
        <ele>2299.130127</ele>
        <time>2010-07-25T10:46:39Z</time>
      </trkpt>
      <trkpt lat="44.4518" lon="6.673">
        <ele>2306.8208008</ele>
        <time>2010-07-25T10:46:42Z</time>
      </trkpt>
      <trkpt lat="44.45189" lon="6.67308">
        <ele>2311.6274414</ele>
        <time>2010-07-25T10:46:46Z</time>
      </trkpt>
      <trkpt lat="44.45211" lon="6.67323">
        <ele>2315.953125</ele>
        <time>2010-07-25T10:46:51Z</time>
      </trkpt>
      <trkpt lat="44.45224" lon="6.67338">
        <ele>2314.9919434</ele>
        <time>2010-07-25T10:46:54Z</time>
      </trkpt>
      <trkpt lat="44.45241" lon="6.67346">
        <ele>2309.7045898</ele>
        <time>2010-07-25T10:46:59Z</time>
      </trkpt>
      <trkpt lat="44.45251" lon="6.67347">
        <ele>2302.9755859</ele>
        <time>2010-07-25T10:47:04Z</time>
      </trkpt>
      <trkpt lat="44.45255" lon="6.6735">
        <ele>2302.494873</ele>
        <time>2010-07-25T10:47:05Z</time>
      </trkpt>
      <trkpt lat="44.45266" lon="6.67358">
        <ele>2301.0529785</ele>
        <time>2010-07-25T10:47:08Z</time>
      </trkpt>
      <trkpt lat="44.45283" lon="6.67372">
        <ele>2296.7268066</ele>
        <time>2010-07-25T10:47:12Z</time>
      </trkpt>
      <trkpt lat="44.45301" lon="6.67393">
        <ele>2291.4396973</ele>
        <time>2010-07-25T10:47:16Z</time>
      </trkpt>
      <trkpt lat="44.45309" lon="6.67395">
        <ele>2289.5170898</ele>
        <time>2010-07-25T10:47:19Z</time>
      </trkpt>
      <trkpt lat="44.45308" lon="6.67383">
        <ele>2290.9589844</ele>
        <time>2010-07-25T10:47:21Z</time>
      </trkpt>
      <trkpt lat="44.45308" lon="6.67376">
        <ele>2291.4396973</ele>
        <time>2010-07-25T10:47:22Z</time>
      </trkpt>
      <trkpt lat="44.45307" lon="6.67341">
        <ele>2290.9589844</ele>
        <time>2010-07-25T10:47:26Z</time>
      </trkpt>
      <trkpt lat="44.45305" lon="6.67309">
        <ele>2289.036377</ele>
        <time>2010-07-25T10:47:30Z</time>
      </trkpt>
      <trkpt lat="44.45307" lon="6.67298">
        <ele>2289.9978027</ele>
        <time>2010-07-25T10:47:34Z</time>
      </trkpt>
      <trkpt lat="44.45326" lon="6.67312">
        <ele>2287.5944824</ele>
        <time>2010-07-25T10:47:39Z</time>
      </trkpt>
      <trkpt lat="44.45339" lon="6.67324">
        <ele>2280.3845215</ele>
        <time>2010-07-25T10:47:42Z</time>
      </trkpt>
      <trkpt lat="44.45356" lon="6.67342">
        <ele>2279.4230957</ele>
        <time>2010-07-25T10:47:46Z</time>
      </trkpt>
      <trkpt lat="44.45359" lon="6.67344">
        <ele>2277.9812012</ele>
        <time>2010-07-25T10:47:47Z</time>
      </trkpt>
      <trkpt lat="44.45379" lon="6.67367">
        <ele>2274.1359863</ele>
        <time>2010-07-25T10:47:52Z</time>
      </trkpt>
      <trkpt lat="44.45381" lon="6.67368">
        <ele>2271.2519531</ele>
        <time>2010-07-25T10:47:54Z</time>
      </trkpt>
      <trkpt lat="44.45377" lon="6.67366">
        <ele>2263.5612793</ele>
        <time>2010-07-25T10:48:02Z</time>
      </trkpt>
      <trkpt lat="44.45377" lon="6.67365">
        <ele>2261.1582031</ele>
        <time>2010-07-25T10:48:16Z</time>
      </trkpt>
      <trkpt lat="44.45375" lon="6.67364">
        <ele>2258.2741699</ele>
        <time>2010-07-25T10:48:20Z</time>
      </trkpt>
      <trkpt lat="44.45376" lon="6.67363">
        <ele>2258.2741699</ele>
        <time>2010-07-25T10:48:21Z</time>
      </trkpt>
      <trkpt lat="44.45384" lon="6.67351">
        <ele>2255.3903809</ele>
        <time>2010-07-25T10:48:26Z</time>
      </trkpt>
      <trkpt lat="44.45401" lon="6.67343">
        <ele>2256.8322754</ele>
        <time>2010-07-25T10:48:31Z</time>
      </trkpt>
      <trkpt lat="44.45404" lon="6.67344">
        <ele>2257.3129883</ele>
        <time>2010-07-25T10:48:32Z</time>
      </trkpt>
      <trkpt lat="44.45415" lon="6.67351">
        <ele>2259.2355957</ele>
        <time>2010-07-25T10:48:38Z</time>
      </trkpt>
      <trkpt lat="44.45413" lon="6.67352">
        <ele>2258.7548828</ele>
        <time>2010-07-25T10:48:43Z</time>
      </trkpt>
      <trkpt lat="44.45412" lon="6.67353">
        <ele>2256.8322754</ele>
        <time>2010-07-25T10:48:49Z</time>
      </trkpt>
      <trkpt lat="44.45416" lon="6.67362">
        <ele>2256.8322754</ele>
        <time>2010-07-25T10:48:57Z</time>
      </trkpt>
      <trkpt lat="44.45419" lon="6.67369">
        <ele>2257.3129883</ele>
        <time>2010-07-25T10:49:03Z</time>
      </trkpt>
      <trkpt lat="44.45425" lon="6.67373">
        <ele>2257.7937012</ele>
        <time>2010-07-25T10:49:09Z</time>
      </trkpt>
      <trkpt lat="44.45441" lon="6.67384">
        <ele>2254.4289551</ele>
        <time>2010-07-25T10:49:14Z</time>
      </trkpt>
      <trkpt lat="44.45459" lon="6.6739">
        <ele>2252.5063477</ele>
        <time>2010-07-25T10:49:19Z</time>
      </trkpt>
      <trkpt lat="44.4547" lon="6.67397">
        <ele>2250.5834961</ele>
        <time>2010-07-25T10:49:22Z</time>
      </trkpt>
      <trkpt lat="44.45488" lon="6.67409">
        <ele>2242.4125977</ele>
        <time>2010-07-25T10:49:27Z</time>
      </trkpt>
      <trkpt lat="44.45492" lon="6.67412">
        <ele>2242.8930664</ele>
        <time>2010-07-25T10:49:28Z</time>
      </trkpt>
      <trkpt lat="44.45504" lon="6.67426">
        <ele>2242.4125977</ele>
        <time>2010-07-25T10:49:31Z</time>
      </trkpt>
      <trkpt lat="44.45521" lon="6.67443">
        <ele>2241.4511719</ele>
        <time>2010-07-25T10:49:36Z</time>
      </trkpt>
      <trkpt lat="44.45529" lon="6.67447">
        <ele>2240.0092773</ele>
        <time>2010-07-25T10:49:38Z</time>
      </trkpt>
      <trkpt lat="44.45537" lon="6.67454">
        <ele>2238.5673828</ele>
        <time>2010-07-25T10:49:40Z</time>
      </trkpt>
      <trkpt lat="44.45555" lon="6.67478">
        <ele>2236.6445312</ele>
        <time>2010-07-25T10:49:44Z</time>
      </trkpt>
      <trkpt lat="44.45577" lon="6.67496">
        <ele>2232.7990723</ele>
        <time>2010-07-25T10:49:49Z</time>
      </trkpt>
      <trkpt lat="44.45589" lon="6.67505">
        <ele>2231.3571777</ele>
        <time>2010-07-25T10:49:52Z</time>
      </trkpt>
      <trkpt lat="44.45593" lon="6.67509">
        <ele>2230.3959961</ele>
        <time>2010-07-25T10:49:53Z</time>
      </trkpt>
      <trkpt lat="44.45611" lon="6.67518">
        <ele>2227.9926758</ele>
        <time>2010-07-25T10:49:59Z</time>
      </trkpt>
      <trkpt lat="44.45628" lon="6.6753">
        <ele>2226.0700684</ele>
        <time>2010-07-25T10:50:03Z</time>
      </trkpt>
      <trkpt lat="44.45639" lon="6.67533">
        <ele>2224.6281738</ele>
        <time>2010-07-25T10:50:05Z</time>
      </trkpt>
      <trkpt lat="44.45648" lon="6.67539">
        <ele>2224.1474609</ele>
        <time>2010-07-25T10:50:09Z</time>
      </trkpt>
      <trkpt lat="44.45646" lon="6.67539">
        <ele>2226.0700684</ele>
        <time>2010-07-25T10:50:15Z</time>
      </trkpt>
      <trkpt lat="44.45649" lon="6.67542">
        <ele>2227.0314941</ele>
        <time>2010-07-25T10:50:21Z</time>
      </trkpt>
      <trkpt lat="44.45651" lon="6.67544">
        <ele>2226.5507812</ele>
        <time>2010-07-25T10:50:27Z</time>
      </trkpt>
      <trkpt lat="44.45653" lon="6.67543">
        <ele>2226.5507812</ele>
        <time>2010-07-25T10:50:30Z</time>
      </trkpt>
      <trkpt lat="44.45655" lon="6.67538">
        <ele>2225.5893555</ele>
        <time>2010-07-25T10:50:35Z</time>
      </trkpt>
      <trkpt lat="44.45659" lon="6.67538">
        <ele>2225.1086426</ele>
        <time>2010-07-25T10:50:38Z</time>
      </trkpt>
      <trkpt lat="44.4566" lon="6.67541">
        <ele>2223.666748</ele>
        <time>2010-07-25T10:50:42Z</time>
      </trkpt>
      <trkpt lat="44.45666" lon="6.67546">
        <ele>2222.2248535</ele>
        <time>2010-07-25T10:50:48Z</time>
      </trkpt>
      <trkpt lat="44.45672" lon="6.6755">
        <ele>2221.7441406</ele>
        <time>2010-07-25T10:50:54Z</time>
      </trkpt>
      <trkpt lat="44.45675" lon="6.67553">
        <ele>2221.7441406</ele>
        <time>2010-07-25T10:50:59Z</time>
      </trkpt>
      <trkpt lat="44.45677" lon="6.67555">
        <ele>2220.782959</ele>
        <time>2010-07-25T10:51:02Z</time>
      </trkpt>
      <trkpt lat="44.45684" lon="6.67556">
        <ele>2221.7441406</ele>
        <time>2010-07-25T10:51:09Z</time>
      </trkpt>
      <trkpt lat="44.45687" lon="6.67556">
        <ele>2220.3022461</ele>
        <time>2010-07-25T10:51:15Z</time>
      </trkpt>
      <trkpt lat="44.4569" lon="6.67557">
        <ele>2220.782959</ele>
        <time>2010-07-25T10:51:20Z</time>
      </trkpt>
      <trkpt lat="44.45692" lon="6.67562">
        <ele>2220.782959</ele>
        <time>2010-07-25T10:51:27Z</time>
      </trkpt>
      <trkpt lat="44.45698" lon="6.6757">
        <ele>2219.3408203</ele>
        <time>2010-07-25T10:51:31Z</time>
      </trkpt>
      <trkpt lat="44.45708" lon="6.67574">
        <ele>2219.8212891</ele>
        <time>2010-07-25T10:51:36Z</time>
      </trkpt>
      <trkpt lat="44.45709" lon="6.67577">
        <ele>2221.7441406</ele>
        <time>2010-07-25T10:51:41Z</time>
      </trkpt>
      <trkpt lat="44.45716" lon="6.67584">
        <ele>2226.0700684</ele>
        <time>2010-07-25T10:51:47Z</time>
      </trkpt>
      <trkpt lat="44.45717" lon="6.67585">
        <ele>2226.5507812</ele>
        <time>2010-07-25T10:51:48Z</time>
      </trkpt>
      <trkpt lat="44.45724" lon="6.6759">
        <ele>2228.9538574</ele>
        <time>2010-07-25T10:51:54Z</time>
      </trkpt>
      <trkpt lat="44.4573" lon="6.67594">
        <ele>2229.4345703</ele>
        <time>2010-07-25T10:51:58Z</time>
      </trkpt>
      <trkpt lat="44.45746" lon="6.67607">
        <ele>2226.5507812</ele>
        <time>2010-07-25T10:52:03Z</time>
      </trkpt>
      <trkpt lat="44.45762" lon="6.67625">
        <ele>2215.4956055</ele>
        <time>2010-07-25T10:52:09Z</time>
      </trkpt>
      <trkpt lat="44.45768" lon="6.67629">
        <ele>2212.6115723</ele>
        <time>2010-07-25T10:52:11Z</time>
      </trkpt>
      <trkpt lat="44.45785" lon="6.67645">
        <ele>2206.84375</ele>
        <time>2010-07-25T10:52:15Z</time>
      </trkpt>
      <trkpt lat="44.45803" lon="6.67656">
        <ele>2201.5563965</ele>
        <time>2010-07-25T10:52:19Z</time>
      </trkpt>
      <trkpt lat="44.45817" lon="6.67667">
        <ele>2198.6723633</ele>
        <time>2010-07-25T10:52:22Z</time>
      </trkpt>
      <trkpt lat="44.45832" lon="6.67685">
        <ele>2194.3464355</ele>
        <time>2010-07-25T10:52:27Z</time>
      </trkpt>
      <trkpt lat="44.45837" lon="6.6769">
        <ele>2193.3852539</ele>
        <time>2010-07-25T10:52:30Z</time>
      </trkpt>
      <trkpt lat="44.45845" lon="6.6769">
        <ele>2191.9433594</ele>
        <time>2010-07-25T10:52:34Z</time>
      </trkpt>
      <trkpt lat="44.4586" lon="6.677">
        <ele>2190.9819336</ele>
        <time>2010-07-25T10:52:40Z</time>
      </trkpt>
      <trkpt lat="44.45869" lon="6.67708">
        <ele>2189.0593262</ele>
        <time>2010-07-25T10:52:46Z</time>
      </trkpt>
      <trkpt lat="44.45871" lon="6.67709">
        <ele>2190.5012207</ele>
        <time>2010-07-25T10:52:52Z</time>
      </trkpt>
      <trkpt lat="44.45876" lon="6.67712">
        <ele>2193.3852539</ele>
        <time>2010-07-25T10:52:58Z</time>
      </trkpt>
      <trkpt lat="44.45878" lon="6.67712">
        <ele>2194.3464355</ele>
        <time>2010-07-25T10:53:03Z</time>
      </trkpt>
      <trkpt lat="44.4588" lon="6.67713">
        <ele>2193.8659668</ele>
        <time>2010-07-25T10:53:06Z</time>
      </trkpt>
      <trkpt lat="44.45882" lon="6.67715">
        <ele>2194.8271484</ele>
        <time>2010-07-25T10:53:08Z</time>
      </trkpt>
      <trkpt lat="44.45884" lon="6.67722">
        <ele>2193.8659668</ele>
        <time>2010-07-25T10:53:14Z</time>
      </trkpt>
      <trkpt lat="44.45886" lon="6.67723">
        <ele>2194.3464355</ele>
        <time>2010-07-25T10:53:19Z</time>
      </trkpt>
      <trkpt lat="44.45897" lon="6.6773">
        <ele>2192.904541</ele>
        <time>2010-07-25T10:53:24Z</time>
      </trkpt>
      <trkpt lat="44.45907" lon="6.67738">
        <ele>2191.9433594</ele>
        <time>2010-07-25T10:53:27Z</time>
      </trkpt>
      <trkpt lat="44.45929" lon="6.67745">
        <ele>2188.0981445</ele>
        <time>2010-07-25T10:53:33Z</time>
      </trkpt>
      <trkpt lat="44.45935" lon="6.67753">
        <ele>2186.6557617</ele>
        <time>2010-07-25T10:53:37Z</time>
      </trkpt>
      <trkpt lat="44.45935" lon="6.67753">
        <ele>2185.2138672</ele>
        <time>2010-07-25T10:53:51Z</time>
      </trkpt>
      <trkpt lat="44.45934" lon="6.67751">
        <ele>2182.8105469</ele>
        <time>2010-07-25T10:53:59Z</time>
      </trkpt>
      <trkpt lat="44.45935" lon="6.67752">
        <ele>2183.2912598</ele>
        <time>2010-07-25T10:54:10Z</time>
      </trkpt>
      <trkpt lat="44.4594" lon="6.67755">
        <ele>2184.2526855</ele>
        <time>2010-07-25T10:54:13Z</time>
      </trkpt>
      <trkpt lat="44.45951" lon="6.67767">
        <ele>2185.6945801</ele>
        <time>2010-07-25T10:54:17Z</time>
      </trkpt>
      <trkpt lat="44.45962" lon="6.67773">
        <ele>2186.175293</ele>
        <time>2010-07-25T10:54:20Z</time>
      </trkpt>
      <trkpt lat="44.4597" lon="6.67778">
        <ele>2185.2138672</ele>
        <time>2010-07-25T10:54:22Z</time>
      </trkpt>
      <trkpt lat="44.45985" lon="6.67794">
        <ele>2181.8493652</ele>
        <time>2010-07-25T10:54:27Z</time>
      </trkpt>
      <trkpt lat="44.45995" lon="6.678">
        <ele>2179.4460449</ele>
        <time>2010-07-25T10:54:30Z</time>
      </trkpt>
      <trkpt lat="44.46007" lon="6.67808">
        <ele>2177.0429688</ele>
        <time>2010-07-25T10:54:34Z</time>
      </trkpt>
      <trkpt lat="44.46012" lon="6.67808">
        <ele>2174.6396484</ele>
        <time>2010-07-25T10:54:39Z</time>
      </trkpt>
      <trkpt lat="44.46014" lon="6.6781">
        <ele>2176.081543</ele>
        <time>2010-07-25T10:54:44Z</time>
      </trkpt>
      <trkpt lat="44.46019" lon="6.67812">
        <ele>2174.6396484</ele>
        <time>2010-07-25T10:54:52Z</time>
      </trkpt>
      <trkpt lat="44.46021" lon="6.67813">
        <ele>2174.6396484</ele>
        <time>2010-07-25T10:54:58Z</time>
      </trkpt>
      <trkpt lat="44.46023" lon="6.6782">
        <ele>2175.1201172</ele>
        <time>2010-07-25T10:55:06Z</time>
      </trkpt>
      <trkpt lat="44.46025" lon="6.67823">
        <ele>2175.6008301</ele>
        <time>2010-07-25T10:55:11Z</time>
      </trkpt>
      <trkpt lat="44.46029" lon="6.6783">
        <ele>2175.6008301</ele>
        <time>2010-07-25T10:55:18Z</time>
      </trkpt>
      <trkpt lat="44.4603" lon="6.67831">
        <ele>2175.6008301</ele>
        <time>2010-07-25T10:55:19Z</time>
      </trkpt>
      <trkpt lat="44.46041" lon="6.67835">
        <ele>2173.6782227</ele>
        <time>2010-07-25T10:55:24Z</time>
      </trkpt>
      <trkpt lat="44.46055" lon="6.6784">
        <ele>2171.2746582</ele>
        <time>2010-07-25T10:55:28Z</time>
      </trkpt>
      <trkpt lat="44.46067" lon="6.67851">
        <ele>2169.3522949</ele>
        <time>2010-07-25T10:55:32Z</time>
      </trkpt>
      <trkpt lat="44.46069" lon="6.67854">
        <ele>2168.871582</ele>
        <time>2010-07-25T10:55:33Z</time>
      </trkpt>
      <trkpt lat="44.46083" lon="6.67862">
        <ele>2162.6230469</ele>
        <time>2010-07-25T10:55:37Z</time>
      </trkpt>
      <trkpt lat="44.46102" lon="6.67866">
        <ele>2156.8552246</ele>
        <time>2010-07-25T10:55:42Z</time>
      </trkpt>
      <trkpt lat="44.461" lon="6.67863">
        <ele>2160.2197266</ele>
        <time>2010-07-25T10:55:46Z</time>
      </trkpt>
      <trkpt lat="44.46102" lon="6.67866">
        <ele>2160.2197266</ele>
        <time>2010-07-25T10:55:51Z</time>
      </trkpt>
      <trkpt lat="44.46106" lon="6.67872">
        <ele>2158.2971191</ele>
        <time>2010-07-25T10:55:58Z</time>
      </trkpt>
      <trkpt lat="44.46107" lon="6.67877">
        <ele>2156.3745117</ele>
        <time>2010-07-25T10:56:04Z</time>
      </trkpt>
      <trkpt lat="44.4611" lon="6.67885">
        <ele>2154.932373</ele>
        <time>2010-07-25T10:56:11Z</time>
      </trkpt>
      <trkpt lat="44.46111" lon="6.67888">
        <ele>2155.4130859</ele>
        <time>2010-07-25T10:56:17Z</time>
      </trkpt>
      <trkpt lat="44.46114" lon="6.67887">
        <ele>2155.8935547</ele>
        <time>2010-07-25T10:56:23Z</time>
      </trkpt>
      <trkpt lat="44.46119" lon="6.67888">
        <ele>2158.777832</ele>
        <time>2010-07-25T10:56:28Z</time>
      </trkpt>
      <trkpt lat="44.46124" lon="6.67891">
        <ele>2160.7004395</ele>
        <time>2010-07-25T10:56:33Z</time>
      </trkpt>
      <trkpt lat="44.46128" lon="6.67892">
        <ele>2158.2971191</ele>
        <time>2010-07-25T10:56:39Z</time>
      </trkpt>
      <trkpt lat="44.46134" lon="6.67892">
        <ele>2154.932373</ele>
        <time>2010-07-25T10:56:46Z</time>
      </trkpt>
      <trkpt lat="44.46134" lon="6.67893">
        <ele>2154.932373</ele>
        <time>2010-07-25T10:56:47Z</time>
      </trkpt>
      <trkpt lat="44.46136" lon="6.67896">
        <ele>2153.4904785</ele>
        <time>2010-07-25T10:56:53Z</time>
      </trkpt>
      <trkpt lat="44.46138" lon="6.67898">
        <ele>2154.4516602</ele>
        <time>2010-07-25T10:57:02Z</time>
      </trkpt>
      <trkpt lat="44.46152" lon="6.67904">
        <ele>2155.8935547</ele>
        <time>2010-07-25T10:57:07Z</time>
      </trkpt>
      <trkpt lat="44.4617" lon="6.67907">
        <ele>2153.4904785</ele>
        <time>2010-07-25T10:57:11Z</time>
      </trkpt>
      <trkpt lat="44.46185" lon="6.67918">
        <ele>2150.6064453</ele>
        <time>2010-07-25T10:57:15Z</time>
      </trkpt>
      <trkpt lat="44.46202" lon="6.67926">
        <ele>2147.2419434</ele>
        <time>2010-07-25T10:57:19Z</time>
      </trkpt>
      <trkpt lat="44.46207" lon="6.67934">
        <ele>2145.3193359</ele>
        <time>2010-07-25T10:57:22Z</time>
      </trkpt>
      <trkpt lat="44.46206" lon="6.67933">
        <ele>2148.6838379</ele>
        <time>2010-07-25T10:57:26Z</time>
      </trkpt>
      <trkpt lat="44.46206" lon="6.67934">
        <ele>2152.0483398</ele>
        <time>2010-07-25T10:57:32Z</time>
      </trkpt>
      <trkpt lat="44.46207" lon="6.67937">
        <ele>2166.4682617</ele>
        <time>2010-07-25T10:57:41Z</time>
      </trkpt>
      <trkpt lat="44.46209" lon="6.67942">
        <ele>2172.717041</ele>
        <time>2010-07-25T10:57:50Z</time>
      </trkpt>
      <trkpt lat="44.46209" lon="6.67946">
        <ele>2168.3908691</ele>
        <time>2010-07-25T10:57:56Z</time>
      </trkpt>
      <trkpt lat="44.46212" lon="6.67949">
        <ele>2165.5070801</ele>
        <time>2010-07-25T10:58:02Z</time>
      </trkpt>
      <trkpt lat="44.46216" lon="6.6795">
        <ele>2163.5842285</ele>
        <time>2010-07-25T10:58:07Z</time>
      </trkpt>
      <trkpt lat="44.46221" lon="6.67953">
        <ele>2162.142334</ele>
        <time>2010-07-25T10:58:12Z</time>
      </trkpt>
      <trkpt lat="44.46224" lon="6.67954">
        <ele>2160.2197266</ele>
        <time>2010-07-25T10:58:15Z</time>
      </trkpt>
      <trkpt lat="44.46229" lon="6.67967">
        <ele>2156.3745117</ele>
        <time>2010-07-25T10:58:20Z</time>
      </trkpt>
      <trkpt lat="44.46237" lon="6.67975">
        <ele>2151.5678711</ele>
        <time>2010-07-25T10:58:23Z</time>
      </trkpt>
      <trkpt lat="44.46245" lon="6.67981">
        <ele>2146.7612305</ele>
        <time>2010-07-25T10:58:26Z</time>
      </trkpt>
      <trkpt lat="44.46254" lon="6.67993">
        <ele>2145.3193359</ele>
        <time>2010-07-25T10:58:30Z</time>
      </trkpt>
      <trkpt lat="44.4626" lon="6.68001">
        <ele>2143.8774414</ele>
        <time>2010-07-25T10:58:33Z</time>
      </trkpt>
      <trkpt lat="44.46264" lon="6.68008">
        <ele>2136.1867676</ele>
        <time>2010-07-25T10:58:37Z</time>
      </trkpt>
      <trkpt lat="44.46273" lon="6.68018">
        <ele>2133.7834473</ele>
        <time>2010-07-25T10:58:40Z</time>
      </trkpt>
      <trkpt lat="44.46284" lon="6.68028">
        <ele>2130.4189453</ele>
        <time>2010-07-25T10:58:43Z</time>
      </trkpt>
      <trkpt lat="44.46291" lon="6.68036">
        <ele>2128.9768066</ele>
        <time>2010-07-25T10:58:45Z</time>
      </trkpt>
      <trkpt lat="44.4631" lon="6.68038">
        <ele>2124.1704102</ele>
        <time>2010-07-25T10:58:49Z</time>
      </trkpt>
      <trkpt lat="44.46315" lon="6.68038">
        <ele>2122.7282715</ele>
        <time>2010-07-25T10:58:50Z</time>
      </trkpt>
      <trkpt lat="44.46332" lon="6.68041">
        <ele>2119.3637695</ele>
        <time>2010-07-25T10:58:53Z</time>
      </trkpt>
      <trkpt lat="44.46347" lon="6.68045">
        <ele>2116.9604492</ele>
        <time>2010-07-25T10:58:56Z</time>
      </trkpt>
      <trkpt lat="44.4637" lon="6.68047">
        <ele>2116.4797363</ele>
        <time>2010-07-25T10:59:02Z</time>
      </trkpt>
      <trkpt lat="44.46373" lon="6.68048">
        <ele>2115.9990234</ele>
        <time>2010-07-25T10:59:06Z</time>
      </trkpt>
      <trkpt lat="44.46374" lon="6.68049">
        <ele>2115.0378418</ele>
        <time>2010-07-25T10:59:11Z</time>
      </trkpt>
      <trkpt lat="44.46378" lon="6.68052">
        <ele>2116.4797363</ele>
        <time>2010-07-25T10:59:17Z</time>
      </trkpt>
      <trkpt lat="44.46381" lon="6.68053">
        <ele>2119.8442383</ele>
        <time>2010-07-25T10:59:22Z</time>
      </trkpt>
      <trkpt lat="44.46391" lon="6.68061">
        <ele>2118.4023438</ele>
        <time>2010-07-25T10:59:31Z</time>
      </trkpt>
      <trkpt lat="44.46395" lon="6.68066">
        <ele>2117.9216309</ele>
        <time>2010-07-25T10:59:37Z</time>
      </trkpt>
      <trkpt lat="44.464" lon="6.68069">
        <ele>2118.8830566</ele>
        <time>2010-07-25T10:59:42Z</time>
      </trkpt>
      <trkpt lat="44.46401" lon="6.68069">
        <ele>2120.3249512</ele>
        <time>2010-07-25T10:59:46Z</time>
      </trkpt>
      <trkpt lat="44.46403" lon="6.6807">
        <ele>2121.7668457</ele>
        <time>2010-07-25T10:59:52Z</time>
      </trkpt>
      <trkpt lat="44.46404" lon="6.68071">
        <ele>2121.7668457</ele>
        <time>2010-07-25T10:59:54Z</time>
      </trkpt>
      <trkpt lat="44.46411" lon="6.68084">
        <ele>2120.3249512</ele>
        <time>2010-07-25T11:00:01Z</time>
      </trkpt>
      <trkpt lat="44.46419" lon="6.681">
        <ele>2119.3637695</ele>
        <time>2010-07-25T11:00:05Z</time>
      </trkpt>
      <trkpt lat="44.46424" lon="6.68109">
        <ele>2117.440918</ele>
        <time>2010-07-25T11:00:07Z</time>
      </trkpt>
      <trkpt lat="44.46429" lon="6.6812">
        <ele>2115.5185547</ele>
        <time>2010-07-25T11:00:09Z</time>
      </trkpt>
      <trkpt lat="44.4644" lon="6.68138">
        <ele>2105.4245605</ele>
        <time>2010-07-25T11:00:13Z</time>
      </trkpt>
      <trkpt lat="44.46451" lon="6.6815">
        <ele>2100.6179199</ele>
        <time>2010-07-25T11:00:17Z</time>
      </trkpt>
      <trkpt lat="44.46464" lon="6.68164">
        <ele>2100.6179199</ele>
        <time>2010-07-25T11:00:21Z</time>
      </trkpt>
      <trkpt lat="44.46471" lon="6.68171">
        <ele>2101.0986328</ele>
        <time>2010-07-25T11:00:23Z</time>
      </trkpt>
      <trkpt lat="44.4648" lon="6.68178">
        <ele>2100.6179199</ele>
        <time>2010-07-25T11:00:25Z</time>
      </trkpt>
      <trkpt lat="44.46498" lon="6.68191">
        <ele>2099.6567383</ele>
        <time>2010-07-25T11:00:30Z</time>
      </trkpt>
      <trkpt lat="44.46507" lon="6.68192">
        <ele>2097.253418</ele>
        <time>2010-07-25T11:00:32Z</time>
      </trkpt>
      <trkpt lat="44.46529" lon="6.68196">
        <ele>2093.888916</ele>
        <time>2010-07-25T11:00:37Z</time>
      </trkpt>
      <trkpt lat="44.46551" lon="6.68202">
        <ele>2088.1208496</ele>
        <time>2010-07-25T11:00:42Z</time>
      </trkpt>
      <trkpt lat="44.4656" lon="6.68213">
        <ele>2086.1982422</ele>
        <time>2010-07-25T11:00:46Z</time>
      </trkpt>
      <trkpt lat="44.46571" lon="6.68222">
        <ele>2084.2756348</ele>
        <time>2010-07-25T11:00:49Z</time>
      </trkpt>
      <trkpt lat="44.46589" lon="6.68242">
        <ele>2080.4304199</ele>
        <time>2010-07-25T11:00:54Z</time>
      </trkpt>
      <trkpt lat="44.46607" lon="6.68247">
        <ele>2078.9882812</ele>
        <time>2010-07-25T11:00:58Z</time>
      </trkpt>
      <trkpt lat="44.46623" lon="6.68244">
        <ele>2077.5463867</ele>
        <time>2010-07-25T11:01:01Z</time>
      </trkpt>
      <trkpt lat="44.46633" lon="6.68242">
        <ele>2076.5852051</ele>
        <time>2010-07-25T11:01:04Z</time>
      </trkpt>
      <trkpt lat="44.46652" lon="6.68245">
        <ele>2078.0270996</ele>
        <time>2010-07-25T11:01:10Z</time>
      </trkpt>
      <trkpt lat="44.46654" lon="6.68246">
        <ele>2078.9882812</ele>
        <time>2010-07-25T11:01:14Z</time>
      </trkpt>
      <trkpt lat="44.46661" lon="6.68249">
        <ele>2077.065918</ele>
        <time>2010-07-25T11:01:19Z</time>
      </trkpt>
      <trkpt lat="44.46668" lon="6.68251">
        <ele>2078.9882812</ele>
        <time>2010-07-25T11:01:27Z</time>
      </trkpt>
      <trkpt lat="44.46669" lon="6.68253">
        <ele>2084.7563477</ele>
        <time>2010-07-25T11:01:41Z</time>
      </trkpt>
      <trkpt lat="44.46672" lon="6.68253">
        <ele>2084.2756348</ele>
        <time>2010-07-25T11:01:50Z</time>
      </trkpt>
      <trkpt lat="44.46684" lon="6.68257">
        <ele>2082.3530273</ele>
        <time>2010-07-25T11:01:55Z</time>
      </trkpt>
      <trkpt lat="44.46693" lon="6.68266">
        <ele>2080.4304199</ele>
        <time>2010-07-25T11:01:58Z</time>
      </trkpt>
      <trkpt lat="44.46707" lon="6.68281">
        <ele>2077.5463867</ele>
        <time>2010-07-25T11:02:02Z</time>
      </trkpt>
      <trkpt lat="44.46723" lon="6.68297">
        <ele>2073.220459</ele>
        <time>2010-07-25T11:02:06Z</time>
      </trkpt>
      <trkpt lat="44.46739" lon="6.68312">
        <ele>2069.3752441</ele>
        <time>2010-07-25T11:02:10Z</time>
      </trkpt>
      <trkpt lat="44.4676" lon="6.68329">
        <ele>2067.9331055</ele>
        <time>2010-07-25T11:02:15Z</time>
      </trkpt>
      <trkpt lat="44.46775" lon="6.68341">
        <ele>2066.9719238</ele>
        <time>2010-07-25T11:02:20Z</time>
      </trkpt>
      <trkpt lat="44.46791" lon="6.68352">
        <ele>2061.2041016</ele>
        <time>2010-07-25T11:02:24Z</time>
      </trkpt>
      <trkpt lat="44.46808" lon="6.68364">
        <ele>2054.9553223</ele>
        <time>2010-07-25T11:02:28Z</time>
      </trkpt>
      <trkpt lat="44.46825" lon="6.68385">
        <ele>2046.3037109</ele>
        <time>2010-07-25T11:02:32Z</time>
      </trkpt>
      <trkpt lat="44.4684" lon="6.68402">
        <ele>2044.8615723</ele>
        <time>2010-07-25T11:02:36Z</time>
      </trkpt>
      <trkpt lat="44.46858" lon="6.68438">
        <ele>2043.4194336</ele>
        <time>2010-07-25T11:02:42Z</time>
      </trkpt>
      <trkpt lat="44.46863" lon="6.68451">
        <ele>2045.822998</ele>
        <time>2010-07-25T11:02:45Z</time>
      </trkpt>
      <trkpt lat="44.46867" lon="6.68467">
        <ele>2048.7067871</ele>
        <time>2010-07-25T11:02:48Z</time>
      </trkpt>
      <trkpt lat="44.46889" lon="6.68485">
        <ele>2047.2648926</ele>
        <time>2010-07-25T11:02:53Z</time>
      </trkpt>
      <trkpt lat="44.46894" lon="6.68487">
        <ele>2047.2648926</ele>
        <time>2010-07-25T11:02:54Z</time>
      </trkpt>
      <trkpt lat="44.46912" lon="6.68491">
        <ele>2042.9387207</ele>
        <time>2010-07-25T11:02:58Z</time>
      </trkpt>
      <trkpt lat="44.46916" lon="6.68493">
        <ele>2042.9387207</ele>
        <time>2010-07-25T11:02:59Z</time>
      </trkpt>
      <trkpt lat="44.46936" lon="6.68502">
        <ele>2041.0161133</ele>
        <time>2010-07-25T11:03:03Z</time>
      </trkpt>
      <trkpt lat="44.46948" lon="6.68515">
        <ele>2041.4968262</ele>
        <time>2010-07-25T11:03:06Z</time>
      </trkpt>
      <trkpt lat="44.46966" lon="6.68533">
        <ele>2038.6130371</ele>
        <time>2010-07-25T11:03:11Z</time>
      </trkpt>
      <trkpt lat="44.46976" lon="6.68547">
        <ele>2038.6130371</ele>
        <time>2010-07-25T11:03:15Z</time>
      </trkpt>
      <trkpt lat="44.46982" lon="6.68552">
        <ele>2038.1323242</ele>
        <time>2010-07-25T11:03:17Z</time>
      </trkpt>
      <trkpt lat="44.46995" lon="6.68561">
        <ele>2036.2097168</ele>
        <time>2010-07-25T11:03:20Z</time>
      </trkpt>
      <trkpt lat="44.4701" lon="6.6858">
        <ele>2033.3256836</ele>
        <time>2010-07-25T11:03:25Z</time>
      </trkpt>
      <trkpt lat="44.47016" lon="6.68593">
        <ele>2031.4030762</ele>
        <time>2010-07-25T11:03:29Z</time>
      </trkpt>
      <trkpt lat="44.47018" lon="6.68597">
        <ele>2030.9226074</ele>
        <time>2010-07-25T11:03:34Z</time>
      </trkpt>
      <trkpt lat="44.47018" lon="6.68604">
        <ele>2029.9611816</ele>
        <time>2010-07-25T11:03:39Z</time>
      </trkpt>
      <trkpt lat="44.47021" lon="6.68609">
        <ele>2030.4418945</ele>
        <time>2010-07-25T11:03:45Z</time>
      </trkpt>
      <trkpt lat="44.4703" lon="6.68622">
        <ele>2025.6350098</ele>
        <time>2010-07-25T11:03:50Z</time>
      </trkpt>
      <trkpt lat="44.47034" lon="6.68626">
        <ele>2024.6738281</ele>
        <time>2010-07-25T11:03:51Z</time>
      </trkpt>
      <trkpt lat="44.47062" lon="6.68635">
        <ele>2023.2319336</ele>
        <time>2010-07-25T11:03:57Z</time>
      </trkpt>
      <trkpt lat="44.47077" lon="6.68632">
        <ele>2021.309082</ele>
        <time>2010-07-25T11:04:01Z</time>
      </trkpt>
      <trkpt lat="44.47089" lon="6.68639">
        <ele>2022.7512207</ele>
        <time>2010-07-25T11:04:07Z</time>
      </trkpt>
      <trkpt lat="44.471" lon="6.68637">
        <ele>2023.7124023</ele>
        <time>2010-07-25T11:04:11Z</time>
      </trkpt>
      <trkpt lat="44.47105" lon="6.6864">
        <ele>2023.7124023</ele>
        <time>2010-07-25T11:04:13Z</time>
      </trkpt>
      <trkpt lat="44.47109" lon="6.68646">
        <ele>2021.7897949</ele>
        <time>2010-07-25T11:04:16Z</time>
      </trkpt>
      <trkpt lat="44.47122" lon="6.68653">
        <ele>2021.309082</ele>
        <time>2010-07-25T11:04:22Z</time>
      </trkpt>
      <trkpt lat="44.47136" lon="6.68662">
        <ele>2022.2705078</ele>
        <time>2010-07-25T11:04:26Z</time>
      </trkpt>
      <trkpt lat="44.47148" lon="6.68669">
        <ele>2025.6350098</ele>
        <time>2010-07-25T11:04:30Z</time>
      </trkpt>
      <trkpt lat="44.47161" lon="6.68682">
        <ele>2027.5576172</ele>
        <time>2010-07-25T11:04:34Z</time>
      </trkpt>
      <trkpt lat="44.47172" lon="6.68695">
        <ele>2022.2705078</ele>
        <time>2010-07-25T11:04:37Z</time>
      </trkpt>
      <trkpt lat="44.47179" lon="6.68703">
        <ele>2018.9060059</ele>
        <time>2010-07-25T11:04:39Z</time>
      </trkpt>
      <trkpt lat="44.4719" lon="6.6872">
        <ele>2014.0993652</ele>
        <time>2010-07-25T11:04:45Z</time>
      </trkpt>
      <trkpt lat="44.47199" lon="6.68732">
        <ele>2012.6574707</ele>
        <time>2010-07-25T11:04:50Z</time>
      </trkpt>
      <trkpt lat="44.47202" lon="6.6874">
        <ele>2011.215332</ele>
        <time>2010-07-25T11:04:52Z</time>
      </trkpt>
      <trkpt lat="44.47217" lon="6.68757">
        <ele>2009.7731934</ele>
        <time>2010-07-25T11:04:56Z</time>
      </trkpt>
      <trkpt lat="44.47219" lon="6.6876">
        <ele>2009.7731934</ele>
        <time>2010-07-25T11:04:57Z</time>
      </trkpt>
      <trkpt lat="44.47235" lon="6.68771">
        <ele>2009.2927246</ele>
        <time>2010-07-25T11:05:02Z</time>
      </trkpt>
      <trkpt lat="44.47245" lon="6.68781">
        <ele>2011.6960449</ele>
        <time>2010-07-25T11:05:06Z</time>
      </trkpt>
      <trkpt lat="44.47255" lon="6.68789">
        <ele>2011.215332</ele>
        <time>2010-07-25T11:05:11Z</time>
      </trkpt>
      <trkpt lat="44.47259" lon="6.68793">
        <ele>2007.8508301</ele>
        <time>2010-07-25T11:05:18Z</time>
      </trkpt>
      <trkpt lat="44.47259" lon="6.68794">
        <ele>2009.2927246</ele>
        <time>2010-07-25T11:05:22Z</time>
      </trkpt>
      <trkpt lat="44.47257" lon="6.68778">
        <ele>2006.4086914</ele>
        <time>2010-07-25T11:05:27Z</time>
      </trkpt>
      <trkpt lat="44.47258" lon="6.68767">
        <ele>2003.5249023</ele>
        <time>2010-07-25T11:05:31Z</time>
      </trkpt>
      <trkpt lat="44.4726" lon="6.68762">
        <ele>2000.6408691</ele>
        <time>2010-07-25T11:05:35Z</time>
      </trkpt>
      <trkpt lat="44.47261" lon="6.68763">
        <ele>2001.121582</ele>
        <time>2010-07-25T11:05:41Z</time>
      </trkpt>
      <trkpt lat="44.47262" lon="6.68763">
        <ele>2002.0827637</ele>
        <time>2010-07-25T11:05:42Z</time>
      </trkpt>
      <trkpt lat="44.47265" lon="6.68764">
        <ele>2002.5634766</ele>
        <time>2010-07-25T11:05:48Z</time>
      </trkpt>
      <trkpt lat="44.47268" lon="6.68768">
        <ele>2004.486084</ele>
        <time>2010-07-25T11:05:55Z</time>
      </trkpt>
      <trkpt lat="44.47267" lon="6.68768">
        <ele>2004.486084</ele>
        <time>2010-07-25T11:06:05Z</time>
      </trkpt>
      <trkpt lat="44.47268" lon="6.68769">
        <ele>2005.9279785</ele>
        <time>2010-07-25T11:06:13Z</time>
      </trkpt>
      <trkpt lat="44.4727" lon="6.68771">
        <ele>2004.486084</ele>
        <time>2010-07-25T11:06:18Z</time>
      </trkpt>
      <trkpt lat="44.47278" lon="6.68777">
        <ele>2003.5249023</ele>
        <time>2010-07-25T11:06:22Z</time>
      </trkpt>
      <trkpt lat="44.47293" lon="6.68783">
        <ele>2000.1604004</ele>
        <time>2010-07-25T11:06:28Z</time>
      </trkpt>
      <trkpt lat="44.47313" lon="6.68793">
        <ele>1999.1989746</ele>
        <time>2010-07-25T11:06:36Z</time>
      </trkpt>
      <trkpt lat="44.47331" lon="6.688">
        <ele>1999.6796875</ele>
        <time>2010-07-25T11:06:43Z</time>
      </trkpt>
      <trkpt lat="44.47341" lon="6.6881">
        <ele>2001.121582</ele>
        <time>2010-07-25T11:06:48Z</time>
      </trkpt>
      <trkpt lat="44.47346" lon="6.68816">
        <ele>2003.0441895</ele>
        <time>2010-07-25T11:06:51Z</time>
      </trkpt>
      <trkpt lat="44.47355" lon="6.68826">
        <ele>2006.4086914</ele>
        <time>2010-07-25T11:06:56Z</time>
      </trkpt>
      <trkpt lat="44.47364" lon="6.68836">
        <ele>2009.2927246</ele>
        <time>2010-07-25T11:07:02Z</time>
      </trkpt>
      <trkpt lat="44.47367" lon="6.6885">
        <ele>2015.060791</ele>
        <time>2010-07-25T11:07:09Z</time>
      </trkpt>
      <trkpt lat="44.4737" lon="6.68861">
        <ele>2017.4638672</ele>
        <time>2010-07-25T11:07:16Z</time>
      </trkpt>
      <trkpt lat="44.47377" lon="6.68869">
        <ele>2021.309082</ele>
        <time>2010-07-25T11:07:23Z</time>
      </trkpt>
      <trkpt lat="44.47397" lon="6.68879">
        <ele>2018.9060059</ele>
        <time>2010-07-25T11:07:32Z</time>
      </trkpt>
      <trkpt lat="44.47407" lon="6.68889">
        <ele>2016.5026855</ele>
        <time>2010-07-25T11:07:37Z</time>
      </trkpt>
      <trkpt lat="44.47421" lon="6.68911">
        <ele>2007.8508301</ele>
        <time>2010-07-25T11:07:43Z</time>
      </trkpt>
      <trkpt lat="44.47433" lon="6.68922">
        <ele>2005.9279785</ele>
        <time>2010-07-25T11:07:46Z</time>
      </trkpt>
      <trkpt lat="44.47464" lon="6.68934">
        <ele>1998.2375488</ele>
        <time>2010-07-25T11:07:51Z</time>
      </trkpt>
      <trkpt lat="44.47489" lon="6.68944">
        <ele>1997.7570801</ele>
        <time>2010-07-25T11:07:56Z</time>
      </trkpt>
      <trkpt lat="44.47503" lon="6.68947">
        <ele>1996.7956543</ele>
        <time>2010-07-25T11:08:00Z</time>
      </trkpt>
      <trkpt lat="44.47504" lon="6.68946">
        <ele>1997.2763672</ele>
        <time>2010-07-25T11:08:05Z</time>
      </trkpt>
      <trkpt lat="44.47507" lon="6.68948">
        <ele>1997.2763672</ele>
        <time>2010-07-25T11:08:10Z</time>
      </trkpt>
      <trkpt lat="44.4751" lon="6.68949">
        <ele>1999.1989746</ele>
        <time>2010-07-25T11:08:16Z</time>
      </trkpt>
      <trkpt lat="44.4752" lon="6.6895">
        <ele>1999.1989746</ele>
        <time>2010-07-25T11:08:20Z</time>
      </trkpt>
      <trkpt lat="44.47541" lon="6.68955">
        <ele>1997.7570801</ele>
        <time>2010-07-25T11:08:25Z</time>
      </trkpt>
      <trkpt lat="44.47552" lon="6.68957">
        <ele>1994.3920898</ele>
        <time>2010-07-25T11:08:28Z</time>
      </trkpt>
      <trkpt lat="44.47575" lon="6.68969">
        <ele>1989.1049805</ele>
        <time>2010-07-25T11:08:33Z</time>
      </trkpt>
      <trkpt lat="44.47582" lon="6.68971">
        <ele>1987.182373</ele>
        <time>2010-07-25T11:08:34Z</time>
      </trkpt>
      <trkpt lat="44.47617" lon="6.68982">
        <ele>1980.4533691</ele>
        <time>2010-07-25T11:08:39Z</time>
      </trkpt>
      <trkpt lat="44.47621" lon="6.68983">
        <ele>1979.4916992</ele>
        <time>2010-07-25T11:08:40Z</time>
      </trkpt>
      <trkpt lat="44.47636" lon="6.6898">
        <ele>1975.1657715</ele>
        <time>2010-07-25T11:08:43Z</time>
      </trkpt>
      <trkpt lat="44.47652" lon="6.68979">
        <ele>1972.2819824</ele>
        <time>2010-07-25T11:08:46Z</time>
      </trkpt>
      <trkpt lat="44.47668" lon="6.68987">
        <ele>1966.994873</ele>
        <time>2010-07-25T11:08:50Z</time>
      </trkpt>
      <trkpt lat="44.47698" lon="6.68992">
        <ele>1958.8234863</ele>
        <time>2010-07-25T11:08:56Z</time>
      </trkpt>
      <trkpt lat="44.47723" lon="6.68994">
        <ele>1955.4589844</ele>
        <time>2010-07-25T11:09:00Z</time>
      </trkpt>
      <trkpt lat="44.47728" lon="6.68995">
        <ele>1954.9782715</ele>
        <time>2010-07-25T11:09:01Z</time>
      </trkpt>
      <trkpt lat="44.47761" lon="6.69001">
        <ele>1951.6137695</ele>
        <time>2010-07-25T11:09:09Z</time>
      </trkpt>
      <trkpt lat="44.47766" lon="6.69003">
        <ele>1951.6137695</ele>
        <time>2010-07-25T11:09:11Z</time>
      </trkpt>
      <trkpt lat="44.47775" lon="6.69008">
        <ele>1949.2104492</ele>
        <time>2010-07-25T11:09:15Z</time>
      </trkpt>
      <trkpt lat="44.47789" lon="6.69011">
        <ele>1946.326416</ele>
        <time>2010-07-25T11:09:21Z</time>
      </trkpt>
      <trkpt lat="44.47804" lon="6.69016">
        <ele>1942.0004883</ele>
        <time>2010-07-25T11:09:26Z</time>
      </trkpt>
      <trkpt lat="44.47816" lon="6.69018">
        <ele>1937.1938477</ele>
        <time>2010-07-25T11:09:30Z</time>
      </trkpt>
      <trkpt lat="44.47827" lon="6.69032">
        <ele>1933.3486328</ele>
        <time>2010-07-25T11:09:35Z</time>
      </trkpt>
      <trkpt lat="44.47833" lon="6.69043">
        <ele>1931.9064941</ele>
        <time>2010-07-25T11:09:39Z</time>
      </trkpt>
      <trkpt lat="44.47827" lon="6.69045">
        <ele>1929.5031738</ele>
        <time>2010-07-25T11:09:41Z</time>
      </trkpt>
      <trkpt lat="44.47813" lon="6.69057">
        <ele>1923.2548828</ele>
        <time>2010-07-25T11:09:47Z</time>
      </trkpt>
      <trkpt lat="44.47813" lon="6.69058">
        <ele>1923.7353516</ele>
        <time>2010-07-25T11:09:48Z</time>
      </trkpt>
      <trkpt lat="44.47828" lon="6.6907">
        <ele>1918.9289551</ele>
        <time>2010-07-25T11:09:54Z</time>
      </trkpt>
      <trkpt lat="44.47843" lon="6.6907">
        <ele>1913.6413574</ele>
        <time>2010-07-25T11:09:58Z</time>
      </trkpt>
      <trkpt lat="44.47858" lon="6.69062">
        <ele>1912.1994629</ele>
        <time>2010-07-25T11:10:02Z</time>
      </trkpt>
      <trkpt lat="44.47867" lon="6.69057">
        <ele>1911.2382812</ele>
        <time>2010-07-25T11:10:06Z</time>
      </trkpt>
      <trkpt lat="44.47867" lon="6.69062">
        <ele>1914.1220703</ele>
        <time>2010-07-25T11:10:10Z</time>
      </trkpt>
      <trkpt lat="44.47866" lon="6.69064">
        <ele>1916.0449219</ele>
        <time>2010-07-25T11:10:11Z</time>
      </trkpt>
      <trkpt lat="44.47863" lon="6.6907">
        <ele>1916.0449219</ele>
        <time>2010-07-25T11:10:16Z</time>
      </trkpt>
      <trkpt lat="44.47864" lon="6.69071">
        <ele>1919.409668</ele>
        <time>2010-07-25T11:10:18Z</time>
      </trkpt>
      <trkpt lat="44.47858" lon="6.69077">
        <ele>1914.1220703</ele>
        <time>2010-07-25T11:10:24Z</time>
      </trkpt>
      <trkpt lat="44.47858" lon="6.69073">
        <ele>1908.354248</ele>
        <time>2010-07-25T11:10:29Z</time>
      </trkpt>
      <trkpt lat="44.47864" lon="6.69074">
        <ele>1907.3930664</ele>
        <time>2010-07-25T11:10:35Z</time>
      </trkpt>
      <trkpt lat="44.47867" lon="6.69084">
        <ele>1923.2548828</ele>
        <time>2010-07-25T11:11:08Z</time>
      </trkpt>
      <trkpt lat="44.47864" lon="6.69081">
        <ele>1914.1220703</ele>
        <time>2010-07-25T11:11:22Z</time>
      </trkpt>
      <trkpt lat="44.4786" lon="6.69076">
        <ele>1900.6638184</ele>
        <time>2010-07-25T11:11:31Z</time>
      </trkpt>
      <trkpt lat="44.47864" lon="6.6908">
        <ele>1913.1608887</ele>
        <time>2010-07-25T11:11:45Z</time>
      </trkpt>
      <trkpt lat="44.47875" lon="6.69082">
        <ele>1929.5031738</ele>
        <time>2010-07-25T11:12:16Z</time>
      </trkpt>
      <trkpt lat="44.47877" lon="6.69082">
        <ele>1928.5419922</ele>
        <time>2010-07-25T11:12:20Z</time>
      </trkpt>
      <trkpt lat="44.47876" lon="6.69083">
        <ele>1928.0612793</ele>
        <time>2010-07-25T11:12:22Z</time>
      </trkpt>
      <trkpt lat="44.4787" lon="6.69085">
        <ele>1922.293457</ele>
        <time>2010-07-25T11:12:30Z</time>
      </trkpt>
      <trkpt lat="44.47868" lon="6.69084">
        <ele>1920.3708496</ele>
        <time>2010-07-25T11:12:37Z</time>
      </trkpt>
      <trkpt lat="44.47863" lon="6.69092">
        <ele>1920.3708496</ele>
        <time>2010-07-25T11:12:44Z</time>
      </trkpt>
      <trkpt lat="44.47857" lon="6.691">
        <ele>1916.0449219</ele>
        <time>2010-07-25T11:12:49Z</time>
      </trkpt>
      <trkpt lat="44.47857" lon="6.691">
        <ele>1914.1220703</ele>
        <time>2010-07-25T11:12:50Z</time>
      </trkpt>
      <trkpt lat="44.47869" lon="6.691">
        <ele>1905.9509277</ele>
        <time>2010-07-25T11:12:55Z</time>
      </trkpt>
      <trkpt lat="44.47883" lon="6.69099">
        <ele>1902.1057129</ele>
        <time>2010-07-25T11:12:59Z</time>
      </trkpt>
      <trkpt lat="44.47896" lon="6.69105">
        <ele>1900.1833496</ele>
        <time>2010-07-25T11:13:03Z</time>
      </trkpt>
      <trkpt lat="44.47911" lon="6.69103">
        <ele>1897.2990723</ele>
        <time>2010-07-25T11:13:07Z</time>
      </trkpt>
      <trkpt lat="44.47913" lon="6.69105">
        <ele>1898.2602539</ele>
        <time>2010-07-25T11:13:08Z</time>
      </trkpt>
      <trkpt lat="44.47925" lon="6.69115">
        <ele>1892.4926758</ele>
        <time>2010-07-25T11:13:13Z</time>
      </trkpt>
      <trkpt lat="44.47929" lon="6.69117">
        <ele>1890.5698242</ele>
        <time>2010-07-25T11:13:14Z</time>
      </trkpt>
      <trkpt lat="44.47953" lon="6.69115">
        <ele>1877.1115723</ele>
        <time>2010-07-25T11:13:20Z</time>
      </trkpt>
      <trkpt lat="44.47966" lon="6.6912">
        <ele>1870.3823242</ele>
        <time>2010-07-25T11:13:24Z</time>
      </trkpt>
      <trkpt lat="44.47983" lon="6.69119">
        <ele>1866.5368652</ele>
        <time>2010-07-25T11:13:29Z</time>
      </trkpt>
      <trkpt lat="44.48" lon="6.69116">
        <ele>1863.652832</ele>
        <time>2010-07-25T11:13:34Z</time>
      </trkpt>
      <trkpt lat="44.48019" lon="6.69113">
        <ele>1857.8852539</ele>
        <time>2010-07-25T11:13:39Z</time>
      </trkpt>
      <trkpt lat="44.48037" lon="6.69111">
        <ele>1853.5593262</ele>
        <time>2010-07-25T11:13:44Z</time>
      </trkpt>
      <trkpt lat="44.48042" lon="6.69112">
        <ele>1852.5979004</ele>
        <time>2010-07-25T11:13:49Z</time>
      </trkpt>
      <trkpt lat="44.48041" lon="6.69113">
        <ele>1854.0400391</ele>
        <time>2010-07-25T11:13:51Z</time>
      </trkpt>
      <trkpt lat="44.48033" lon="6.69118">
        <ele>1847.3105469</ele>
        <time>2010-07-25T11:13:54Z</time>
      </trkpt>
      <trkpt lat="44.48023" lon="6.69144">
        <ele>1843.465332</ele>
        <time>2010-07-25T11:13:58Z</time>
      </trkpt>
      <trkpt lat="44.48023" lon="6.69144">
        <ele>1843.9460449</ele>
        <time>2010-07-25T11:14:00Z</time>
      </trkpt>
      <trkpt lat="44.48028" lon="6.69152">
        <ele>1856.4431152</ele>
        <time>2010-07-25T11:14:45Z</time>
      </trkpt>
      <trkpt lat="44.48031" lon="6.69168">
        <ele>1861.2497559</ele>
        <time>2010-07-25T11:14:50Z</time>
      </trkpt>
      <trkpt lat="44.48055" lon="6.69198">
        <ele>1857.8852539</ele>
        <time>2010-07-25T11:14:58Z</time>
      </trkpt>
      <trkpt lat="44.48069" lon="6.69215">
        <ele>1856.4431152</ele>
        <time>2010-07-25T11:15:02Z</time>
      </trkpt>
      <trkpt lat="44.48089" lon="6.69244">
        <ele>1853.0786133</ele>
        <time>2010-07-25T11:15:08Z</time>
      </trkpt>
      <trkpt lat="44.48113" lon="6.69275">
        <ele>1851.6364746</ele>
        <time>2010-07-25T11:15:14Z</time>
      </trkpt>
      <trkpt lat="44.48126" lon="6.69296">
        <ele>1845.3879395</ele>
        <time>2010-07-25T11:15:17Z</time>
      </trkpt>
      <trkpt lat="44.48131" lon="6.69326">
        <ele>1841.0620117</ele>
        <time>2010-07-25T11:15:21Z</time>
      </trkpt>
      <trkpt lat="44.48128" lon="6.69332">
        <ele>1839.6201172</ele>
        <time>2010-07-25T11:15:22Z</time>
      </trkpt>
      <trkpt lat="44.48113" lon="6.69386">
        <ele>1831.4487305</ele>
        <time>2010-07-25T11:15:29Z</time>
      </trkpt>
      <trkpt lat="44.48108" lon="6.69438">
        <ele>1826.1616211</ele>
        <time>2010-07-25T11:15:35Z</time>
      </trkpt>
      <trkpt lat="44.4811" lon="6.69491">
        <ele>1820.8745117</ele>
        <time>2010-07-25T11:15:41Z</time>
      </trkpt>
      <trkpt lat="44.48111" lon="6.695">
        <ele>1819.9128418</ele>
        <time>2010-07-25T11:15:42Z</time>
      </trkpt>
      <trkpt lat="44.48116" lon="6.69518">
        <ele>1819.9128418</ele>
        <time>2010-07-25T11:15:44Z</time>
      </trkpt>
      <trkpt lat="44.4812" lon="6.69563">
        <ele>1818.9516602</ele>
        <time>2010-07-25T11:15:49Z</time>
      </trkpt>
      <trkpt lat="44.48121" lon="6.69573">
        <ele>1819.432373</ele>
        <time>2010-07-25T11:15:50Z</time>
      </trkpt>
      <trkpt lat="44.48125" lon="6.69609">
        <ele>1819.432373</ele>
        <time>2010-07-25T11:15:54Z</time>
      </trkpt>
      <trkpt lat="44.48126" lon="6.69632">
        <ele>1821.3549805</ele>
        <time>2010-07-25T11:15:57Z</time>
      </trkpt>
      <trkpt lat="44.48133" lon="6.69685">
        <ele>1822.3164062</ele>
        <time>2010-07-25T11:16:04Z</time>
      </trkpt>
      <trkpt lat="44.48141" lon="6.69722">
        <ele>1820.8745117</ele>
        <time>2010-07-25T11:16:10Z</time>
      </trkpt>
      <trkpt lat="44.48143" lon="6.69728">
        <ele>1820.8745117</ele>
        <time>2010-07-25T11:16:11Z</time>
      </trkpt>
      <trkpt lat="44.48145" lon="6.69763">
        <ele>1825.6809082</ele>
        <time>2010-07-25T11:16:16Z</time>
      </trkpt>
      <trkpt lat="44.48143" lon="6.69798">
        <ele>1827.6035156</ele>
        <time>2010-07-25T11:16:21Z</time>
      </trkpt>
      <trkpt lat="44.48148" lon="6.6983">
        <ele>1824.7197266</ele>
        <time>2010-07-25T11:16:25Z</time>
      </trkpt>
      <trkpt lat="44.48161" lon="6.69874">
        <ele>1822.3164062</ele>
        <time>2010-07-25T11:16:30Z</time>
      </trkpt>
      <trkpt lat="44.48171" lon="6.69909">
        <ele>1818.9516602</ele>
        <time>2010-07-25T11:16:34Z</time>
      </trkpt>
      <trkpt lat="44.48178" lon="6.69935">
        <ele>1813.1838379</ele>
        <time>2010-07-25T11:16:37Z</time>
      </trkpt>
      <trkpt lat="44.48175" lon="6.69985">
        <ele>1804.0515137</ele>
        <time>2010-07-25T11:16:42Z</time>
      </trkpt>
      <trkpt lat="44.48169" lon="6.70025">
        <ele>1796.8413086</ele>
        <time>2010-07-25T11:16:46Z</time>
      </trkpt>
      <trkpt lat="44.48171" lon="6.70045">
        <ele>1794.9187012</ele>
        <time>2010-07-25T11:16:48Z</time>
      </trkpt>
      <trkpt lat="44.48174" lon="6.70064">
        <ele>1794.4379883</ele>
        <time>2010-07-25T11:16:50Z</time>
      </trkpt>
      <trkpt lat="44.48167" lon="6.70099">
        <ele>1794.4379883</ele>
        <time>2010-07-25T11:16:54Z</time>
      </trkpt>
      <trkpt lat="44.48145" lon="6.70159">
        <ele>1789.1508789</ele>
        <time>2010-07-25T11:17:00Z</time>
      </trkpt>
      <trkpt lat="44.48145" lon="6.70169">
        <ele>1789.6315918</ele>
        <time>2010-07-25T11:17:01Z</time>
      </trkpt>
      <trkpt lat="44.48143" lon="6.70202">
        <ele>1791.0734863</ele>
        <time>2010-07-25T11:17:04Z</time>
      </trkpt>
      <trkpt lat="44.48137" lon="6.70229">
        <ele>1792.515625</ele>
        <time>2010-07-25T11:17:07Z</time>
      </trkpt>
      <trkpt lat="44.48128" lon="6.70292">
        <ele>1790.1123047</ele>
        <time>2010-07-25T11:17:14Z</time>
      </trkpt>
      <trkpt lat="44.48123" lon="6.70319">
        <ele>1787.7087402</ele>
        <time>2010-07-25T11:17:17Z</time>
      </trkpt>
      <trkpt lat="44.48117" lon="6.70335">
        <ele>1786.7473145</ele>
        <time>2010-07-25T11:17:19Z</time>
      </trkpt>
      <trkpt lat="44.48108" lon="6.70367">
        <ele>1783.8635254</ele>
        <time>2010-07-25T11:17:23Z</time>
      </trkpt>
      <trkpt lat="44.48087" lon="6.70399">
        <ele>1781.4602051</ele>
        <time>2010-07-25T11:17:28Z</time>
      </trkpt>
      <trkpt lat="44.48067" lon="6.70434">
        <ele>1783.8635254</ele>
        <time>2010-07-25T11:17:33Z</time>
      </trkpt>
      <trkpt lat="44.48059" lon="6.70469">
        <ele>1781.4602051</ele>
        <time>2010-07-25T11:17:37Z</time>
      </trkpt>
      <trkpt lat="44.48054" lon="6.70476">
        <ele>1781.4602051</ele>
        <time>2010-07-25T11:17:38Z</time>
      </trkpt>
      <trkpt lat="44.48028" lon="6.70526">
        <ele>1779.5375977</ele>
        <time>2010-07-25T11:17:44Z</time>
      </trkpt>
      <trkpt lat="44.48009" lon="6.70562">
        <ele>1778.576416</ele>
        <time>2010-07-25T11:17:48Z</time>
      </trkpt>
      <trkpt lat="44.47995" lon="6.70611">
        <ele>1771.8469238</ele>
        <time>2010-07-25T11:17:53Z</time>
      </trkpt>
      <trkpt lat="44.47994" lon="6.70633">
        <ele>1772.3278809</ele>
        <time>2010-07-25T11:17:55Z</time>
      </trkpt>
      <trkpt lat="44.47994" lon="6.70682">
        <ele>1770.4050293</ele>
        <time>2010-07-25T11:18:00Z</time>
      </trkpt>
      <trkpt lat="44.47994" lon="6.70752">
        <ele>1764.637207</ele>
        <time>2010-07-25T11:18:07Z</time>
      </trkpt>
      <trkpt lat="44.47999" lon="6.70806">
        <ele>1756.9467773</ele>
        <time>2010-07-25T11:18:13Z</time>
      </trkpt>
      <trkpt lat="44.47999" lon="6.70828">
        <ele>1759.8305664</ele>
        <time>2010-07-25T11:18:16Z</time>
      </trkpt>
      <trkpt lat="44.48005" lon="6.70868">
        <ele>1775.6923828</ele>
        <time>2010-07-25T11:18:21Z</time>
      </trkpt>
      <trkpt lat="44.48016" lon="6.70894">
        <ele>1776.1730957</ele>
        <time>2010-07-25T11:18:25Z</time>
      </trkpt>
      <trkpt lat="44.48019" lon="6.70909">
        <ele>1774.7312012</ele>
        <time>2010-07-25T11:18:27Z</time>
      </trkpt>
      <trkpt lat="44.4803" lon="6.70967">
        <ele>1765.5986328</ele>
        <time>2010-07-25T11:18:34Z</time>
      </trkpt>
      <trkpt lat="44.48038" lon="6.71015">
        <ele>1762.2338867</ele>
        <time>2010-07-25T11:18:40Z</time>
      </trkpt>
      <trkpt lat="44.48042" lon="6.71064">
        <ele>1759.3500977</ele>
        <time>2010-07-25T11:18:46Z</time>
      </trkpt>
      <trkpt lat="44.48033" lon="6.7111">
        <ele>1755.9851074</ele>
        <time>2010-07-25T11:18:52Z</time>
      </trkpt>
      <trkpt lat="44.48018" lon="6.71149">
        <ele>1755.5046387</ele>
        <time>2010-07-25T11:18:58Z</time>
      </trkpt>
      <trkpt lat="44.48007" lon="6.71167">
        <ele>1755.0239258</ele>
        <time>2010-07-25T11:19:03Z</time>
      </trkpt>
      <trkpt lat="44.47989" lon="6.71184">
        <ele>1754.5432129</ele>
        <time>2010-07-25T11:19:10Z</time>
      </trkpt>
      <trkpt lat="44.47987" lon="6.71184">
        <ele>1754.5432129</ele>
        <time>2010-07-25T11:19:14Z</time>
      </trkpt>
      <trkpt lat="44.47989" lon="6.71182">
        <ele>1757.9082031</ele>
        <time>2010-07-25T11:19:25Z</time>
      </trkpt>
      <trkpt lat="44.47989" lon="6.71182">
        <ele>1759.3500977</ele>
        <time>2010-07-25T11:19:27Z</time>
      </trkpt>
    </trkseg>
  </trk>
</gpx>